[[{"header":{"parameterUnit":"m.s-1","parameterCategory":1,"la1":31.0,"la2":29.5877,"lo1":-88.7671,"lo2":-86.6584,"dy":0.0162,"dx":0.0185,"nx":115,"ny":88,"refTime":"2024-08-22T12:00:00:Z","depth":0,"parameterNumber":2,"parameterNumberName":"U-component_of_WINDS"},"data":[0.0,0.0,0.0,0.0,0.0,0.0,0.0,0.0,0.0,0.0,0.0,0.0,0.0,0.0,0.0,0.0,0.0,0.0,0.0,0.0,0.0,0.0,0.0,0.0,0.0,0.0,0.0,0.0,0.0,0.0,0.0,0.0,0.0,0.0,0.0,0.0,0.0,0.0,0.0,0.0,0.0,0.0,0.0,0.0,0.0,0.0,0.0,0.0,0.0,0.0,0.0,0.0,0.0,0.0,0.0,0.0,0.0,0.0,0.0,0.0,0.0,0.0,0.0,0.0,0.0,0.0,0.0,0.0,0.0,0.0,0.0,0.0,0.0,0.0,0.0,0.0,0.0,0.0,0.0,0.0,0.0,0.0,0.0,0.0,0.0,0.0,0.0,0.0,0.0,0.0,0.0,0.0,0.0,0.0,0.0,0.0,0.0,0.0,0.0,0.0,0.0,0.0,0.0,0.0,0.0,0.0,0.0,0.0,0.0,0.0,0.0,0.0,0.0,0.0,0.0,0.0,0.0,0.0,0.0,0.0,0.0,0.0,0.0,0.0,0.0,0.0,0.0,0.0,0.0,0.0,0.0,0.0,0.0,0.0,0.0,0.0,0.0,0.0,0.0,0.0,0.0,0.0,0.0,0.0,0.0,0.0,0.0,0.0,0.0,0.0,0.0,0.0,0.0,0.0,0.0,0.0,0.0,0.0,0.0,0.0,0.0,0.0,0.0,0.0,0.0,0.0,0.0,0.0,0.0,0.0,0.0,0.0,0.0,0.0,0.0,0.0,0.0,0.0,0.0,0.0,0.0,0.0,0.0,0.0,0.0,0.0,0.0,0.0,0.0,0.0,0.0,0.0,0.0,0.0,0.0,0.0,0.0,0.0,0.0,0.0,0.0,0.0,0.0,0.0,0.0,0.0,0.0,0.0,0.0,0.0,0.0,0.0,0.0,0.0,0.0,0.0,0.0,0.0,0.0,0.0,0.0,0.0,0.0,0.0,0.0,0.0,0.0,0.0,0.0,0.0,0.0,0.0,0.0,0.0,0.0,0.0,0.0,0.0,0.0,0.0,0.0,0.0,0.0,0.0,0.0,0.0,0.0,0.0,0.0,0.0,0.0,0.0,0.0,0.0,0.0,0.0,0.0,0.0,0.0,0.0,0.0,0.0,0.0,0.0,0.0,0.0,0.0,0.0,0.0,0.0,0.0,0.0,0.0,0.0,0.0,0.0,0.0,0.0,0.0,0.0,0.0,0.0,0.0,0.0,0.0,0.0,0.0,0.0,0.0,0.0,0.0,0.0,0.0,0.0,0.0,0.0,0.0,0.0,0.0,0.0,0.0,0.0,0.0,0.0,0.0,0.0,0.0,0.0,0.0,0.0,0.0,0.0,0.0,0.0,0.0,0.0,0.0,0.0,0.0,0.0,0.0,0.0,0.0,0.0,0.0,0.0,0.0,0.0,0.0,0.0,0.0,0.0,0.0,0.0,0.0,0.0,0.0,0.0,0.0,0.0,0.0,0.0,0.0,0.0,0.0,0.0,0.0,0.0,0.0,0.0,0.0,0.0,0.0,0.0,0.0,0.0,0.0,0.0,0.0,0.0,0.0,0.0,0.0,0.0,0.0,0.0,0.0,0.0,0.0,0.0,0.0,0.0,0.0,0.0,0.0,0.0,0.0,0.0,0.0,0.0,0.0,0.0,0.0,0.0,0.0,0.0,0.0,0.0,0.0,0.0,0.0,0.0,0.0,0.0,0.0,0.0,0.0,0.0,0.0,0.0,0.0,0.0,0.0,0.0,0.0,0.0,0.0,0.0,0.0,0.0,0.0,0.0,0.0,0.0,0.0,0.0,0.0,0.0,0.0,0.0,0.0,0.0,0.0,0.0,0.0,0.0,0.0,0.0,0.0,0.0,0.0,0.0,0.0,0.0,0.0,0.0,0.0,0.0,0.0,0.0,0.0,0.0,0.0,0.0,0.0,0.0,0.0,0.0,0.0,0.0,0.0,0.0,0.0,0.0,0.0,0.0,0.0,0.0,0.0,0.0,0.0,0.0,0.0,0.0,0.0,0.0,0.0,0.0,0.0,0.0,0.0,0.0,0.0,0.0,0.0,0.0,0.0,0.0,0.0,0.0,0.0,0.0,0.0,0.0,0.0,0.0,0.0,0.0,0.0,0.0,0.0,0.0,0.0,0.0,0.0,0.0,0.0,0.0,0.0,0.0,0.0,0.0,0.0,0.0,0.0,0.0,0.0,0.0,0.0,0.0,0.0,0.0,0.0,0.0,0.0,0.0,0.0,0.0,0.0,0.0,0.0,0.0,0.0,0.0,0.0,0.0,0.0,0.0,0.0,0.0,0.0,0.0,0.0,0.0,0.0,0.0,0.0,0.0,0.0,0.0,0.0,0.0,0.0,0.0,0.0,0.0,0.0,0.0,0.0,0.0,0.0,0.0,0.0,0.0,0.0,0.0,0.0,0.0,0.0,0.0,0.0,0.0,0.0,0.0,0.0,0.0,0.0,0.0,0.0,0.0,0.0,0.0,0.0,0.0,0.0,0.0,0.0,0.0,0.0,0.0,0.0,0.0,0.0,0.0,0.0,0.0,0.0,0.0,0.0,0.0,0.0,0.0,0.0,0.0,0.0,0.0,0.0,0.0,0.0,0.0,0.0,0.0,0.0,0.0,0.0,0.0,0.0,0.0,0.0,0.0,0.0,0.0,0.0,0.0,0.0,0.0,0.0,0.0,0.0,0.0,0.0,0.0,0.0,0.0,0.0,0.0,0.0,0.0,0.0,0.0,0.0,0.0,0.0,0.0,0.0,0.0,0.0,0.0,0.0,0.0,0.0,0.0,0.0,0.0,0.0,0.0,0.0,0.0,0.0,0.0,0.0,0.0,0.0,0.0,0.0,0.0,0.0,0.0,0.0,0.0,0.0,0.0,0.0,0.0,0.0,0.0,0.0,0.0,0.0,0.0,0.0,0.0,0.0,0.0,0.0,0.0,0.0,0.0,0.0,0.0,0.0,0.0,0.0,0.0,0.0,0.0,0.0,0.0,0.0,0.0,0.0,0.0,0.0,0.0,0.0,0.0,0.0,0.0,0.0,0.0,0.0,0.0,0.0,0.0,0.0,0.0,0.0,0.0,0.0,0.0,0.0,0.0,0.0,0.0,0.0,0.0,0.0,0.0,0.0,0.0,0.0,0.0,0.0,0.0,0.0,0.0,0.0,0.0,0.0,0.0,0.0,0.0,0.0,0.0,0.0,0.0,0.0,0.0,0.0,0.0,0.0,0.0,0.0,0.0,0.0,0.0,0.0,0.0,0.0,0.0,0.0,0.0,0.0,0.0,0.0,0.0,0.0,0.0,0.0,0.0,0.0,0.0,0.0,0.0,0.0,0.0,0.0,0.0,0.0,0.0,0.0,0.0,0.0,0.0,0.0,0.0,0.0,0.0,0.0,0.0,0.0,0.0,0.0,0.0,0.0,0.0,0.0,0.0,0.0,0.0,0.0,0.0,0.0,0.0,0.0,0.0,0.0,0.0,0.0,0.0,0.0,0.0,0.0,0.0,0.0,0.0,0.0,0.0,0.0,0.0,0.0,0.0,0.0,0.0,0.0,0.0,0.0,0.0,0.0,0.0,0.0,0.0,0.0,0.0,0.0,0.0,0.0,0.0,0.0,0.0,0.0,0.0,0.0,0.0,0.0,0.0,0.0,0.0,0.0,0.0,0.0,0.0,0.0,0.0,0.0,0.0,0.0,0.0,0.0,0.0,0.0,0.0,0.0,0.0,0.0,0.0,0.0,0.0,0.0,0.0,0.0,0.0,0.0,0.0,0.0,0.0,0.0,0.0,0.0,0.0,0.0,0.0,0.0,0.0,0.0,0.0,0.0,0.0,0.0,0.0,0.0,0.0,0.0,0.0,0.0,0.0,0.0,0.0,0.0,0.0,0.0,0.0,0.0,0.0,0.0,0.0,0.0,0.0,0.0,0.0,0.0,0.0,0.0,0.0,0.0,0.0,0.0,0.0,0.0,0.0,0.0,0.0,0.0,0.0,0.0,0.0,0.0,0.0,0.0,0.0,0.0,0.0,0.0,0.0,0.0,0.0,0.0,0.0,0.0,0.0,0.0,0.0,0.0,0.0,0.0,0.0,0.0,0.0,0.0,0.0,0.0,0.0,0.0,0.0,0.0,0.0,0.0,0.0,0.0,0.0,0.0,0.0,0.0,0.0,0.0,0.0,0.0,0.0,0.0,0.0,0.0,0.0,0.0,0.0,0.0,0.0,1.6648,0.0,0.0,0.0,0.0,0.0,0.0,0.0,0.0,0.0,0.0,0.0,0.0,0.0,0.0,0.0,0.0,0.0,0.0,0.0,0.0,0.0,0.0,0.0,0.0,0.0,0.0,0.0,0.0,0.0,0.0,0.0,0.0,0.0,0.0,0.0,0.0,0.0,0.0,0.0,0.0,0.0,0.0,0.0,0.0,0.0,0.0,0.0,0.0,0.0,0.0,0.0,0.0,0.0,0.0,0.0,0.0,0.0,0.0,0.0,0.0,0.0,0.0,0.0,0.0,0.0,0.0,0.0,0.0,0.0,0.0,0.0,0.0,0.0,0.0,0.0,0.0,0.0,0.0,0.0,0.0,0.0,0.0,0.0,0.0,0.0,0.0,0.0,0.0,0.0,0.0,0.0,0.0,0.0,0.0,0.0,0.0,0.0,0.0,0.0,0.0,0.0,0.0,0.0,0.0,0.0,0.0,0.0,0.0,0.0,0.0,1.7448,1.7608,1.7608,1.7315,1.6677,0.0,0.0,0.0,0.0,0.0,0.0,0.0,0.0,0.0,0.0,0.0,0.0,0.0,0.0,0.0,0.0,0.0,0.0,0.0,0.0,0.0,0.0,0.0,0.0,0.0,0.0,0.0,0.0,0.0,0.0,0.0,0.0,0.0,0.0,0.0,0.0,0.0,0.0,0.0,0.0,0.0,0.0,0.0,0.0,0.0,0.0,0.0,0.0,0.0,0.0,0.0,0.0,0.0,0.0,0.0,0.0,0.0,0.0,0.0,0.0,0.0,0.0,0.0,0.0,0.0,0.0,0.0,0.0,0.0,0.0,0.0,0.0,0.0,0.0,0.0,0.0,0.0,0.0,0.0,0.0,0.0,0.0,0.0,0.0,0.0,0.0,0.0,0.0,0.0,0.0,0.0,0.0,0.0,0.0,0.0,0.0,0.0,0.0,0.0,0.0,0.0,0.0,0.0,0.0,0.0,0.0,0.0,0.0,0.0,0.0,0.0,0.0,1.7782,1.7528,1.6902,0.0,0.0,0.0,0.0,0.0,0.0,0.0,0.0,0.0,0.0,0.0,0.0,0.0,0.0,0.0,0.0,0.0,0.0,0.0,0.0,0.0,0.0,0.0,0.0,0.0,0.0,0.0,0.0,0.0,0.0,0.0,0.0,0.0,0.0,0.0,0.0,0.0,0.0,0.0,0.0,0.0,0.0,0.0,0.0,0.0,0.0,0.0,0.0,0.0,0.0,0.0,0.0,0.0,0.0,0.0,0.0,0.0,0.0,0.0,0.0,0.0,0.0,0.0,0.0,0.0,0.0,0.0,0.0,0.0,0.0,0.0,0.0,0.0,0.0,0.0,0.0,0.0,0.0,0.0,0.0,0.0,0.0,0.0,0.0,0.0,0.0,0.0,0.0,0.0,0.0,0.0,0.0,0.0,0.0,0.0,0.0,0.0,0.0,0.0,0.0,0.0,0.0,0.0,0.0,0.0,0.0,0.0,0.0,0.0,0.0,1.7568,1.837,1.8397,0.0,1.7503,0.0,0.0,0.0,0.0,0.0,0.0,0.0,0.0,0.0,0.0,0.0,0.0,0.0,0.0,0.0,0.0,0.0,0.0,0.0,0.0,0.0,0.0,0.0,0.0,0.0,0.0,0.0,0.0,0.0,0.0,0.0,0.0,0.0,0.0,0.0,0.0,0.0,0.0,0.0,0.0,0.0,0.0,0.0,0.0,0.0,0.0,0.0,0.0,0.0,0.0,0.0,0.0,0.0,0.0,0.0,0.0,0.0,0.0,0.0,0.0,0.0,0.0,0.0,0.0,0.0,0.0,0.0,0.0,0.0,0.0,0.0,0.0,0.0,0.0,0.0,0.0,0.0,0.0,0.0,0.0,0.0,0.0,0.0,0.0,0.0,0.0,0.0,0.0,0.0,0.0,0.0,0.0,0.0,0.0,0.0,0.0,0.0,0.0,0.0,0.0,0.0,0.0,0.0,0.0,0.0,0.0,0.0,0.0,0.0,0.0,0.0,1.8477,1.8143,1.7862,0.0,0.0,0.0,0.0,0.0,0.0,0.0,0.0,0.0,0.0,0.0,0.0,0.0,0.0,0.0,0.0,0.0,0.0,0.0,0.0,0.0,0.0,0.0,0.0,0.0,0.0,0.0,0.0,0.0,0.0,0.0,0.0,0.0,0.0,0.0,0.0,0.0,0.0,0.0,0.0,0.0,0.0,0.0,0.0,0.0,0.0,0.0,0.0,0.0,0.0,0.0,0.0,0.0,0.0,0.0,0.0,0.0,0.0,0.0,0.0,0.0,0.0,0.0,0.0,0.0,0.0,0.0,0.0,0.0,0.0,0.0,0.0,0.0,0.0,0.0,0.0,0.0,0.0,0.0,0.0,0.0,0.0,0.0,0.0,0.0,0.0,0.0,0.0,0.0,0.0,0.0,0.0,0.0,0.0,0.0,0.0,0.0,0.0,0.0,0.0,0.0,0.0,0.0,0.0,0.0,0.0,0.0,0.0,0.0,0.0,1.7474,0.0,1.8424,1.8063,1.7742,1.7501,0.0,0.0,0.0,0.0,0.0,0.0,0.0,0.0,0.0,0.0,0.0,0.0,0.0,0.0,0.0,0.0,0.0,0.0,0.0,0.0,0.0,0.0,0.0,0.0,0.0,0.0,0.0,0.0,0.0,0.0,0.0,0.0,0.0,0.0,0.0,0.0,0.0,0.0,0.0,0.0,0.0,0.0,0.0,0.0,0.0,0.0,0.0,0.0,0.0,0.0,0.0,0.0,0.0,0.0,0.0,0.0,0.0,0.0,0.0,0.0,0.0,0.0,0.0,0.0,0.0,0.0,0.0,0.0,0.0,0.0,0.0,0.0,0.0,0.0,0.0,0.0,0.0,0.0,0.0,0.0,0.0,0.0,0.0,0.0,0.0,0.0,0.0,0.0,0.0,0.0,0.0,0.0,0.0,0.0,0.0,0.0,0.0,0.0,0.0,0.0,0.0,0.0,0.0,0.0,0.0,0.0,0.0,0.0,0.0,1.7462,1.7622,1.8464,1.8464,1.8077,0.0,0.0,0.0,0.0,0.0,0.0,0.0,0.0,0.0,0.0,0.0,0.0,0.0,0.0,0.0,0.0,0.0,0.0,0.0,0.0,0.0,0.0,0.0,0.0,0.0,0.0,0.0,0.0,0.0,0.0,0.0,0.0,0.0,0.0,0.0,0.0,0.0,0.0,0.0,0.0,0.0,0.0,0.0,0.0,0.0,0.0,0.0,0.0,0.0,0.0,0.0,0.0,0.0,0.0,0.0,0.0,0.0,0.0,0.0,0.0,0.0,0.0,0.0,0.0,0.0,0.0,0.0,0.0,0.0,0.0,0.0,0.0,0.0,0.0,0.0,0.0,0.0,0.0,0.0,0.0,0.0,0.0,0.0,0.0,0.0,0.0,0.0,0.0,0.0,0.0,0.0,0.0,0.0,0.0,0.0,0.0,0.0,0.0,0.0,0.0,0.0,0.0,0.0,0.0,0.0,0.0,0.0,0.0,0.0,1.6887,1.726,1.797,0.0,1.8157,1.7689,0.0,0.0,0.0,0.0,0.0,0.0,0.0,0.0,0.0,0.0,0.0,0.0,0.0,0.0,0.0,0.0,0.0,0.0,0.0,0.0,0.0,0.0,0.0,0.0,0.0,0.0,0.0,0.0,0.0,0.0,0.0,0.0,0.0,0.0,0.0,0.0,0.0,0.0,0.0,0.0,0.0,0.0,0.0,0.0,0.0,0.0,0.0,0.0,0.0,0.0,0.0,0.0,0.0,0.0,0.0,0.0,0.0,0.0,0.0,0.0,0.0,0.0,0.0,0.0,0.0,0.0,0.0,0.0,0.0,0.0,0.0,0.0,0.0,0.0,0.0,0.0,0.0,0.0,0.0,0.0,0.0,0.0,0.0,0.0,0.0,0.0,0.0,0.0,0.0,0.0,0.0,0.0,0.0,0.0,0.0,0.0,0.0,0.0,0.0,0.0,0.0,0.0,0.0,0.0,0.0,0.0,0.0,0.0,0.0,1.6712,0.0,1.8197,0.0,1.7849,1.7301,0.0,0.0,0.0,0.0,0.0,0.0,0.0,0.0,0.0,0.0,0.0,0.0,0.0,0.0,0.0,0.0,0.0,0.0,0.0,0.0,0.0,0.0,0.0,0.0,0.0,0.0,0.0,0.0,0.0,0.0,0.0,0.0,0.0,0.0,0.0,0.0,0.0,0.0,0.0,0.0,0.0,0.0,0.0,0.0,0.0,0.0,0.0,0.0,0.0,0.0,0.0,0.0,0.0,0.0,0.0,0.0,0.0,0.0,0.0,0.0,0.0,0.0,0.0,0.0,0.0,0.0,0.0,0.0,0.0,0.0,0.0,0.0,0.0,0.0,0.0,0.0,0.0,0.0,0.0,0.0,0.0,0.0,0.0,0.0,0.0,0.0,0.0,0.0,0.0,0.0,0.0,0.0,0.0,0.0,0.0,0.0,0.0,0.0,0.0,0.0,0.0,0.0,0.0,0.0,0.0,0.0,0.0,0.0,1.6406,1.7541,1.8157,1.8196,1.7662,1.7608,1.706,0.0,0.0,0.0,0.0,0.0,0.0,0.0,0.0,0.0,0.0,0.0,0.0,0.0,0.0,0.0,0.0,0.0,0.0,0.0,0.0,0.0,0.0,0.0,0.0,0.0,0.0,0.0,0.0,0.0,0.0,0.0,0.0,0.0,0.0,0.0,0.0,0.0,0.0,0.0,0.0,0.0,0.0,0.0,0.0,0.0,0.0,0.0,0.0,0.0,0.0,0.0,0.0,0.0,0.0,0.0,0.0,0.0,0.0,0.0,0.0,0.0,0.0,0.0,0.0,0.0,0.0,0.0,0.0,0.0,0.0,0.0,0.0,0.0,0.0,0.0,0.0,0.0,0.0,0.0,0.0,0.0,0.0,0.0,0.0,0.0,0.0,0.0,0.0,0.0,0.0,0.0,0.0,0.0,0.0,0.0,0.0,0.0,0.0,0.0,0.0,0.0,0.0,0.0,0.0,0.0,0.0,0.0,0.0,0.0,1.6981,1.7555,1.8076,1.8423,1.7502,1.7075,0.0,0.0,0.0,0.0,0.0,0.0,0.0,0.0,0.0,0.0,0.0,0.0,0.0,0.0,0.0,0.0,0.0,0.0,0.0,0.0,0.0,0.0,0.0,0.0,0.0,0.0,0.0,0.0,0.0,0.0,0.0,0.0,0.0,0.0,0.0,0.0,0.0,0.0,0.0,0.0,0.0,0.0,0.0,0.0,0.0,0.0,0.0,0.0,0.0,0.0,0.0,0.0,0.0,0.0,0.0,0.0,0.0,0.0,0.0,0.0,0.0,0.0,0.0,0.0,0.0,0.0,0.0,0.0,0.0,0.0,0.0,0.0,0.0,0.0,0.0,0.0,0.0,0.0,0.0,0.0,0.0,0.0,0.0,0.0,0.0,0.0,0.0,0.0,0.0,0.0,0.0,0.0,0.0,0.0,0.0,0.0,0.0,0.0,0.0,0.0,0.0,0.0,0.0,0.0,0.0,0.0,0.0,0.0,0.0,1.7408,1.805,1.8571,1.889,1.7782,1.7289,1.7489,0.0,0.0,0.0,0.0,0.0,0.0,0.0,0.0,0.0,0.0,0.0,0.0,0.0,0.0,0.0,0.0,0.0,0.0,0.0,0.0,0.0,0.0,0.0,0.0,0.0,0.0,0.0,0.0,0.0,0.0,0.0,0.0,0.0,0.0,0.0,0.0,0.0,0.0,0.0,0.0,0.0,0.0,0.0,0.0,0.0,0.0,0.0,0.0,0.0,0.0,0.0,0.0,0.0,0.0,0.0,0.0,0.0,0.0,0.0,0.0,0.0,0.0,0.0,0.0,0.0,0.0,0.0,0.0,0.0,0.0,0.0,0.0,0.0,0.0,0.0,0.0,0.0,0.0,0.0,0.0,0.0,0.0,0.0,0.0,0.0,0.0,0.0,0.0,0.0,0.0,0.0,0.0,0.0,0.0,0.0,0.0,0.0,0.0,0.0,0.0,0.0,0.0,0.0,0.0,0.0,0.0,0.0,0.0,1.8558,1.9399,1.9573,1.8996,1.8369,1.7636,0.0,0.0,0.0,0.0,0.0,0.0,0.0,0.0,0.0,0.0,0.0,0.0,0.0,0.0,0.0,0.0,0.0,0.0,0.0,0.0,0.0,0.0,0.0,0.0,0.0,0.0,0.0,0.0,0.0,0.0,0.0,0.0,0.0,0.0,0.0,0.0,0.0,0.0,0.0,0.0,0.0,0.0,0.0,0.0,0.0,0.0,0.0,0.0,0.0,0.0,0.0,0.0,0.0,0.0,0.0,0.0,0.0,0.0,0.0,0.0,0.0,0.0,0.0,0.0,0.0,0.0,0.0,0.0,0.0,0.0,0.0,0.0,0.0,0.0,0.0,0.0,0.0,0.0,0.0,0.0,0.0,0.0,0.0,0.0,0.0,0.0,0.0,0.0,0.0,0.0,0.0,0.0,0.0,0.0,0.0,0.0,0.0,0.0,0.0,0.0,0.0,0.0,0.0,0.0,0.0,0.0,0.0,0.0,0.0,1.9174,2.003,2.0267,1.9863,1.8905,1.8156,0.0,0.0,0.0,0.0,0.0,0.0,0.0,0.0,0.0,0.0,0.0,0.0,0.0,0.0,0.0,0.0,0.0,0.0,0.0,0.0,0.0,0.0,0.0,0.0,0.0,0.0,0.0,0.0,0.0,0.0,0.0,0.0,0.0,0.0,0.0,0.0,0.0,0.0,0.0,0.0,0.0,0.0,0.0,0.0,0.0,0.0,0.0,0.0,0.0,0.0,0.0,0.0,0.0,0.0,0.0,0.0,0.0,0.0,0.0,0.0,0.0,0.0,0.0,0.0,0.0,0.0,0.0,0.0,0.0,0.0,0.0,0.0,0.0,0.0,0.0,0.0,0.0,0.0,0.0,0.0,0.0,0.0,0.0,0.0,0.0,0.0,0.0,0.0,0.0,0.0,0.0,0.0,0.0,0.0,0.0,0.0,0.0,0.0,0.0,0.0,0.0,0.0,0.0,0.0,0.0,0.0,0.0,0.0,1.8838,1.9575,2.0311,2.0535,2.021,1.9466,1.8664,0.0,0.0,0.0,0.0,0.0,0.0,0.0,0.0,0.0,0.0,0.0,0.0,0.0,0.0,0.0,0.0,0.0,0.0,0.0,0.0,0.0,0.0,0.0,0.0,0.0,0.0,0.0,0.0,0.0,0.0,0.0,0.0,0.0,0.0,0.0,0.0,0.0,0.0,0.0,0.0,0.0,0.0,0.0,0.0,0.0,0.0,0.0,0.0,0.0,0.0,0.0,0.0,0.0,0.0,0.0,0.0,0.0,0.0,0.0,0.0,0.0,0.0,0.0,0.0,0.0,0.0,0.0,0.0,0.0,0.0,0.0,0.0,0.0,0.0,0.0,0.0,0.0,0.0,0.0,0.0,0.0,0.0,0.0,0.0,0.0,0.0,0.0,0.0,0.0,0.0,0.0,0.0,0.0,0.0,0.0,0.0,0.0,0.0,0.0,0.0,0.0,0.0,0.0,0.0,0.0,0.0,0.0,0.0,1.9025,1.9826,2.0388,2.0535,2.021,1.996,1.9118,0.0,0.0,0.0,0.0,0.0,0.0,0.0,0.0,0.0,0.0,0.0,0.0,0.0,0.0,0.0,0.0,0.0,0.0,0.0,0.0,0.0,0.0,0.0,0.0,0.0,0.0,0.0,0.0,0.0,0.0,0.0,0.0,0.0,0.0,0.0,0.0,0.0,0.0,0.0,0.0,0.0,0.0,0.0,0.0,0.0,0.0,0.0,0.0,0.0,0.0,0.0,0.0,0.0,0.0,0.0,0.0,0.0,0.0,0.0,0.0,0.0,0.0,0.0,0.0,0.0,0.0,0.0,0.0,0.0,0.0,0.0,0.0,0.0,0.0,0.0,0.0,0.0,0.0,0.0,0.0,0.0,0.0,0.0,0.0,0.0,0.0,0.0,0.0,0.0,0.0,0.0,0.0,0.0,0.0,0.0,0.0,0.0,0.0,0.0,0.0,0.0,0.0,0.0,0.0,0.0,0.0,0.0,0.0,1.972,2.0104,2.0494,2.0535,2.021,1.996,1.9196,0.0,0.0,0.0,0.0,0.0,0.0,0.0,0.0,0.0,0.0,0.0,0.0,0.0,0.0,0.0,0.0,0.0,0.0,0.0,0.0,0.0,0.0,0.0,0.0,0.0,0.0,0.0,0.0,0.0,0.0,0.0,0.0,0.0,0.0,0.0,0.0,0.0,0.0,0.0,0.0,0.0,0.0,0.0,0.0,0.0,0.0,0.0,0.0,2.8623,0.0,0.0,0.0,0.0,0.0,0.0,0.0,0.0,0.0,0.0,0.0,0.0,0.0,0.0,0.0,0.0,0.0,0.0,0.0,0.0,0.0,0.0,0.0,0.0,0.0,0.0,0.0,0.0,0.0,0.0,0.0,0.0,0.0,0.0,0.0,0.0,0.0,0.0,0.0,0.0,0.0,0.0,0.0,0.0,0.0,0.0,0.0,0.0,0.0,0.0,0.0,0.0,0.0,0.0,0.0,0.0,0.0,0.0,0.0,2.0147,2.0441,2.0722,2.0681,2.0193,2.005,1.929,0.0,0.0,0.0,0.0,0.0,0.0,0.0,0.0,0.0,0.0,0.0,0.0,0.0,0.0,0.0,0.0,0.0,0.0,0.0,0.0,0.0,0.0,0.0,0.0,0.0,0.0,0.0,0.0,0.0,0.0,0.0,0.0,0.0,0.0,0.0,0.0,0.0,0.0,0.0,0.0,0.0,0.0,0.0,0.0,0.0,0.0,0.0,0.0,0.0,0.0,0.0,0.0,0.0,0.0,0.0,0.0,0.0,0.0,0.0,0.0,0.0,0.0,0.0,0.0,0.0,0.0,0.0,0.0,0.0,0.0,0.0,0.0,0.0,0.0,0.0,0.0,0.0,0.0,0.0,0.0,0.0,0.0,0.0,0.0,0.0,0.0,0.0,0.0,0.0,0.0,0.0,0.0,0.0,0.0,0.0,0.0,0.0,0.0,0.0,0.0,0.0,0.0,0.0,0.0,0.0,0.0,0.0,1.9663,2.0361,2.0766,2.0935,2.0757,2.0224,2.0157,1.933,1.7689,0.0,0.0,0.0,0.0,0.0,0.0,0.0,0.0,0.0,0.0,0.0,0.0,0.0,0.0,0.0,0.0,0.0,0.0,0.0,0.0,0.0,0.0,0.0,0.0,0.0,0.0,0.0,0.0,0.0,0.0,0.0,0.0,0.0,0.0,0.0,0.0,0.0,0.0,2.1067,2.279,0.0,0.0,0.0,0.0,0.0,0.0,0.0,0.0,2.5943,0.0,0.0,0.0,0.0,0.0,0.0,0.0,0.0,0.0,0.0,0.0,0.0,0.0,0.0,0.0,0.0,0.0,0.0,0.0,0.0,0.0,0.0,0.0,0.0,0.0,0.0,0.0,0.0,0.0,0.0,0.0,0.0,0.0,0.0,0.0,0.0,0.0,0.0,0.0,0.0,0.0,0.0,0.0,0.0,0.0,0.0,0.0,0.0,0.0,0.0,0.0,0.0,0.0,0.0,0.0,0.0,1.989,1.9877,2.0224,2.1015,2.0873,2.0588,2.021,1.9957,1.9158,1.7715,0.0,0.0,0.0,0.0,0.0,0.0,0.0,0.0,0.0,0.0,0.0,0.0,0.0,0.0,0.0,0.0,0.0,0.0,0.0,0.0,0.0,0.0,0.0,0.0,0.0,0.0,0.0,0.0,0.0,0.0,0.0,0.0,0.0,0.0,0.0,0.0,0.0,0.0,0.0,2.4735,2.5852,0.0,0.0,0.0,0.0,0.0,0.0,0.0,0.0,2.3692,0.0,0.0,0.0,0.0,0.0,0.0,0.0,0.0,0.0,0.0,0.0,0.0,0.0,0.0,0.0,0.0,0.0,0.0,0.0,0.0,0.0,0.0,0.0,0.0,0.0,0.0,0.0,0.0,0.0,0.0,0.0,0.0,0.0,0.0,0.0,0.0,0.0,0.0,0.0,0.0,0.0,0.0,0.0,0.0,0.0,0.0,0.0,0.0,0.0,0.0,0.0,0.0,0.0,0.0,0.0,1.9733,2.0241,2.0681,2.1096,2.0975,2.0681,2.021,1.9813,1.8973,0.0,0.0,0.0,0.0,0.0,0.0,0.0,0.0,0.0,0.0,0.0,0.0,0.0,0.0,0.0,0.0,0.0,0.0,0.0,0.0,0.0,0.0,0.0,0.0,0.0,0.0,0.0,0.0,0.0,0.0,0.0,0.0,0.0,0.0,0.0,0.0,0.0,0.0,0.0,0.0,2.3228,2.3851,2.3734,0.0,0.0,0.0,0.0,0.0,0.0,2.2518,2.2278,0.0,0.0,0.0,0.0,0.0,0.0,0.0,0.0,0.0,0.0,0.0,0.0,0.0,0.0,0.0,0.0,0.0,0.0,0.0,0.0,0.0,0.0,0.0,0.0,0.0,0.0,0.0,0.0,0.0,0.0,0.0,0.0,0.0,0.0,0.0,0.0,0.0,0.0,0.0,0.0,0.0,0.0,0.0,0.0,0.0,0.0,0.0,0.0,0.0,0.0,0.0,0.0,0.0,0.0,0.0,1.9401,2.0401,2.0957,2.1096,2.1109,2.0797,2.0224,1.9786,1.896,0.0,0.0,0.0,0.0,0.0,0.0,0.0,0.0,0.0,0.0,0.0,0.0,0.0,0.0,0.0,0.0,0.0,0.0,0.0,0.0,0.0,0.0,0.0,0.0,0.0,0.0,0.0,0.0,0.0,0.0,0.0,0.0,0.0,0.0,0.0,0.0,0.0,0.0,0.0,0.0,0.0,2.1649,2.1628,2.1689,0.0,0.0,0.0,0.0,2.1336,2.1537,0.0,0.0,0.0,0.0,0.0,0.0,0.0,0.0,0.0,0.0,0.0,0.0,0.0,0.0,0.0,0.0,0.0,0.0,0.0,0.0,0.0,0.0,0.0,0.0,0.0,0.0,0.0,0.0,0.0,0.0,0.0,0.0,0.0,0.0,0.0,0.0,0.0,0.0,0.0,0.0,0.0,0.0,0.0,0.0,0.0,0.0,0.0,0.0,0.0,0.0,0.0,0.0,0.0,0.0,0.0,0.0,1.9374,2.0013,2.0557,2.1037,2.1109,2.0797,2.0224,2.0144,1.9332,0.0,0.0,0.0,0.0,0.0,0.0,0.0,0.0,0.0,0.0,0.0,0.0,0.0,0.0,0.0,0.0,0.0,0.0,0.0,0.0,0.0,0.0,0.0,0.0,0.0,0.0,0.0,0.0,0.0,0.0,0.0,0.0,0.0,0.0,0.0,0.0,0.0,0.0,0.0,0.0,0.0,2.1877,2.1655,2.2024,2.2231,0.0,0.0,2.2218,2.1924,2.2138,0.0,0.0,0.0,0.0,0.0,0.0,0.0,0.0,0.0,0.0,0.0,0.0,0.0,0.0,0.0,0.0,0.0,0.0,0.0,0.0,0.0,0.0,0.0,0.0,0.0,0.0,0.0,0.0,0.0,0.0,0.0,0.0,0.0,0.0,0.0,0.0,0.0,0.0,0.0,0.0,0.0,0.0,0.0,0.0,0.0,0.0,0.0,0.0,0.0,0.0,0.0,0.0,0.0,0.0,0.0,1.8545,1.9401,2.0267,2.0855,2.1096,2.1109,2.0797,2.021,1.992,1.9065,0.0,0.0,0.0,0.0,0.0,0.0,0.0,0.0,0.0,0.0,0.0,0.0,0.0,0.0,0.0,0.0,0.0,0.0,0.0,0.0,0.0,0.0,0.0,0.0,0.0,0.0,0.0,0.0,0.0,0.0,0.0,0.0,0.0,0.0,0.0,0.0,0.0,0.0,0.0,0.0,0.0,0.0,2.2318,2.2659,0.0,0.0,0.0,2.2766,2.2311,0.0,0.0,0.0,0.0,0.0,0.0,0.0,0.0,0.0,0.0,0.0,0.0,0.0,0.0,0.0,0.0,0.0,0.0,0.0,0.0,0.0,0.0,0.0,0.0,0.0,0.0,0.0,0.0,0.0,0.0,0.0,0.0,0.0,0.0,0.0,0.0,0.0,0.0,0.0,0.0,0.0,0.0,0.0,0.0,0.0,0.0,0.0,0.0,0.0,0.0,0.0,0.0,0.0,0.0,0.0,0.0,0.0,1.9401,2.0521,2.1109,2.1109,2.1109,2.0797,2.0224,1.9813,0.0,0.0,0.0,0.0,0.0,0.0,0.0,0.0,0.0,0.0,0.0,0.0,0.0,0.0,0.0,0.0,0.0,0.0,0.0,0.0,0.0,0.0,0.0,0.0,0.0,0.0,0.0,1.7341,0.0,0.0,0.0,0.0,0.0,0.0,0.0,0.0,0.0,0.0,0.0,0.0,0.0,0.0,2.2525,2.2853,2.3193,2.3434,0.0,0.0,2.3313,2.2632,2.2659,2.2485,0.0,0.0,0.0,0.0,0.0,0.0,0.0,0.0,0.0,0.0,0.0,0.0,0.0,0.0,0.0,0.0,0.0,0.0,0.0,0.0,0.0,0.0,0.0,0.0,0.0,0.0,0.0,0.0,0.0,0.0,0.0,0.0,0.0,0.0,0.0,0.0,0.0,0.0,0.0,0.0,0.0,0.0,0.0,0.0,0.0,0.0,0.0,0.0,0.0,0.0,0.0,0.0,0.0,0.0,0.0,1.9415,2.0521,2.1109,2.1109,2.1109,2.0797,2.0224,2.0157,1.9359,0.0,0.0,0.0,0.0,0.0,0.0,0.0,0.0,0.0,0.0,0.0,0.0,0.0,0.0,0.0,0.0,0.0,0.0,0.0,0.0,0.0,0.0,0.0,0.0,0.0,0.0,0.0,0.0,0.0,0.0,0.0,0.0,0.0,0.0,0.0,0.0,0.0,0.0,0.0,0.0,0.0,2.2525,2.2853,2.3402,2.3777,0.0,0.0,2.3848,2.3,2.3383,2.3228,2.1856,0.0,0.0,0.0,0.0,0.0,0.0,0.0,0.0,0.0,0.0,0.0,0.0,0.0,0.0,0.0,0.0,0.0,0.0,0.0,0.0,0.0,0.0,0.0,0.0,0.0,0.0,0.0,0.0,0.0,0.0,0.0,0.0,0.0,0.0,0.0,0.0,0.0,0.0,0.0,0.0,0.0,0.0,0.0,0.0,0.0,0.0,0.0,0.0,0.0,0.0,0.0,0.0,0.0,1.8958,1.9401,2.0552,2.1109,2.1109,2.1109,2.0922,2.0521,2.0334,1.9543,0.0,0.0,0.0,0.0,0.0,0.0,0.0,0.0,0.0,0.0,0.0,0.0,0.0,0.0,0.0,0.0,0.0,0.0,0.0,0.0,0.0,0.0,0.0,0.0,0.0,0.0,0.0,0.0,1.973,2.0094,2.053,0.0,0.0,0.0,0.0,0.0,0.0,0.0,0.0,0.0,0.0,2.3153,2.3621,2.4035,0.0,0.0,2.6365,2.6764,2.7161,2.6319,2.5296,2.4266,2.307,0.0,0.0,0.0,0.0,0.0,0.0,0.0,0.0,0.0,0.0,0.0,0.0,0.0,0.0,0.0,0.0,0.0,0.0,0.0,0.0,0.0,0.0,0.0,0.0,0.0,0.0,0.0,0.0,0.0,0.0,0.0,0.0,0.0,0.0,0.0,0.0,0.0,0.0,0.0,0.0,0.0,0.0,0.0,0.0,0.0,0.0,0.0,0.0,0.0,0.0,0.0,0.0,1.9105,1.9522,2.0561,2.1109,2.1109,2.1109,2.0975,2.0712,2.0468,1.9813,0.0,0.0,0.0,0.0,0.0,0.0,0.0,0.0,0.0,0.0,0.0,0.0,0.0,0.0,0.0,0.0,0.0,0.0,0.0,0.0,0.0,0.0,0.0,0.0,0.0,0.0,0.0,0.0,2.041,2.0624,2.1069,0.0,0.0,0.0,0.0,0.0,0.0,0.0,0.0,0.0,0.0,2.4243,2.4237,2.4911,2.5777,2.6669,2.7004,2.746,2.8206,2.7244,2.6131,2.528,0.0,0.0,0.0,0.0,0.0,0.0,0.0,0.0,0.0,0.0,0.0,0.0,0.0,0.0,0.0,0.0,0.0,0.0,0.0,0.0,0.0,0.0,0.0,0.0,0.0,0.0,0.0,0.0,0.0,0.0,1.5808,0.0,0.0,0.0,0.0,0.0,0.0,0.0,0.0,0.0,0.0,0.0,0.0,0.0,0.0,0.0,0.0,0.0,0.0,0.0,0.0,0.0,0.0,1.9212,1.9786,2.0655,2.1109,2.1109,2.1109,2.0975,2.0726,2.0668,2.0107,1.8916,0.0,0.0,0.0,0.0,0.0,0.0,0.0,0.0,0.0,0.0,0.0,0.0,0.0,0.0,0.0,0.0,0.0,0.0,0.0,0.0,0.0,0.0,0.0,0.0,0.0,0.0,2.0641,2.0922,2.1096,0.0,0.0,0.0,0.0,0.0,0.0,0.0,0.0,0.0,0.0,2.5162,2.5956,2.4458,2.6025,2.683,2.5473,2.5278,2.5184,2.5022,2.5316,2.5166,0.0,0.0,0.0,0.0,0.0,0.0,0.0,0.0,0.0,0.0,0.0,0.0,0.0,0.0,0.0,0.0,0.0,0.0,0.0,0.0,0.0,0.0,0.0,0.0,0.0,0.0,0.0,1.7168,1.6752,0.0,0.0,0.0,0.0,0.0,0.0,0.0,0.0,0.0,0.0,0.0,1.9386,1.996,0.0,0.0,0.0,0.0,0.0,0.0,0.0,0.0,0.0,0.0,0.0,0.0,1.9599,1.9826,2.0655,2.1109,2.1109,2.1109,2.1056,2.0975,2.0806,2.0244,1.9281,0.0,0.0,0.0,0.0,0.0,0.0,0.0,0.0,0.0,0.0,0.0,0.0,0.0,0.0,0.0,0.0,0.0,0.0,0.0,0.0,0.0,0.0,0.0,0.0,0.0,2.0855,0.0,0.0,0.0,0.0,0.0,0.0,0.0,0.0,0.0,0.0,0.0,2.4864,2.4013,2.6049,2.6918,2.5066,2.5763,2.6738,0.0,0.0,0.0,0.0,0.0,0.0,0.0,0.0,0.0,0.0,0.0,0.0,0.0,0.0,2.7847,2.7899,2.8605,2.8519,2.6315,0.0,0.0,0.0,0.0,0.0,0.0,0.0,0.0,0.0,0.0,0.0,0.0,0.0,0.0,1.7738,0.0,1.7371,0.0,0.0,0.0,0.0,0.0,0.0,0.0,0.0,2.0054,2.0498,2.0588,2.1149,2.1216,0.0,2.0904,2.037,0.0,0.0,0.0,0.0,0.0,0.0,0.0,0.0,2.0,2.0134,2.0762,2.1109,2.1109,2.1109,2.1109,2.1096,2.0828,2.0361,1.9693,1.9386,1.9092,0.0,0.0,0.0,0.0,0.0,0.0,0.0,0.0,0.0,0.0,0.0,0.0,0.0,0.0,0.0,0.0,0.0,0.0,0.0,0.0,0.0,0.0,0.0,2.1149,0.0,0.0,0.0,0.0,0.0,0.0,0.0,0.0,0.0,2.3541,2.5135,2.5995,2.509,2.7021,2.7792,2.5837,0.0,0.0,0.0,0.0,0.0,0.0,0.0,2.8244,2.8128,2.7033,2.6238,2.6426,2.7095,2.755,2.7349,0.0,0.0,2.7558,2.818,2.81,2.6087,2.6381,2.6711,2.5747,2.606,2.6852,0.0,0.0,0.0,0.0,0.0,0.0,0.0,0.0,1.8043,1.7651,0.0,1.7654,0.0,0.0,0.0,0.0,0.0,1.9399,0.0,0.0,2.1301,2.1743,2.1977,2.2017,2.2031,2.2044,2.2298,2.2124,2.1588,2.0441,0.0,0.0,0.0,0.0,0.0,0.0,2.0401,2.0726,2.1002,2.1136,2.1149,2.1104,2.1122,2.1109,2.0873,2.0561,2.0237,2.0,1.9736,1.9441,1.8865,0.0,0.0,0.0,0.0,0.0,0.0,0.0,0.0,0.0,0.0,0.0,0.0,0.0,0.0,0.0,0.0,0.0,0.0,0.0,0.0,2.0962,0.0,0.0,0.0,0.0,0.0,0.0,0.0,0.0,0.0,0.0,2.4813,2.531,2.5836,2.6306,0.0,0.0,0.0,0.0,2.8571,2.7081,2.6854,2.6907,2.6907,2.7349,2.751,2.6947,0.0,0.0,2.7429,2.7804,2.7991,2.7456,2.7831,2.8192,2.8194,2.7782,2.7485,2.7617,2.7215,2.6974,2.7337,2.8622,2.9991,1.289,0.0,0.0,0.0,0.0,1.5327,1.5523,1.6034,1.6421,1.6006,1.5077,1.691,0.0,0.0,0.0,0.0,0.0,0.0,2.0535,2.1341,2.1729,2.205,2.2311,2.2739,2.2905,2.2953,2.3033,2.2859,2.2505,2.1937,2.1064,2.0,0.0,0.0,0.0,0.0,2.1002,2.1328,2.1622,2.1737,2.1737,2.1569,2.1323,2.1091,2.1029,2.0949,2.0824,2.0775,2.0601,2.0338,1.9933,0.0,0.0,0.0,0.0,0.0,0.0,0.0,0.0,0.0,0.0,0.0,0.0,0.0,0.0,0.0,0.0,0.0,0.0,0.0,2.1328,2.1596,2.2031,0.0,0.0,0.0,0.0,0.0,0.0,0.0,0.0,0.0,2.656,2.7782,2.8164,0.0,0.0,2.9203,2.7,2.7486,2.7948,2.7524,0.0,0.0,0.0,2.759,2.751,2.7764,2.8018,2.8125,2.7965,2.8072,2.8205,2.8232,2.8219,2.8245,2.8404,2.8205,2.7978,2.8031,2.7911,2.7831,2.8023,2.9599,3.1427,1.4661,1.5651,1.3863,1.3676,1.4484,1.4363,1.4586,1.5186,1.6515,1.644,1.5558,1.8119,1.8766,1.8037,1.9233,0.0,0.0,0.0,2.1283,2.1943,2.2224,2.2485,2.2806,2.3273,2.35,2.35,2.35,2.3407,2.3255,2.3033,2.2458,2.1451,0.0,0.0,2.0949,2.1283,2.1537,2.1756,2.193,2.2024,2.201,2.1729,2.1502,2.1296,2.1176,2.1109,2.1109,2.1109,2.1029,2.0855,2.0575,2.0187,0.0,0.0,0.0,0.0,0.0,0.0,0.0,0.0,0.0,0.0,0.0,2.0628,0.0,0.0,0.0,0.0,2.1718,2.2164,2.2599,2.3,0.0,0.0,0.0,0.0,0.0,0.0,0.0,2.6493,2.7121,2.7549,2.7657,2.8757,2.8975,2.7539,2.8577,2.8946,2.7566,0.0,2.7869,2.7911,2.8179,2.8366,2.8366,2.8123,2.8056,2.8283,2.8473,2.8486,2.8393,2.846,2.8524,2.8577,2.8551,2.8484,2.843,2.8406,2.8326,2.8248,2.8922,2.9453,2.9495,3.1846,3.4285,1.8047,1.7551,1.348,1.2678,1.4036,1.4045,1.4045,1.4317,1.7579,1.8116,1.6928,2.0277,2.1567,2.1176,2.1189,0.0,2.1662,2.1897,2.2178,2.2465,2.2766,2.306,2.3367,2.3661,2.3843,2.3843,2.3808,2.3843,2.383,2.3803,2.3634,2.3305,2.2539,2.2111,2.2091,2.2031,2.2031,2.2091,2.2058,2.2044,2.205,2.1796,2.1636,2.1614,2.1283,2.1136,2.1077,2.1109,2.1014,2.0906,2.0668,2.0315,1.9828,0.0,0.0,0.0,0.0,0.0,0.0,0.0,0.0,0.0,0.0,0.0,0.0,0.0,0.0,0.0,2.3105,0.0,2.4262,2.4836,0.0,0.0,0.0,2.6158,2.6225,2.6934,2.7281,2.7028,0.0,0.0,2.8299,2.8698,2.8788,2.8326,2.8259,2.8245,2.8232,2.8205,2.8219,2.8179,2.8446,2.8591,2.8577,2.8735,2.8858,2.8684,2.8815,2.8868,2.8711,2.8788,2.8855,2.8764,2.8885,2.8898,2.8393,2.8497,2.8524,2.8286,2.9913,3.1324,3.1407,3.457,3.748,1.8067,1.7969,1.6906,1.6452,1.6368,1.6176,1.6074,1.6185,1.7103,1.7219,1.6928,1.915,2.0755,2.1777,2.1777,2.1937,2.2218,2.2285,2.2571,2.31,2.318,2.338,2.3674,2.4004,2.4102,2.4102,2.4102,2.4102,2.4088,2.391,2.3777,2.3661,2.3482,2.3148,2.2693,2.2432,2.2432,2.2679,2.2693,2.2539,2.2325,2.2245,2.2037,2.1628,2.1515,2.1368,2.1122,2.1109,2.0494,1.9228,1.9059,1.8301,1.6716,1.7306,0.0,0.0,0.0,0.0,0.0,0.0,0.0,0.0,0.0,2.306,2.1871,0.0,2.4079,0.0,2.4613,2.505,2.5184,2.5732,0.0,0.0,2.7241,2.7562,2.823,2.8297,2.8337,2.8454,2.8721,2.8868,2.8831,2.8908,2.8948,2.8845,2.8831,2.8751,2.8537,2.8497,2.8404,2.8272,2.843,2.8604,2.8644,2.8845,2.8988,2.8908,2.8961,2.8961,2.8908,2.8948,2.9041,2.9219,2.9125,2.9072,2.9125,2.8885,2.8617,2.8625,3.0069,3.1407,3.1475,3.4854,3.7935,2.1125,2.0972,2.0867,2.06,2.0157,1.8215,1.7377,1.7422,1.8363,1.8692,1.8745,2.062,2.1949,2.2779,2.2813,2.2859,2.302,2.302,2.3207,2.3527,2.3661,2.3808,2.3968,2.4262,2.4396,2.4396,2.4529,2.4596,2.4596,2.4556,2.4489,2.4392,2.4222,2.3928,2.3496,2.2998,2.2899,2.3094,2.3108,2.2993,2.2785,2.2686,2.2405,2.1997,2.185,2.1636,2.1323,2.1341,2.0515,1.8838,1.8571,1.77,1.6025,1.6402,1.6339,0.0,0.0,0.0,0.0,0.0,0.0,0.0,0.0,0.0,0.0,0.0,2.5331,2.5546,2.6266,2.6841,2.7241,2.7816,2.8297,2.8644,2.8804,2.8978,2.9219,2.9205,2.9245,2.9362,2.9539,2.9633,2.9633,2.974,2.982,2.982,2.9775,2.9566,2.8951,2.8748,2.8738,2.8577,2.8804,2.9045,2.9165,2.9432,2.9579,2.9472,2.9646,2.978,2.9659,2.974,2.9806,2.97,2.9646,2.9526,2.9339,2.9165,2.8938,2.9044,3.1185,3.2954,3.2962,3.554,3.8094,2.4983,2.4679,2.4476,2.4369,2.4087,2.05,1.8947,1.8934,2.0574,2.1258,2.1366,2.3064,2.3817,2.3817,2.3817,2.3817,2.3817,2.3817,2.383,2.387,2.4088,2.4249,2.4329,2.4492,2.4613,2.4666,2.4957,2.5077,2.5128,2.5371,2.5358,2.5115,2.4823,2.4519,2.4249,2.3679,2.342,2.338,2.3345,2.338,2.338,2.3161,2.2853,2.2485,2.2231,2.1957,2.1641,2.1662,2.0765,1.8818,1.8482,1.7598,1.5933,1.5816,1.579,0.0,1.6416,0.0,0.0,0.0,0.0,0.0,0.0,0.0,0.0,2.6106,2.6613,2.7027,2.7936,2.8834,2.9526,3.0132,3.036,3.0074,3.0261,3.0253,2.9771,2.9873,3.0034,3.0034,3.0261,3.0453,3.0453,3.0648,3.0782,3.0715,3.0688,3.0354,2.9513,2.9272,2.9161,2.9041,2.9325,2.9593,2.9873,3.0194,3.0287,3.0087,3.0354,3.0688,3.0467,3.0581,3.0608,3.0181,3.0181,3.0074,2.9282,2.9379,2.9299,2.8901,3.1719,3.4237,3.4727,3.6752,3.8938,2.5398,2.5344,2.5291,2.5264,2.5162,2.4181,2.3369,2.2742,2.3112,2.3242,2.3291,2.3625,2.3817,2.3817,2.3817,2.3817,2.3817,2.3817,2.3901,2.4128,2.4168,2.4462,2.489,2.4693,2.4719,2.4997,2.505,2.5077,2.509,2.5371,2.5371,2.509,2.5024,2.485,2.4519,0.0,0.0,0.0,2.3723,2.3723,2.3688,2.3669,2.3375,2.2806,2.276,0.0,2.1649,2.2004,2.0612,1.7305,1.7468,0.0,0.0,0.0,0.0,0.0,0.0,0.0,0.0,0.0,0.0,0.0,2.6306,2.6239,2.6279,2.7816,2.8764,2.8628,2.9633,3.0261,3.0253,3.0501,3.0688,3.0648,3.0675,3.0662,3.0555,3.0595,3.0621,3.0635,3.0675,3.0715,3.0742,3.0768,3.0808,3.0862,3.0795,3.0715,3.0515,3.0234,2.9833,2.9202,2.9539,2.994,3.0234,3.0574,3.0694,3.0408,3.0555,3.0768,3.0755,3.0755,3.0808,3.0608,3.0533,3.0373,3.01,2.9824,2.9459,2.9325,2.9923,3.1151,3.4139,3.8068,4.109,2.5945,0.0,2.5785,2.5732,0.0,2.561,2.5184,2.4646,2.4315,2.4195,2.4195,2.4195,2.4195,2.4195,2.4195,2.4195,2.4209,2.4342,2.4489,2.4649,2.4783,2.501,2.5291,2.5144,2.5106,2.5291,2.5476,2.5543,2.5569,2.5812,2.5798,2.5556,2.5556,2.5371,2.5039,2.4783,2.4356,2.3817,2.4048,2.4195,2.4209,2.4342,2.4165,2.3554,0.0,0.0,0.0,0.0,0.0,0.0,0.0,0.0,0.0,0.0,0.0,1.6158,1.8911,2.0834,2.1279,2.3471,2.5521,2.712,2.7802,2.807,2.7923,2.9018,2.982,3.0055,3.0795,3.1169,3.1082,3.1276,3.1316,3.1049,3.1142,3.1169,3.1049,3.1142,3.1223,3.1223,3.1223,3.1276,3.1423,3.1436,3.1503,3.1623,3.153,3.1423,3.1383,3.0942,3.0368,2.9967,3.0127,3.0394,3.0568,3.0955,3.1129,3.0915,3.1156,3.1343,3.1249,3.1223,3.1183,3.1036,3.0768,3.0541,3.04,2.9993,2.9659,2.9659,3.0428,3.1426,3.3421,3.6317,3.909,2.6547,2.652,2.6332,2.6198,2.6145,2.6091,2.5877,2.544,0.0,0.0,0.0,2.4599,2.4599,2.4599,2.4599,2.4626,2.473,2.497,2.5104,2.5208,2.5398,2.5545,2.5585,2.5531,2.5545,2.5598,2.5877,2.5998,2.6011,2.6292,2.6279,2.6011,2.5998,2.5812,2.5518,2.5277,2.4847,2.4142,2.4502,2.4679,2.4693,2.501,2.4903,2.4369,2.4356,2.3303,2.1078,2.1198,2.0528,1.8959,1.8811,1.9049,1.9564,1.9784,2.0105,2.0559,2.1139,2.2237,2.4045,2.4837,2.6024,2.7877,2.8965,2.9553,2.9566,2.9927,3.0434,3.1169,3.149,3.1711,3.1724,3.1931,3.1917,3.1436,3.165,3.1717,3.145,3.1597,3.1751,3.1738,3.1698,3.1784,3.2024,3.2051,3.2211,3.2474,3.2211,3.2104,3.2011,3.1436,3.1009,3.1089,3.1102,3.1036,3.1102,3.1463,3.1724,3.1463,3.181,3.2078,3.1938,3.1831,3.165,3.1403,3.1116,3.0808,3.06,3.0247,2.9927,2.9731,3.1236,3.2749,3.2722,3.3994,3.5999,2.7148,2.7175,2.7135,2.6974,2.668,2.6426,2.6012,2.5491,2.5157,2.4877,2.4599,2.4599,2.4599,2.4599,2.4599,2.4783,2.5048,2.5101,2.5211,2.5451,2.5491,2.5651,2.5917,2.5638,2.5651,2.5917,2.5971,2.5998,2.6024,2.6292,2.6279,2.6038,2.5998,2.585,2.5531,2.5464,2.536,2.5264,2.5104,2.501,2.5024,2.5304,2.5291,2.4983,2.497,2.4602,2.3704,2.4116,2.3581,2.1847,2.2146,2.1798,2.0558,2.0652,2.0631,2.0714,2.2716,2.4212,2.4804,2.6782,2.8383,2.9148,2.9619,2.986,2.9873,3.0581,3.1042,3.1189,3.1503,3.1724,3.1738,3.1944,3.2078,3.2011,3.2286,3.2353,3.1998,3.1998,3.1957,3.1791,3.1724,3.1858,3.2091,3.2144,3.2265,3.25,3.2412,3.2144,3.2104,3.1797,3.1831,3.2179,3.2078,3.1944,3.1891,3.2233,3.23,3.2024,3.2286,3.2514,3.242,3.2206,3.1998,3.1971,3.149,3.1156,3.1049,3.0662,3.0373,3.0212,3.0645,3.1109,3.2544,3.336,3.4192,2.7643,2.775,2.7603,2.7415,2.7268,2.6774,2.6293,2.5758,2.565,2.5304,2.4917,2.5037,2.5024,2.489,2.4999,2.5184,2.5317,2.5516,2.5663,2.581,2.6079,2.6293,2.6426,2.6453,2.6533,2.6707,2.6707,2.6707,2.672,2.6841,2.6827,2.6707,2.6507,2.6279,2.5999,2.5838,2.5797,2.5797,2.5772,2.5757,2.561,2.5985,2.6079,2.5837,2.5785,2.5151,2.3793,2.4092,2.3921,2.3147,2.3392,2.3832,2.4423,2.4514,2.4586,2.4747,2.5964,2.6774,2.6901,2.8098,2.9032,2.9446,2.9753,3.006,3.0368,3.0902,3.1243,3.1463,3.173,3.1952,3.1917,3.2171,3.2393,3.2393,3.2527,3.2541,3.2433,3.2345,3.234,3.2219,3.2193,3.23,3.2532,3.2572,3.2692,3.2946,3.2866,3.2746,3.2599,3.2599,3.2572,3.2594,3.2474,3.2407,3.2407,3.2634,3.2688,3.2433,3.2634,3.2741,3.2621,3.2305,3.2144,3.2064,3.1589,3.1229,3.1176,3.0889,3.0595,3.0413,3.0319,3.0731,3.1385,3.165,3.2379,2.7965,2.8152,2.7938,2.7762,2.7655,2.7148,2.6627,2.6212,2.6198,2.5864,2.5382,2.5451,2.5384,2.5211,2.5411,2.5546,2.5718,2.5917,2.6105,2.6319,2.664,2.6854,2.6947,2.7161,2.7309,2.7309,2.7309,2.7309,2.7309,2.7309,2.7309,2.7282,2.7028,2.6814,2.6587,2.6399,2.6292,2.6305,2.6533,2.6546,2.6225,2.6587,2.6694,2.6613,2.6626,2.5882,2.4427,2.4369,2.4503,2.4686,2.4758,2.5749,2.7651,2.7869,2.8003,2.8286,2.8537,2.8738,2.8818,2.9028,2.9366,2.9659,2.9953,3.0327,3.0835,3.1156,3.141,3.1698,3.1851,3.2011,3.2104,3.2407,3.2621,3.2674,3.2755,3.2781,3.2714,3.2688,3.2661,3.2621,3.2594,3.2688,3.2893,3.2986,3.304,3.3213,3.336,3.3293,3.308,3.3227,3.3187,3.2955,3.2781,3.2808,3.2808,3.2919,3.3022,3.2822,3.2969,3.3009,3.2848,3.2519,3.2332,3.2291,3.1931,3.161,3.145,3.1209,3.0889,3.0641,3.0453,3.0338,3.016,3.0366,3.0809,2.8165,2.8179,2.8138,2.7991,2.7669,2.7362,2.7041,2.6747,2.6694,2.6413,2.5944,2.5625,2.5531,2.5478,2.5518,2.5812,2.6253,2.6105,2.6412,2.7068,2.6921,2.6961,2.7255,2.7309,2.7309,2.7336,2.7336,2.7362,2.7362,2.7336,2.7322,2.7309,2.7282,2.7242,2.7215,2.7175,2.7175,2.7188,2.7428,2.7308,2.6787,2.676,2.6934,2.7215,2.7229,2.7147,2.6808,2.6957,2.7048,2.7327,2.7297,2.7581,2.8083,2.8364,2.8537,2.8577,2.8801,2.9068,2.9392,2.9628,2.9953,3.0306,3.0515,3.0808,3.1096,3.1436,3.1684,3.1724,3.1751,3.1837,3.2078,3.242,3.2701,3.2919,3.3133,3.324,3.2986,3.2933,3.2888,3.2621,3.2661,3.2714,3.2959,3.3013,3.3013,3.3093,3.3293,3.332,3.3106,3.324,3.34,3.332,3.3307,3.3293,3.328,3.3334,3.3307,3.328,3.3334,3.3307,3.3187,3.3026,3.2929,3.2692,3.2581,3.2185,3.1971,3.1784,3.137,3.0862,3.0568,3.0346,3.0047,3.0207,3.0605,2.8192,2.8192,2.8192,2.8005,2.7696,2.7617,2.7362,2.7094,2.7081,2.6947,2.6774,2.664,2.6266,2.5798,2.5959,2.6253,2.6627,2.652,2.6747,2.7296,2.7308,2.7402,2.7563,2.775,2.7831,2.7831,2.7831,2.7831,2.7817,2.7817,2.7817,2.7804,2.7615,2.7563,2.7509,2.7389,2.7389,2.755,2.7468,2.7482,2.7617,2.7428,2.7402,2.7509,2.7522,2.7657,2.7804,2.7831,2.7884,2.7991,2.8005,2.8138,2.8404,2.8698,2.8815,2.8841,2.9255,2.9686,2.998,3.0274,3.0408,3.0413,3.0635,3.0915,3.1196,3.1343,3.1476,3.1684,3.1724,3.1851,3.234,3.2527,3.2781,3.3146,3.3347,3.336,3.3253,3.324,3.3173,3.3066,3.3066,3.308,3.32,3.3227,3.3227,3.324,3.3347,3.3334,3.3253,3.3347,3.34,3.3414,3.3414,3.3414,3.3414,3.3414,3.3414,3.3414,3.3414,3.3414,3.3374,3.3173,3.2973,3.2986,3.2652,3.2358,3.2104,3.1864,3.153,3.1116,3.0835,3.0568,3.0448,3.0662,3.0715,2.8192,2.8192,2.8192,2.8058,2.7829,2.7829,2.7655,2.7443,2.7388,2.7335,2.7309,2.7309,2.6961,2.6439,2.6586,2.6747,2.6921,2.6947,2.7148,2.7523,2.7684,2.7736,2.7871,2.8072,2.8192,2.8192,2.8179,2.8179,2.8192,2.8192,2.8192,2.8152,2.7965,2.7829,2.7844,2.7643,2.7643,2.7776,2.7643,2.775,2.8085,2.7978,2.7816,2.7829,2.7816,2.8005,2.8299,2.8312,2.8353,2.8433,2.8433,2.8484,2.8724,2.8961,2.9188,2.9419,2.9873,3.0247,3.052,3.0675,3.0742,3.0681,3.0795,3.1036,3.1276,3.1343,3.1436,3.1637,3.1744,3.2059,3.2487,3.2674,3.2942,3.3334,3.3414,3.3414,3.34,3.3414,3.34,3.3414,3.336,3.3414,3.3414,3.34,3.3387,3.3387,3.34,3.3414,3.3414,3.34,3.3414,3.3414,3.3414,3.3414,3.3414,3.3414,3.3414,3.3414,3.3414,3.3414,3.3414,3.32,3.3106,3.3133,3.2679,3.2412,3.2345,3.2064,3.1797,3.1436,3.1142,3.0915,3.0728,3.1022,3.1089,2.8192,2.8192,2.8192,2.8165,2.8207,2.8152,2.7991,2.7682,2.7682,2.7535,2.7362,2.7336,2.7296,2.7215,2.7242,2.7282,2.7282,2.7282,2.7576,2.8031,2.7816,2.7856,2.8165,2.8179,2.8192,2.8192,2.8192,2.8192,2.8192,2.8192,2.8192,2.8179,2.8152,2.8152,2.8138,2.8098,2.8138,2.8125,2.8098,2.8152,2.8192,2.8179,2.8165,2.8192,2.8165,2.8312,2.8537,2.8591,2.8711,2.8935,2.8935,2.8961,2.9001,2.9312,2.9757,3.0293,3.0581,3.0742,3.0768,3.0822,3.0915,3.1116,3.1169,3.133,3.157,3.1657,3.1671,3.1724,3.1931,3.2225,3.2554,3.2822,3.304,3.3347,3.3414,3.3414,3.3414,3.3414,3.3414,3.3414,3.3414,3.3414,3.3414,3.3414,3.3414,3.3414,3.3414,3.3414,3.3414,3.3414,3.3414,3.3414,3.3414,3.3414,3.3414,3.3414,3.3414,3.3414,3.3414,3.3414,3.3414,3.34,3.3374,3.3347,3.316,3.2946,3.2741,3.2514,3.2238,3.1917,3.1543,3.1289,3.1076,3.1129,3.1223,2.8366,2.8192,2.8192,2.8192,2.8192,2.8192,2.8112,2.8031,2.8031,2.7965,2.7884,2.7857,2.7764,2.7549,2.7791,2.7764,2.7549,2.7535,2.7804,2.8152,2.8072,2.8085,2.8165,2.8192,2.8192,2.8192,2.8192,2.8192,2.8192,2.8192,2.8192,2.8192,2.8192,2.8192,2.8192,2.8192,2.8192,2.8192,2.8192,2.8272,2.843,2.8444,2.8524,2.8698,2.8537,2.8577,2.8871,2.8885,2.8895,2.8988,2.9219,2.9325,2.9366,2.978,3.044,3.1122,3.1116,3.1062,3.1089,3.1249,3.1303,3.1236,3.141,3.1543,3.1684,3.1724,3.1724,3.1805,3.2179,3.2487,3.2607,3.2862,3.3093,3.3347,3.3414,3.3414,3.3414,3.3414,3.3414,3.3414,3.3414,3.3414,3.3414,3.3414,3.3414,3.3414,3.3414,3.3414,3.3414,3.3414,3.3414,3.3414,3.3414,3.3414,3.3414,3.3414,3.3414,3.3414,3.3414,3.3414,3.3414,3.3414,3.3387,3.336,3.3334,3.3133,3.2808,3.2452,3.2305,3.2078,3.173,3.169,3.145,3.1623,3.1664,2.8484,2.8339,2.8219,2.8245,2.8326,2.8219,2.8192,2.8192,2.8192,2.8192,2.8192,2.8192,2.8072,2.7924,2.8098,2.8085,2.7898,2.7843,2.7991,2.8179,2.8192,2.8192,2.8192,2.8192,2.8192,2.8192,2.8192,2.8192,2.8192,2.8192,2.8192,2.8192,2.8272,2.8339,2.8339,2.8419,2.843,2.8473,2.8473,2.8551,2.8724,2.8708,2.8885,2.9112,2.8991,2.8978,2.9135,2.9135,2.9188,2.9339,2.9606,2.9806,2.994,3.0368,3.0988,3.1557,3.157,3.1557,3.1664,3.1885,3.1824,3.1543,3.1677,3.1784,3.1738,3.1724,3.1717,3.1925,3.2286,3.2621,3.2768,3.2959,3.32,3.3374,3.3414,3.3414,3.3414,3.3414,3.3414,3.3414,3.3414,3.3414,3.3414,3.3414,3.3414,3.3414,3.3414,3.3414,3.3414,3.3414,3.3414,3.3414,3.3414,3.3414,3.3414,3.3414,3.3414,3.3414,3.3414,3.3414,3.3414,3.3414,3.34,3.3374,3.3253,3.3053,3.2799,3.2478,3.2265,3.2091,3.2166,3.2193,3.2152,3.2233,3.2166,2.8617,2.8564,2.8326,2.8393,2.8511,2.8339,2.8205,2.8192,2.8192,2.8192,2.8192,2.8192,2.8165,2.8165,2.8165,2.8179,2.8152,2.8138,2.8152,2.8192,2.8192,2.8192,2.8192,2.8192,2.8219,2.8232,2.8205,2.8205,2.8232,2.8259,2.8272,2.8272,2.847,2.8604,2.8617,2.8788,2.8948,2.8921,2.8908,2.8948,2.9001,2.9001,2.9192,2.9446,2.9459,2.9472,2.9557,2.9513,2.9646,2.9887,3.0194,3.0547,3.0742,3.1009,3.1343,3.1664,3.1931,3.2211,3.2487,3.2514,3.238,3.2104,3.2091,3.1957,3.1818,3.1778,3.181,3.2051,3.242,3.2714,3.2982,3.32,3.3374,3.3414,3.3414,3.3414,3.3414,3.3414,3.3414,3.3414,3.3414,3.3414,3.3414,3.3414,3.3414,3.3414,3.3414,3.3414,3.3414,3.3414,3.3414,3.3414,3.3414,3.3414,3.3414,3.3414,3.3414,3.3414,3.3414,3.3414,3.3414,3.3414,3.3414,3.3374,3.3267,3.3093,3.3026,3.2746,3.2688,3.2567,3.2621,3.2567,3.2474,3.2433,3.2447,2.8868,2.8841,2.8804,2.8684,2.8604,2.8497,2.8393,2.8192,2.8192,2.8192,2.8192,2.8192,2.8192,2.8192,2.8192,2.8192,2.8192,2.8192,2.8192,2.8192,2.8192,2.8192,2.8192,2.8192,2.8299,2.843,2.8457,2.8457,2.8497,2.8657,2.8671,2.8564,2.8764,2.8898,2.8911,2.8948,2.9001,2.9001,2.9001,2.9081,2.9325,2.9352,2.9486,2.974,2.978,2.9873,3.0119,3.0132,3.0172,3.0279,3.0688,3.1089,3.1316,3.1289,3.1463,3.1904,3.2038,3.2238,3.2541,3.2594,3.2581,3.2433,3.2225,3.2078,3.1984,3.1971,3.2011,3.2158,3.2545,3.2942,3.3,3.324,3.34,3.3414,3.3414,3.3414,3.3414,3.3414,3.3414,3.3414,3.3414,3.3414,3.3414,3.3414,3.3414,3.3414,3.3414,3.3414,3.3414,3.3414,3.3414,3.3414,3.3414,3.3414,3.3414,3.3414,3.3414,3.3414,3.3414,3.3414,3.3414,3.3414,3.3414,3.3374,3.3267,3.3187,3.3133,3.3053,3.2933,3.2942,3.2929,3.2795,3.2594,3.2594,3.2666,2.9205,2.9192,2.9041,2.8961,2.8911,2.8831,2.8591,2.8379,2.8353,2.8299,2.8205,2.8192,2.8192,2.8192,2.8192,2.8192,2.8192,2.8192,2.8192,2.8192,2.8192,2.8192,2.8205,2.8312,2.847,2.8724,2.8721,2.8764,2.8735,2.8895,2.8895,2.8801,2.9015,2.9205,2.9245,2.9419,2.9486,2.9392,2.9486,2.9619,2.9811,2.9806,2.9953,3.0194,3.0247,3.0341,3.056,3.0608,3.0621,3.0621,3.0982,3.1356,3.161,3.1503,3.161,3.1998,3.2225,3.2398,3.2714,3.2875,3.2862,3.2755,3.2532,3.2372,3.2305,3.2265,3.2291,3.2478,3.2746,3.3026,3.3146,3.3293,3.34,3.3414,3.3414,3.3414,3.3414,3.3414,3.3414,3.3414,3.3414,3.3414,3.3414,3.3414,3.3414,3.3414,3.3414,3.3414,3.3414,3.3414,3.3414,3.3414,3.3414,3.3414,3.3414,3.3414,3.3414,3.3414,3.3414,3.3414,3.3414,3.3414,3.3414,3.34,3.332,3.3307,3.3267,3.3227,3.3146,3.316,3.3133,3.3,3.2879,3.3053,3.312,2.9513,2.9472,2.9205,2.9245,2.9392,2.9165,2.8871,2.8617,2.8577,2.846,2.8232,2.8232,2.8219,2.8192,2.8232,2.8245,2.8192,2.8192,2.8192,2.8192,2.8219,2.8259,2.8286,2.8457,2.8724,2.9032,2.9015,2.9058,2.9028,2.9095,2.9028,2.9068,2.9352,2.9526,2.9619,3.0119,3.01,2.9953,3.0127,3.0234,3.0333,3.036,3.0507,3.0715,3.0728,3.0755,3.0835,3.1062,3.1102,3.0929,3.1156,3.141,3.1623,3.1724,3.1837,3.2144,3.246,3.2692,3.2986,3.3187,3.324,3.3026,3.2933,3.2929,3.2661,3.2621,3.2701,3.2902,3.2986,3.3133,3.3334,3.34,3.3414,3.3414,3.3414,3.3414,3.3414,3.3414,3.3414,3.3414,3.3414,3.3414,3.3414,3.3414,3.3414,3.3414,3.3414,3.3414,3.3414,3.3414,3.3414,3.3414,3.3414,3.3414,3.3414,3.3414,3.3414,3.3414,3.3414,3.3414,3.3414,3.3414,3.3414,3.34,3.3387,3.3387,3.3374,3.3334,3.332,3.332,3.328,3.3227,3.3253,3.3347,3.3347,2.9806,2.9793,2.9713,2.9606,2.9486,2.9392,2.9072,2.8644,2.8617,2.85,2.8286,2.8433,2.8337,2.8219,2.8377,2.8364,2.8232,2.8192,2.8192,2.8232,2.8433,2.847,2.8484,2.8577,2.8885,2.9299,2.9366,2.9366,2.9379,2.9553,2.9508,2.9392,2.9659,2.9913,3.0172,3.0074,3.0127,3.0194,3.0074,3.0181,3.04,3.044,3.0547,3.0755,3.0808,3.0929,3.1102,3.1396,3.1577,3.1463,3.1503,3.1617,3.1751,3.1877,3.2091,3.2433,3.2741,3.2986,3.3227,3.336,3.336,3.3293,3.3106,3.2946,3.2893,3.2915,3.2906,3.3013,3.3146,3.332,3.34,3.3414,3.3414,3.3414,3.3414,3.3414,3.3414,3.3414,3.3414,3.3414,3.3414,3.3414,3.3414,3.3414,3.3414,3.3414,3.3414,3.3414,3.3414,3.3414,3.3414,3.3414,3.3414,3.3414,3.3414,3.3414,3.3414,3.3414,3.3414,3.3414,3.3414,3.3414,3.3414,3.34,3.34,3.34,3.34,3.3387,3.34,3.3414,3.3374,3.332,3.3347,3.34,3.34,2.9913,2.9913,2.9913,2.982,2.9673,2.9659,2.9406,2.9005,2.8831,2.8617,2.8473,2.8511,2.843,2.8245,2.8457,2.8473,2.8219,2.8192,2.8192,2.8245,2.8457,2.8724,2.8911,2.8978,2.9219,2.9606,2.9659,2.9673,2.9686,2.9847,2.9806,2.9753,2.9953,3.0172,3.0127,3.0301,3.0221,3.0207,3.0207,3.0381,3.0528,3.0675,3.0935,3.1102,3.1169,3.1303,3.1583,3.1757,3.1851,3.1824,3.1805,3.1818,3.2072,3.2064,3.2251,3.2581,3.2862,3.3053,3.3213,3.3334,3.3414,3.3387,3.3227,3.3173,3.316,3.316,3.316,3.3187,3.3334,3.3387,3.3414,3.3414,3.3414,3.3414,3.3414,3.3414,3.3414,3.3414,3.3414,3.3414,3.3414,3.3414,3.3414,3.3414,3.3414,3.3414,3.3414,3.3414,3.3414,3.3414,3.3414,3.3414,3.3414,3.3414,3.3414,3.3414,3.3414,3.3414,3.3414,3.3414,3.3414,3.3414,3.3414,3.3414,3.3414,3.3414,3.3414,3.3414,3.3414,3.3414,3.3414,3.3414,3.3414,3.3414,3.3414,2.9913,2.9913,2.9913,2.9913,2.99,2.99,2.9713,2.9446,2.9192,2.8881,2.8698,2.8644,2.8551,2.8299,2.8591,2.8497,2.8259,2.8286,2.8299,2.8419,2.8604,2.8938,2.9446,2.9392,2.9566,2.9833,2.99,2.9887,2.9873,2.99,2.9913,2.994,3.0226,3.0279,3.0261,3.0528,3.0488,3.0327,3.0528,3.0728,3.0849,3.1022,3.1249,3.155,3.1604,3.1717,3.1944,3.2078,3.2118,3.2198,3.1917,3.2112,3.2487,3.2278,3.2358,3.2661,3.2942,3.3066,3.308,3.3307,3.3414,3.34,3.34,3.3414,3.3374,3.336,3.336,3.3347,3.34,3.3414,3.3414,3.3414,3.3414,3.3414,3.3414,3.3414,3.3414,3.3414,3.3414,3.3414,3.3414,3.3414,3.3414,3.3414,3.3414,3.3414,3.3414,3.3414,3.3414,3.3414,3.3414,3.3414,3.3414,3.3414,3.3414,3.3414,3.3414,3.3414,3.3414,3.3414,3.3414,3.3414,3.3414,3.3414,3.3414,3.3414,3.3414,3.3414,3.3414,3.3414,3.3414,3.3414,3.3414,3.3414,3.3414,2.9913,2.9913,2.9913,2.9913,2.9913,2.9913,2.9753,2.9486,2.9419,2.9205,2.8948,2.8908,2.8898,2.8831,2.8885,2.8748,2.8497,2.8484,2.8617,2.8858,2.8898,2.9285,2.9659,2.9606,2.9659,2.986,2.9913,2.9913,2.9913,2.9913,2.9913,2.998,3.0247,3.0448,3.0608,3.0702,3.0875,3.0889,3.0862,3.0915,3.1089,3.1149,3.1383,3.1698,3.1724,3.1872,3.2038,3.2104,3.2318,3.2599,3.2594,3.25,3.2634,3.2741,3.2786,3.2906,3.3133,3.3307,3.3334,3.336,3.3414,3.3414,3.3414,3.3414,3.3414,3.3414,3.3414,3.3414,3.3414,3.3414,3.3414,3.3414,3.3414,3.3414,3.3414,3.3414,3.3414,3.3414,3.3414,3.3414,3.3414,3.3414,3.3414,3.3414,3.3414,3.3414,3.3414,3.3414,3.3414,3.3414,3.3414,3.3414,3.3414,3.3414,3.3414,3.3414,3.3414,3.3414,3.3414,3.3414,3.3414,3.3414,3.3414,3.3414,3.3414,3.3414,3.3414,3.3414,3.3414,3.3414,3.3414,3.3414,3.3414,3.3414,3.3414,2.9913,2.9913,2.9913,2.9913,2.9913,2.9913,2.9833,2.9673,2.9539,2.9392,2.9272,2.9202,2.9179,2.9015,2.9152,2.9032,2.8644,2.8444,2.8537,2.8791,2.8921,2.9285,2.9646,2.9713,2.978,2.99,2.9913,2.9913,2.9913,2.9927,2.9993,3.014,3.0453,3.0621,3.0808,3.0915,3.0982,3.0996,3.1036,3.1076,3.1162,3.137,3.1476,3.1684,3.1738,3.1898,3.2265,3.2367,3.2625,3.2973,3.3026,3.2995,3.2919,3.2973,3.3026,3.32,3.3293,3.3414,3.3414,3.3414,3.3414,3.3414,3.3414,3.3414,3.3414,3.3414,3.3414,3.3414,3.3414,3.3414,3.3414,3.3414,3.3414,3.3414,3.3414,3.3414,3.3414,3.3414,3.3414,3.3414,3.3414,3.3414,3.3414,3.3414,3.3414,3.3414,3.3414,3.3414,3.3414,3.3414,3.3414,3.3414,3.3414,3.3414,3.3414,3.3414,3.3414,3.3414,3.3414,3.3414,3.3414,3.3414,3.3414,3.3414,3.3414,3.3414,3.3414,3.3414,3.3414,3.3414,3.3414,3.3414,3.3414,3.3414,3.3414,2.9913,2.9913,2.9913,2.9913,2.9913,2.9913,2.9913,2.9873,2.9659,2.9579,2.9526,2.9513,2.9352,2.9228,2.9366,2.9165,2.8791,2.846,2.8484,2.8764,2.8908,2.9232,2.9513,2.974,2.9887,2.9913,2.9913,2.9913,2.9913,2.9927,3.0007,3.0287,3.06,3.0688,3.0822,3.1062,3.1169,3.1089,3.1223,3.1303,3.1343,3.153,3.1684,3.1711,3.1738,3.2005,3.242,3.2594,3.2835,3.3347,3.3414,3.3414,3.3347,3.3227,3.3133,3.34,3.34,3.34,3.3414,3.3414,3.3414,3.3414,3.3414,3.3414,3.3414,3.3414,3.3414,3.3414,3.3414,3.3414,3.3414,3.3414,3.3414,3.3414,3.3414,3.3414,3.3414,3.3414,3.3414,3.3414,3.3414,3.3414,3.3414,3.3414,3.3414,3.3414,3.3414,3.3414,3.3414,3.3414,3.3414,3.3414,3.3414,3.3414,3.3414,3.3414,3.3414,3.3414,3.3414,3.3414,3.3414,3.3414,3.3414,3.3414,3.3414,3.3414,3.3414,3.3414,3.3414,3.3414,3.3414,3.3414,3.3414,3.3414,3.3414,2.9913,2.9913,2.9913,2.9913,2.9913,2.9913,2.9913,2.9913,2.9847,2.9847,2.9793,2.9593,2.9606,2.9646,2.9526,2.945,2.9165,2.8764,2.8644,2.8855,2.8988,2.9192,2.9486,2.9766,2.99,2.9913,2.9913,2.9913,2.9913,2.9927,2.998,3.006,3.036,3.0587,3.0849,3.1076,3.1343,3.1463,3.1557,3.1597,3.1623,3.1671,3.1724,3.1724,3.1724,3.2032,3.2447,3.2621,3.2862,3.3334,3.34,3.3414,3.34,3.3347,3.336,3.3387,3.3414,3.3414,3.3414,3.3414,3.3414,3.3414,3.3414,3.3414,3.3414,3.3427,3.3467,3.344,3.3427,3.3414,3.3414,3.3414,3.3414,3.3414,3.3414,3.3414,3.3414,3.3414,3.3414,3.3414,3.3414,3.3414,3.3414,3.3414,3.3414,3.3414,3.3414,3.3414,3.3414,3.3414,3.3414,3.3414,3.3414,3.3414,3.3414,3.3414,3.3414,3.3414,3.3414,3.3414,3.3414,3.3414,3.3414,3.3414,3.3414,3.3414,3.3414,3.3414,3.3414,3.3414,3.3414,3.3414,3.3414,3.3414,3.3414,2.9913,2.9913,2.9913,2.9913,2.9913,2.9913,2.982,2.9726,2.9847,2.9833,2.974,2.97,2.9686,2.97,2.974,2.9633,2.9366,2.8885,2.8748,2.8948,2.9015,2.9148,2.9486,2.978,2.9887,2.9913,2.9913,2.9913,2.9913,2.9913,2.998,3.0212,3.036,3.0614,3.0942,3.1109,3.1476,3.1757,3.1877,3.1877,3.1851,3.1818,3.1724,3.1724,3.1751,3.2032,3.246,3.2594,3.2875,3.328,3.3414,3.3414,3.3414,3.3414,3.3414,3.3414,3.3414,3.3414,3.3414,3.3414,3.3414,3.3414,3.3414,3.3414,3.3467,3.3547,3.3641,3.3614,3.3454,3.3414,3.3414,3.3414,3.3414,3.3414,3.3414,3.3414,3.3414,3.3414,3.3414,3.3414,3.3414,3.3414,3.3414,3.3414,3.3414,3.3414,3.3414,3.3414,3.3414,3.3414,3.3414,3.3414,3.3414,3.3414,3.3414,3.3414,3.3414,3.3414,3.3414,3.3414,3.3414,3.3414,3.3414,3.3414,3.3414,3.3414,3.3414,3.3414,3.3414,3.3414,3.3414,3.3414,3.3414,3.3414,3.3414,2.9913,2.9913,2.9913,2.9913,2.9913,2.9913,2.9753,2.9579,2.9793,2.9753,2.9553,2.9753,2.978,2.9686,2.9766,2.978,2.9513,2.8978,2.8911,2.9041,2.9028,2.9161,2.9499,2.9753,2.9913,2.9913,2.9913,2.9913,2.9913,2.9913,3.0047,3.014,3.0247,3.0555,3.0982,3.1029,3.1517,3.1837,3.2011,3.2011,3.1957,3.1858,3.1724,3.1724,3.1724,3.1992,3.2527,3.2594,3.2902,3.324,3.3414,3.3414,3.3414,3.3414,3.3414,3.3414,3.3414,3.3414,3.3414,3.3414,3.3414,3.3414,3.3414,3.344,3.3587,3.3788,3.3948,3.3855,3.3694,3.348,3.344,3.3414,3.3414,3.3414,3.3414,3.3414,3.3414,3.3414,3.3414,3.3414,3.3414,3.3414,3.3414,3.3414,3.3414,3.3414,3.3414,3.3414,3.3414,3.3414,3.3414,3.3414,3.3414,3.3414,3.3414,3.3414,3.3414,3.3414,3.3414,3.3414,3.3414,3.3414,3.3414,3.3414,3.3414,3.3414,3.3414,3.3414,3.3414,3.3414,3.3414,3.3414,3.3414,3.3414,3.3414,2.9913,2.9913,2.9913,2.9913,2.9913,2.9913,2.9753,2.9539,2.9793,2.9753,2.9499,2.978,2.9887,2.9847,2.9806,2.9847,2.9659,2.9175,2.9045,2.9245,2.9095,2.9148,2.9486,2.978,2.99,2.9913,2.9913,2.9913,2.9913,2.9913,2.9927,2.9993,3.0087,3.0274,3.0849,3.0969,3.1156,3.1684,3.1805,3.1805,3.1757,3.1751,3.1724,3.1724,3.1764,3.1965,3.246,3.2581,3.2875,3.3293,3.34,3.3414,3.3414,3.3414,3.3414,3.3414,3.3414,3.3414,3.3414,3.3414,3.3414,3.3414,3.3414,3.3561,3.3748,3.3948,3.4042,3.3908,3.3801,3.3654,3.3454,3.3414,3.3414,3.3414,3.3414,3.3414,3.3414,3.3414,3.3414,3.3414,3.3414,3.3414,3.3414,3.3414,3.3414,3.3414,3.3414,3.3414,3.3414,3.3414,3.3414,3.3414,3.3414,3.3414,3.3414,3.3414,3.3414,3.3414,3.3414,3.3414,3.3414,3.3414,3.3414,3.3414,3.3414,3.3414,3.3414,3.3414,3.3414,3.3414,3.3414,3.3414,3.3414,3.3414,3.3414,2.9913,2.9913,2.9913,2.9913,2.9913,2.9913,2.9753,2.9579,2.978,2.9753,2.9579,2.978,2.9913,2.9833,2.9446,2.9352,2.9472,2.9041,2.8921,2.9161,2.9108,2.9161,2.9486,2.9766,2.9913,2.9913,2.9913,2.9913,2.9913,2.9913,2.9913,2.9953,3.01,3.0381,3.0782,3.0955,3.1383,3.1757,3.1931,3.1917,3.1864,3.1757,3.1677,3.1677,3.1616,3.187,3.226,3.2541,3.2781,3.3133,3.3293,3.3414,3.3414,3.3414,3.3414,3.3414,3.3414,3.3414,3.3414,3.3414,3.3414,3.3414,3.344,3.3547,3.3788,3.3855,3.3921,3.3895,3.3708,3.3561,3.3467,3.3414,3.3414,3.3414,3.3414,3.3414,3.3414,3.3414,3.3414,3.3414,3.3414,3.3414,3.3414,3.3414,3.3414,3.3414,3.3414,3.3414,3.3414,3.3414,3.3414,3.3414,3.3414,3.3414,3.3414,3.3414,3.3414,3.3414,3.3414,3.3414,3.3414,3.3414,3.3414,3.3414,3.3414,3.3414,3.3414,3.3414,3.3414,3.3414,3.3414,3.3414,3.3414,3.3414,3.3414,2.9913,2.9913,2.9913,2.9913,2.9913,2.9913,2.9753,2.9539,2.9793,2.9753,2.9619,2.9766,2.9887,2.9713,2.9232,2.9138,2.9325,2.8911,2.8895,2.9015,2.9135,2.9339,2.9606,2.9847,2.9913,2.9913,2.9913,2.9913,2.9913,2.9927,2.9953,3.002,3.0221,3.0547,3.0782,3.1062,3.145,3.1864,3.1931,3.1548,3.0933,3.0634,3.0617,3.0639,3.0773,3.1164,3.1995,3.2433,3.2728,3.3022,3.3267,3.34,3.3414,3.3414,3.3414,3.3414,3.3414,3.3414,3.3414,3.3414,3.3414,3.344,3.3521,3.3668,3.3814,3.3681,3.3627,3.3895,3.3734,3.3561,3.3427,3.3414,3.3414,3.3414,3.3414,3.3414,3.3414,3.3414,3.3414,3.3414,3.3414,3.3414,3.3414,3.3414,3.3414,3.3414,3.3414,3.3414,3.3414,3.3414,3.3414,3.3414,3.3414,3.3414,3.3414,3.3414,3.3414,3.3414,3.3414,3.3414,3.3414,3.3414,3.3414,3.3414,3.3414,3.3414,3.3414,3.3414,3.3414,3.3414,3.3414,3.3414,3.3414,3.3414,3.3414,2.9913,2.9913,2.9913,2.9913,2.9913,2.9913,2.9753,2.9597,2.9806,2.9766,2.9593,2.9753,2.974,2.9539,2.9366,2.9165,2.9041,2.8988,2.9125,2.9299,2.9472,2.9579,2.978,2.9873,2.9913,2.9913,2.9913,2.9913,2.9913,2.9913,3.0074,3.0346,3.0373,3.0587,3.0782,3.1049,3.1383,3.1609,3.1471,3.0191,2.9017,2.8284,2.8068,2.8116,2.8332,2.9258,3.185,3.2296,3.2674,3.2969,3.3187,3.3387,3.34,3.34,3.3414,3.3414,3.3414,3.3414,3.3414,3.3414,3.3414,3.3494,3.3601,3.3734,3.3788,3.4095,3.4108,3.3855,3.3708,3.3627,3.3494,3.3414,3.3414,3.3414,3.3414,3.3414,3.3414,3.3414,3.3414,3.3414,3.3414,3.3414,3.3414,3.3414,3.3414,3.3414,3.3414,3.3414,3.3414,3.3414,3.3414,3.3414,3.3414,3.3414,3.3414,3.3414,3.3414,3.3414,3.3414,3.3414,3.3414,3.3414,3.3414,3.3414,3.3414,3.3414,3.3414,3.3414,3.3414,3.3414,3.3414,3.3414,3.3414,3.3414,3.3414,2.9913,2.9913,2.9913,2.9913,2.9913,2.9913,2.986,2.978,2.986,2.986,2.974,2.9686,2.97,2.9593,2.9138,2.9005,2.8948,2.8788,2.9005,2.9205,2.9392,2.9646,2.982,2.9913,2.9913,2.9913,2.9913,2.9913,2.9913,2.9913,3.01,3.0319,3.0373,3.0453,3.0667,3.0982,3.1296,3.1002,3.0163,2.8608,2.7924,2.6071,2.5383,2.5383,2.7395,2.8104,2.956,3.1382,3.2204,3.2755,3.3,3.32,3.3374,3.3387,3.3414,3.3414,3.3414,3.3414,3.3414,3.3414,3.3414,3.3427,3.3521,3.3601,3.3627,3.3734,3.3721,3.3614,3.3614,3.3534,3.3467,3.3414,3.3414,3.3414,3.3414,3.3414,3.3414,3.3414,3.3414,3.3414,3.3414,3.3414,3.3414,3.3414,3.3414,3.3414,3.3414,3.3414,3.3414,3.3414,3.3414,3.3414,3.3414,3.3414,3.3414,3.3414,3.3414,3.3414,3.3414,3.3414,3.3414,3.3414,3.3414,3.3414,3.3414,3.3414,3.3414,3.3414,3.3414,3.3414,3.3414,3.3414,3.3414,3.3414,3.3414,2.9913,2.9913,2.9913,2.9913,2.9913,2.9913,2.9913,2.9913,2.9913,2.9913,2.99,2.9713,2.9593,2.9428,2.9098,2.8684,2.8778,2.8764,2.8885,2.9138,2.9446,2.97,2.9847,2.9913,2.9913,2.9913,2.9913,2.9913,2.9913,2.9913,3.002,3.0154,3.0279,3.0306,3.0533,3.0835,3.0995,3.0074,2.9039,2.6505,2.5577,2.3783,2.2751,2.2848,2.4269,2.6372,2.7766,2.9816,3.1266,3.2138,3.2759,3.3066,3.3227,3.3347,3.34,3.3414,3.3414,3.3414,3.3414,3.3414,3.3414,3.3414,3.3414,3.344,3.3414,3.3414,3.348,3.3454,3.3427,3.3414,3.3414,3.3414,3.3414,3.3414,3.3414,3.3414,3.3414,3.3414,3.3414,3.3414,3.3414,3.3414,3.3414,3.3414,3.3414,3.3414,3.3414,3.3414,3.3414,3.3414,3.3414,3.3414,3.3414,3.3414,3.3414,3.3414,3.3414,3.3414,3.3414,3.3414,3.3414,3.3414,3.3414,3.3414,3.3414,3.3414,3.3414,3.3414,3.3414,3.3414,3.3414,3.3414,3.3414,3.3414,3.3414,2.9913,2.9913,2.9913,2.9913,2.9913,2.9913,2.9913,2.9913,2.9913,2.9913,2.99,2.9847,2.9566,2.9175,2.8961,2.8751,2.8577,2.8775,2.9001,2.9205,2.9548,2.9847,2.99,2.9913,2.9913,2.9913,2.9913,2.9913,2.9913,2.9913,2.9953,2.9993,3.006,3.0181,3.0426,3.0662,2.9862,2.8236,2.7864,2.4948,2.197,2.0617,2.0126,2.0224,2.1049,2.3345,2.6532,2.827,2.9977,3.1979,3.2679,3.2919,3.2986,3.328,3.3374,3.336,3.34,3.3414,3.3414,3.3414,3.3414,3.3414,3.3414,3.3414,3.3414,3.3414,3.3414,3.3414,3.3414,3.3414,3.3414,3.3414,3.3414,3.3414,3.3414,3.3414,3.3414,3.3414,3.3414,3.3414,3.3414,3.3414,3.3414,3.3414,3.3414,3.3414,3.3414,3.3414,3.3414,3.3414,3.3414,3.3414,3.3414,3.3414,3.3414,3.3414,3.3414,3.3414,3.3414,3.3414,3.3414,3.3414,3.3414,3.3414,3.3414,3.3414,3.3414,3.3414,3.3414,3.3414,3.3414,3.3414,3.3414,3.3414,3.3414,2.9913,2.9913,2.9913,2.9913,2.9913,2.9913,2.9913,2.9913,2.9913,2.9913,2.9873,2.974,2.9566,2.9285,2.8921,2.8764,2.8804,2.8831,2.9041,2.9379,2.9753,2.986,2.9913,2.9913,2.9913,2.9913,2.9913,2.9913,2.9913,2.9913,2.9913,2.994,3.0074,3.0368,3.0595,3.0624,2.9836,2.783,2.6071,2.3481,2.0314,1.8665,1.784,1.7989,1.9446,2.2124,2.5701,2.7204,2.9394,3.1851,3.2674,3.2741,3.2848,3.308,3.3293,3.3253,3.3253,3.3414,3.3414,3.3414,3.3414,3.3414,3.3414,3.3414,3.3414,3.3414,3.3414,3.3414,3.3414,3.3414,3.3414,3.3414,3.3414,3.3414,3.3414,3.3414,3.3414,3.3414,3.3414,3.3414,3.3414,3.3414,3.3414,3.3414,3.3414,3.3414,3.3414,3.3414,3.3414,3.3414,3.3414,3.3414,3.3414,3.3414,3.3414,3.3414,3.3414,3.3414,3.3414,3.3414,3.3414,3.3414,3.3414,3.3414,3.3414,3.3414,3.3414,3.3414,3.3414,3.3414,3.3414,3.3414,3.3414,3.3414,3.3414,2.9913,2.99,2.9806,2.9766,2.978,2.9873,2.9913,2.9913,2.9913,2.9913,2.9873,2.9713,2.9566,2.9392,2.9138,2.8828,2.9015,2.9121,2.9232,2.9526,2.978,2.9887,2.9913,2.9913,2.9913,2.9913,2.9913,2.9913,2.9913,2.9913,2.9913,2.9967,3.0127,3.0381,3.0662,3.0637,2.9892,2.8069,2.6216,2.4511,2.1979,2.0273,1.9257,1.9692,2.0871,2.2906,2.5204,2.7301,2.9284,3.1486,3.246,3.2514,3.2648,3.2853,3.312,3.3106,3.3227,3.3387,3.3414,3.3414,3.3414,3.3414,3.3414,3.3414,3.3414,3.3414,3.3414,3.3414,3.3414,3.3414,3.3414,3.3414,3.3414,3.3414,3.3414,3.3414,3.3414,3.3414,3.3414,3.3414,3.3414,3.3414,3.3414,3.3414,3.3414,3.3414,3.3414,3.3414,3.3414,3.3414,3.3414,3.3414,3.3414,3.3414,3.3414,3.3414,3.3414,3.3414,3.3414,3.3414,3.3414,3.3414,3.3414,3.3414,3.3414,3.3414,3.3414,3.3414,3.3414,3.3414,3.3414,3.3414,3.3414,3.3414,3.3414,2.9913,2.9873,2.9606,2.9543,2.9539,2.974,2.9847,2.9887,2.9887,2.9797,2.9631,2.943,2.9073,2.9137,2.9145,2.903,2.9055,2.9285,2.9446,2.9579,2.982,2.9887,2.9913,2.9913,2.9913,2.9913,2.9913,2.9913,2.9913,2.9913,2.9913,2.9927,3.0034,3.0327,3.0675,3.0723,2.9781,2.8153,2.717,2.5437,2.3277,2.3053,2.279,2.3169,2.3985,2.5808,2.7694,2.9054,3.022,3.1518,3.2404,3.2335,3.2385,3.2666,3.2866,3.308,3.3293,3.3374,3.3414,3.3414,3.3414,3.3414,3.3414,3.3414,3.3414,3.3414,3.3414,3.3414,3.3414,3.3414,3.3414,3.3414,3.3414,3.3414,3.3414,3.3414,3.3414,3.3414,3.3414,3.3414,3.3414,3.3414,3.3414,3.3414,3.3414,3.3414,3.3414,3.3414,3.3414,3.3414,3.3414,3.3414,3.3414,3.3414,3.3414,3.3414,3.3414,3.3414,3.3414,3.3414,3.3414,3.3414,3.3414,3.3414,3.3414,3.3414,3.3414,3.3414,3.3414,3.3414,3.3414,3.3414,3.3414,3.3414,3.3414,2.9913,2.9887,2.9606,2.953,2.9459,2.9295,2.9406,2.9593,2.9562,2.8839,2.7214,2.6969,2.7068,2.6587,2.6264,2.7437,2.8443,2.9135,2.9472,2.9659,2.982,2.9887,2.9931,2.9994,2.9931,2.9945,2.9945,3.0066,2.9913,2.9913,2.9913,2.9927,3.006,3.0314,3.0541,3.0782,2.9516,2.8581,2.8009,2.6802,2.533,2.4916,2.5608,2.6718,2.7222,2.9297,3.1792,3.1365,3.2368,3.3899,3.2907,3.2235,3.1925,3.2519,3.3026,3.328,3.3374,3.3414,3.3414,3.3414,3.3414,3.3414,3.3414,3.3414,3.3414,3.3414,3.3414,3.3414,3.3414,3.3414,3.3414,3.3414,3.3414,3.3414,3.3414,3.3414,3.3414,3.3414,3.3414,3.3414,3.3414,3.3414,3.3414,3.3414,3.3414,3.3414,3.3414,3.3414,3.3414,3.3414,3.3414,3.3414,3.3414,3.3414,3.3414,3.3414,3.3414,3.3414,3.3414,3.3414,3.3414,3.3414,3.3414,3.3414,3.3414,3.3414,3.3414,3.3414,3.3414,3.3414,3.3414,3.3414,3.3414,3.3414,3.3414,2.9753,2.9686,2.9299,2.9072,2.8981,2.8764,2.8455,2.7918,2.7972,2.7181,2.6075,2.5861,2.5619,2.5873,2.6579,2.7782,2.9131,2.9419,2.9579,2.9593,2.9842,2.9575,2.9695,3.0376,3.0389,3.0294,3.0421,3.0776,3.0173,2.9913,2.9913,2.9927,3.0186,3.0327,3.0501,3.0629,3.0298,2.963,2.9128,2.8555,2.8211,2.8117,2.9912,3.1276,3.1779,3.4071,3.6204,3.489,3.5316,3.5714,3.3789,3.29,3.2307,3.2305,3.2746,3.2959,3.316,3.3187,3.3227,3.336,3.3387,3.3414,3.3414,3.3414,3.3414,3.3414,3.3414,3.3414,3.3414,3.3414,3.3414,3.3414,3.3414,3.3414,3.3414,3.3414,3.3414,3.3414,3.3414,3.3414,3.3414,3.3414,3.3414,3.3414,3.3414,3.3414,3.3414,3.3414,3.3414,3.3414,3.3414,3.3414,3.3414,3.3414,3.3414,3.3414,3.3414,3.3414,3.3414,3.3414,3.3414,3.3414,3.3414,3.3414,3.3414,3.3414,3.3414,3.3414,3.3414,3.3414,3.3414,3.3414,3.3414,3.3414,3.3414,2.9472,2.9446,2.8845,2.8484,2.8219,2.8232,2.7106,2.5177,2.5404,2.5259,2.499,2.5281,2.5111,2.5096,2.6726,2.8276,2.9189,2.9539,2.9619,2.9676,3.0233,3.0208,3.0727,3.1368,3.212,3.1525,3.1099,3.1372,3.0249,2.9913,2.9913,2.9913,3.0007,3.0234,3.06,3.0614,3.0584,3.0767,3.1336,3.183,3.3575,3.4927,3.6514,3.8396,3.8807,3.9374,3.9578,3.9175,3.8417,3.6746,3.519,3.4243,3.2859,3.2011,3.2318,3.2652,3.2973,3.308,3.3173,3.332,3.3387,3.3414,3.3414,3.3414,3.3414,3.3414,3.3414,3.3414,3.3414,3.3414,3.3414,3.3414,3.3414,3.3414,3.3414,3.3414,3.3414,3.3414,3.3414,3.3414,3.3414,3.3414,3.3414,3.3414,3.3414,3.3414,3.3414,3.3414,3.3387,3.3387,3.3387,3.3387,3.3414,3.3414,3.3414,3.3414,3.3414,3.3414,3.3414,3.3414,3.3414,3.3414,3.3414,3.3414,3.3414,3.3414,3.3414,3.3414,3.3414,3.3414,3.3414,3.3414,3.3414,3.3414,3.3414,2.9285,2.9419,2.8845,2.843,2.8248,2.8192,2.6881,2.4679,2.3042,2.1818,2.0712,2.1896,2.2851,2.3501,2.5775,2.759,2.9249,3.0029,2.9748,3.0596,3.1304,3.1903,3.2453,3.37,3.4402,3.4463,3.3677,3.1843,3.0595,3.0097,2.9927,2.9953,3.0074,3.0413,3.0587,3.0555,3.0935,3.1316,3.3008,3.4054,3.5313,3.6006,3.6975,4.0113,4.1753,4.2684,4.2854,4.247,4.0685,3.8569,3.6313,3.4443,3.2595,3.2268,3.2492,3.3,3.2986,3.3053,3.32,3.332,3.3387,3.3414,3.3414,3.3414,3.3414,3.3414,3.3414,3.3414,3.3414,3.3414,3.3414,3.3414,3.3414,3.3414,3.3414,3.3414,3.3414,3.3414,3.3414,3.3414,3.3414,3.3414,3.3414,3.3414,3.3414,3.3414,3.3414,3.34,3.336,3.3334,3.3334,3.3347,3.34,3.3414,3.3414,3.3414,3.3414,3.3414,3.3414,3.3414,3.3414,3.3414,3.3414,3.3414,3.3414,3.3414,3.3414,3.3414,3.3414,3.3414,3.3414,3.3414,3.3414,3.3414,3.3414,2.8938,2.9032,2.8591,2.8918,2.9384,2.8628,2.6321,2.346,2.2924,2.1036,1.8734,2.0465,2.2037,2.313,2.5555,2.8069,3.0218,3.0888,3.1961,3.2799,3.317,3.3692,3.4692,3.5709,3.5525,3.5628,3.388,3.2077,3.1031,3.0128,2.9927,2.9967,3.0194,3.0467,3.0541,3.0808,3.1022,3.135,3.3903,3.5546,3.6852,3.8138,3.9994,4.3162,4.4385,4.5184,4.5197,4.4605,4.2353,3.8902,3.5571,3.3658,3.2258,3.1992,3.2211,3.2585,3.2772,3.2919,3.3146,3.3307,3.336,3.336,3.3387,3.3387,3.3414,3.3414,3.3414,3.3414,3.3414,3.3414,3.3414,3.3414,3.3414,3.3414,3.3414,3.3414,3.3414,3.3414,3.3414,3.3414,3.3414,3.3414,3.3414,3.3414,3.3374,3.3173,3.3213,3.3106,3.312,3.3187,3.3213,3.3227,3.3253,3.336,3.3414,3.3414,3.3414,3.3414,3.3414,3.3414,3.3414,3.3414,3.3414,3.3414,3.3414,3.3414,3.3414,3.3414,3.3414,3.3414,3.3414,3.3414,3.3414,3.3414,3.3414,2.9207,2.9293,2.8877,2.9648,3.091,2.9076,2.5841,2.2568,2.3695,2.2536,1.9796,2.1587,2.3445,2.5471,2.7908,3.0425,3.2221,3.2845,3.418,3.4957,3.5708,3.59,3.643,3.7271,3.7131,3.5999,3.4287,3.3226,3.2324,3.09,2.9833,2.9953,3.0207,3.0533,3.0755,3.1055,3.1323,3.2738,3.4792,3.6969,3.9162,4.1448,4.332,4.4905,4.6074,4.6289,4.6308,4.5197,4.3086,3.9266,3.4855,3.2938,3.2089,3.1938,3.2158,3.2438,3.2519,3.2706,3.2946,3.312,3.32,3.3253,3.3307,3.3307,3.3307,3.3334,3.3334,3.3347,3.3347,3.34,3.34,3.34,3.34,3.3387,3.3387,3.34,3.34,3.34,3.34,3.34,3.34,3.34,3.34,3.34,3.3227,3.304,3.2879,3.2795,3.2755,3.2888,3.2969,3.3009,3.3,3.3133,3.3347,3.3387,3.3387,3.3414,3.3414,3.3414,3.3414,3.3414,3.3414,3.3414,3.3414,3.3414,3.3414,3.3414,3.3414,3.3414,3.3414,3.3414,3.3414,3.3414,3.3414,3.1911,3.3378,3.1587,3.1034,3.1034,2.9118,2.6588,2.438,2.4434,2.4038,2.3972,2.5471,2.7074,2.7522,3.0029,3.2464,3.4439,3.4996,3.4993,3.5515,3.7374,3.7912,3.8343,3.9088,3.904,3.7619,3.5734,3.4265,3.2998,3.0939,2.9713,2.9927,3.0266,3.0453,3.0507,3.1064,3.2168,3.3819,3.6229,3.8563,4.0302,4.2303,4.3848,4.5228,4.625,4.6308,4.5895,4.4277,4.186,3.852,3.4715,3.2627,3.1992,3.1965,3.2131,3.2412,3.2478,3.2545,3.2772,3.2888,3.2942,3.2902,3.2915,3.2942,3.2933,3.3053,3.308,3.3133,3.3187,3.3334,3.336,3.336,3.336,3.3334,3.3334,3.3334,3.3347,3.336,3.336,3.3374,3.3374,3.336,3.3347,3.324,3.3026,3.2839,3.2679,3.2594,3.2487,3.2581,3.2674,3.2768,3.2822,3.3026,3.3293,3.3334,3.3347,3.3374,3.3414,3.3414,3.3414,3.3414,3.3414,3.3414,3.3414,3.3414,3.3414,3.3414,3.3414,3.3414,3.3414,3.3414,3.3414,3.3414,3.3414]},{"header":{"parameterUnit":"m.s-1","parameterCategory":1,"la1":31.0,"la2":29.5877,"lo1":-88.7671,"lo2":-86.6584,"dy":0.0162,"dx":0.0185,"nx":115,"ny":88,"refTime":"2024-08-22T12:00:00:Z","depth":0,"parameterNumber":3,"parameterNumberName":"V-component_of_WINDS"},"data":[0.0,0.0,0.0,0.0,0.0,0.0,0.0,0.0,0.0,0.0,0.0,0.0,0.0,0.0,0.0,0.0,0.0,0.0,0.0,0.0,0.0,0.0,0.0,0.0,0.0,0.0,0.0,0.0,0.0,0.0,0.0,0.0,0.0,0.0,0.0,0.0,0.0,0.0,0.0,0.0,0.0,0.0,0.0,0.0,0.0,0.0,0.0,0.0,0.0,0.0,0.0,0.0,0.0,0.0,0.0,0.0,0.0,0.0,0.0,0.0,0.0,0.0,0.0,0.0,0.0,0.0,0.0,0.0,0.0,0.0,0.0,0.0,0.0,0.0,0.0,0.0,0.0,0.0,0.0,0.0,0.0,0.0,0.0,0.0,0.0,0.0,0.0,0.0,0.0,0.0,0.0,0.0,0.0,0.0,0.0,0.0,0.0,0.0,0.0,0.0,0.0,0.0,0.0,0.0,0.0,0.0,0.0,0.0,0.0,0.0,0.0,0.0,0.0,0.0,0.0,0.0,0.0,0.0,0.0,0.0,0.0,0.0,0.0,0.0,0.0,0.0,0.0,0.0,0.0,0.0,0.0,0.0,0.0,0.0,0.0,0.0,0.0,0.0,0.0,0.0,0.0,0.0,0.0,0.0,0.0,0.0,0.0,0.0,0.0,0.0,0.0,0.0,0.0,0.0,0.0,0.0,0.0,0.0,0.0,0.0,0.0,0.0,0.0,0.0,0.0,0.0,0.0,0.0,0.0,0.0,0.0,0.0,0.0,0.0,0.0,0.0,0.0,0.0,0.0,0.0,0.0,0.0,0.0,0.0,0.0,0.0,0.0,0.0,0.0,0.0,0.0,0.0,0.0,0.0,0.0,0.0,0.0,0.0,0.0,0.0,0.0,0.0,0.0,0.0,0.0,0.0,0.0,0.0,0.0,0.0,0.0,0.0,0.0,0.0,0.0,0.0,0.0,0.0,0.0,0.0,0.0,0.0,0.0,0.0,0.0,0.0,0.0,0.0,0.0,0.0,0.0,0.0,0.0,0.0,0.0,0.0,0.0,0.0,0.0,0.0,0.0,0.0,0.0,0.0,0.0,0.0,0.0,0.0,0.0,0.0,0.0,0.0,0.0,0.0,0.0,0.0,0.0,0.0,0.0,0.0,0.0,0.0,0.0,0.0,0.0,0.0,0.0,0.0,0.0,0.0,0.0,0.0,0.0,0.0,0.0,0.0,0.0,0.0,0.0,0.0,0.0,0.0,0.0,0.0,0.0,0.0,0.0,0.0,0.0,0.0,0.0,0.0,0.0,0.0,0.0,0.0,0.0,0.0,0.0,0.0,0.0,0.0,0.0,0.0,0.0,0.0,0.0,0.0,0.0,0.0,0.0,0.0,0.0,0.0,0.0,0.0,0.0,0.0,0.0,0.0,0.0,0.0,0.0,0.0,0.0,0.0,0.0,0.0,0.0,0.0,0.0,0.0,0.0,0.0,0.0,0.0,0.0,0.0,0.0,0.0,0.0,0.0,0.0,0.0,0.0,0.0,0.0,0.0,0.0,0.0,0.0,0.0,0.0,0.0,0.0,0.0,0.0,0.0,0.0,0.0,0.0,0.0,0.0,0.0,0.0,0.0,0.0,0.0,0.0,0.0,0.0,0.0,0.0,0.0,0.0,0.0,0.0,0.0,0.0,0.0,0.0,0.0,0.0,0.0,0.0,0.0,0.0,0.0,0.0,0.0,0.0,0.0,0.0,0.0,0.0,0.0,0.0,0.0,0.0,0.0,0.0,0.0,0.0,0.0,0.0,0.0,0.0,0.0,0.0,0.0,0.0,0.0,0.0,0.0,0.0,0.0,0.0,0.0,0.0,0.0,0.0,0.0,0.0,0.0,0.0,0.0,0.0,0.0,0.0,0.0,0.0,0.0,0.0,0.0,0.0,0.0,0.0,0.0,0.0,0.0,0.0,0.0,0.0,0.0,0.0,0.0,0.0,0.0,0.0,0.0,0.0,0.0,0.0,0.0,0.0,0.0,0.0,0.0,0.0,0.0,0.0,0.0,0.0,0.0,0.0,0.0,0.0,0.0,0.0,0.0,0.0,0.0,0.0,0.0,0.0,0.0,0.0,0.0,0.0,0.0,0.0,0.0,0.0,0.0,0.0,0.0,0.0,0.0,0.0,0.0,0.0,0.0,0.0,0.0,0.0,0.0,0.0,0.0,0.0,0.0,0.0,0.0,0.0,0.0,0.0,0.0,0.0,0.0,0.0,0.0,0.0,0.0,0.0,0.0,0.0,0.0,0.0,0.0,0.0,0.0,0.0,0.0,0.0,0.0,0.0,0.0,0.0,0.0,0.0,0.0,0.0,0.0,0.0,0.0,0.0,0.0,0.0,0.0,0.0,0.0,0.0,0.0,0.0,0.0,0.0,0.0,0.0,0.0,0.0,0.0,0.0,0.0,0.0,0.0,0.0,0.0,0.0,0.0,0.0,0.0,0.0,0.0,0.0,0.0,0.0,0.0,0.0,0.0,0.0,0.0,0.0,0.0,0.0,0.0,0.0,0.0,0.0,0.0,0.0,0.0,0.0,0.0,0.0,0.0,0.0,0.0,0.0,0.0,0.0,0.0,0.0,0.0,0.0,0.0,0.0,0.0,0.0,0.0,0.0,0.0,0.0,0.0,0.0,0.0,0.0,0.0,0.0,0.0,0.0,0.0,0.0,0.0,0.0,0.0,0.0,0.0,0.0,0.0,0.0,0.0,0.0,0.0,0.0,0.0,0.0,0.0,0.0,0.0,0.0,0.0,0.0,0.0,0.0,0.0,0.0,0.0,0.0,0.0,0.0,0.0,0.0,0.0,0.0,0.0,0.0,0.0,0.0,0.0,0.0,0.0,0.0,0.0,0.0,0.0,0.0,0.0,0.0,0.0,0.0,0.0,0.0,0.0,0.0,0.0,0.0,0.0,0.0,0.0,0.0,0.0,0.0,0.0,0.0,0.0,0.0,0.0,0.0,0.0,0.0,0.0,0.0,0.0,0.0,0.0,0.0,0.0,0.0,0.0,0.0,0.0,0.0,0.0,0.0,0.0,0.0,0.0,0.0,0.0,0.0,0.0,0.0,0.0,0.0,0.0,0.0,0.0,0.0,0.0,0.0,0.0,0.0,0.0,0.0,0.0,0.0,0.0,0.0,0.0,0.0,0.0,0.0,0.0,0.0,0.0,0.0,0.0,0.0,0.0,0.0,0.0,0.0,0.0,0.0,0.0,0.0,0.0,0.0,0.0,0.0,0.0,0.0,0.0,0.0,0.0,0.0,0.0,0.0,0.0,0.0,0.0,0.0,0.0,0.0,0.0,0.0,0.0,0.0,0.0,0.0,0.0,0.0,0.0,0.0,0.0,0.0,0.0,0.0,0.0,0.0,0.0,0.0,0.0,0.0,0.0,0.0,0.0,0.0,0.0,0.0,0.0,0.0,0.0,0.0,0.0,0.0,0.0,0.0,0.0,0.0,0.0,0.0,0.0,0.0,0.0,0.0,0.0,0.0,0.0,0.0,0.0,0.0,0.0,0.0,0.0,0.0,0.0,0.0,0.0,0.0,0.0,0.0,0.0,0.0,0.0,0.0,0.0,0.0,0.0,0.0,0.0,0.0,0.0,0.0,0.0,0.0,0.0,0.0,0.0,0.0,0.0,0.0,0.0,0.0,0.0,0.0,0.0,0.0,0.0,0.0,0.0,0.0,0.0,0.0,0.0,0.0,0.0,0.0,0.0,0.0,0.0,0.0,0.0,0.0,0.0,0.0,0.0,0.0,0.0,0.0,0.0,0.0,0.0,0.0,0.0,0.0,0.0,0.0,0.0,0.0,0.0,0.0,0.0,0.0,0.0,0.0,0.0,0.0,0.0,0.0,0.0,0.0,0.0,0.0,0.0,0.0,0.0,0.0,0.0,0.0,0.0,0.0,0.0,0.0,0.0,0.0,0.0,0.0,0.0,0.0,0.0,0.0,0.0,0.0,0.0,0.0,0.0,0.0,0.0,0.0,0.0,0.0,0.0,0.0,0.0,0.0,0.0,0.0,0.0,0.0,0.0,0.0,0.0,0.0,0.0,0.0,0.0,0.0,0.0,0.0,0.0,0.0,0.0,0.0,0.0,0.0,0.0,0.0,0.0,0.0,0.0,0.0,0.0,0.0,0.0,0.0,0.0,0.0,0.0,0.0,0.0,0.0,0.0,0.0,0.0,0.0,0.0,0.0,0.0,0.0,0.0,0.0,0.0,0.0,0.0,0.0,0.0,4.5819,0.0,0.0,0.0,0.0,0.0,0.0,0.0,0.0,0.0,0.0,0.0,0.0,0.0,0.0,0.0,0.0,0.0,0.0,0.0,0.0,0.0,0.0,0.0,0.0,0.0,0.0,0.0,0.0,0.0,0.0,0.0,0.0,0.0,0.0,0.0,0.0,0.0,0.0,0.0,0.0,0.0,0.0,0.0,0.0,0.0,0.0,0.0,0.0,0.0,0.0,0.0,0.0,0.0,0.0,0.0,0.0,0.0,0.0,0.0,0.0,0.0,0.0,0.0,0.0,0.0,0.0,0.0,0.0,0.0,0.0,0.0,0.0,0.0,0.0,0.0,0.0,0.0,0.0,0.0,0.0,0.0,0.0,0.0,0.0,0.0,0.0,0.0,0.0,0.0,0.0,0.0,0.0,0.0,0.0,0.0,0.0,0.0,0.0,0.0,0.0,0.0,0.0,0.0,0.0,0.0,0.0,0.0,0.0,0.0,0.0,4.7856,4.8296,4.8296,4.7572,4.5975,0.0,0.0,0.0,0.0,0.0,0.0,0.0,0.0,0.0,0.0,0.0,0.0,0.0,0.0,0.0,0.0,0.0,0.0,0.0,0.0,0.0,0.0,0.0,0.0,0.0,0.0,0.0,0.0,0.0,0.0,0.0,0.0,0.0,0.0,0.0,0.0,0.0,0.0,0.0,0.0,0.0,0.0,0.0,0.0,0.0,0.0,0.0,0.0,0.0,0.0,0.0,0.0,0.0,0.0,0.0,0.0,0.0,0.0,0.0,0.0,0.0,0.0,0.0,0.0,0.0,0.0,0.0,0.0,0.0,0.0,0.0,0.0,0.0,0.0,0.0,0.0,0.0,0.0,0.0,0.0,0.0,0.0,0.0,0.0,0.0,0.0,0.0,0.0,0.0,0.0,0.0,0.0,0.0,0.0,0.0,0.0,0.0,0.0,0.0,0.0,0.0,0.0,0.0,0.0,0.0,0.0,0.0,0.0,0.0,0.0,0.0,0.0,4.8857,4.8076,4.6517,0.0,0.0,0.0,0.0,0.0,0.0,0.0,0.0,0.0,0.0,0.0,0.0,0.0,0.0,0.0,0.0,0.0,0.0,0.0,0.0,0.0,0.0,0.0,0.0,0.0,0.0,0.0,0.0,0.0,0.0,0.0,0.0,0.0,0.0,0.0,0.0,0.0,0.0,0.0,0.0,0.0,0.0,0.0,0.0,0.0,0.0,0.0,0.0,0.0,0.0,0.0,0.0,0.0,0.0,0.0,0.0,0.0,0.0,0.0,0.0,0.0,0.0,0.0,0.0,0.0,0.0,0.0,0.0,0.0,0.0,0.0,0.0,0.0,0.0,0.0,0.0,0.0,0.0,0.0,0.0,0.0,0.0,0.0,0.0,0.0,0.0,0.0,0.0,0.0,0.0,0.0,0.0,0.0,0.0,0.0,0.0,0.0,0.0,0.0,0.0,0.0,0.0,0.0,0.0,0.0,0.0,0.0,0.0,0.0,0.0,4.8186,5.0472,5.0545,0.0,4.8252,0.0,0.0,0.0,0.0,0.0,0.0,0.0,0.0,0.0,0.0,0.0,0.0,0.0,0.0,0.0,0.0,0.0,0.0,0.0,0.0,0.0,0.0,0.0,0.0,0.0,0.0,0.0,0.0,0.0,0.0,0.0,0.0,0.0,0.0,0.0,0.0,0.0,0.0,0.0,0.0,0.0,0.0,0.0,0.0,0.0,0.0,0.0,0.0,0.0,0.0,0.0,0.0,0.0,0.0,0.0,0.0,0.0,0.0,0.0,0.0,0.0,0.0,0.0,0.0,0.0,0.0,0.0,0.0,0.0,0.0,0.0,0.0,0.0,0.0,0.0,0.0,0.0,0.0,0.0,0.0,0.0,0.0,0.0,0.0,0.0,0.0,0.0,0.0,0.0,0.0,0.0,0.0,0.0,0.0,0.0,0.0,0.0,0.0,0.0,0.0,0.0,0.0,0.0,0.0,0.0,0.0,0.0,0.0,0.0,0.0,0.0,5.0765,4.9848,4.8994,0.0,0.0,0.0,0.0,0.0,0.0,0.0,0.0,0.0,0.0,0.0,0.0,0.0,0.0,0.0,0.0,0.0,0.0,0.0,0.0,0.0,0.0,0.0,0.0,0.0,0.0,0.0,0.0,0.0,0.0,0.0,0.0,0.0,0.0,0.0,0.0,0.0,0.0,0.0,0.0,0.0,0.0,0.0,0.0,0.0,0.0,0.0,0.0,0.0,0.0,0.0,0.0,0.0,0.0,0.0,0.0,0.0,0.0,0.0,0.0,0.0,0.0,0.0,0.0,0.0,0.0,0.0,0.0,0.0,0.0,0.0,0.0,0.0,0.0,0.0,0.0,0.0,0.0,0.0,0.0,0.0,0.0,0.0,0.0,0.0,0.0,0.0,0.0,0.0,0.0,0.0,0.0,0.0,0.0,0.0,0.0,0.0,0.0,0.0,0.0,0.0,0.0,0.0,0.0,0.0,0.0,0.0,0.0,0.0,0.0,4.7929,0.0,5.0618,4.9627,4.8663,4.8003,0.0,0.0,0.0,0.0,0.0,0.0,0.0,0.0,0.0,0.0,0.0,0.0,0.0,0.0,0.0,0.0,0.0,0.0,0.0,0.0,0.0,0.0,0.0,0.0,0.0,0.0,0.0,0.0,0.0,0.0,0.0,0.0,0.0,0.0,0.0,0.0,0.0,0.0,0.0,0.0,0.0,0.0,0.0,0.0,0.0,0.0,0.0,0.0,0.0,0.0,0.0,0.0,0.0,0.0,0.0,0.0,0.0,0.0,0.0,0.0,0.0,0.0,0.0,0.0,0.0,0.0,0.0,0.0,0.0,0.0,0.0,0.0,0.0,0.0,0.0,0.0,0.0,0.0,0.0,0.0,0.0,0.0,0.0,0.0,0.0,0.0,0.0,0.0,0.0,0.0,0.0,0.0,0.0,0.0,0.0,0.0,0.0,0.0,0.0,0.0,0.0,0.0,0.0,0.0,0.0,0.0,0.0,0.0,0.0,4.7976,4.8333,5.0729,5.0729,4.9581,0.0,0.0,0.0,0.0,0.0,0.0,0.0,0.0,0.0,0.0,0.0,0.0,0.0,0.0,0.0,0.0,0.0,0.0,0.0,0.0,0.0,0.0,0.0,0.0,0.0,0.0,0.0,0.0,0.0,0.0,0.0,0.0,0.0,0.0,0.0,0.0,0.0,0.0,0.0,0.0,0.0,0.0,0.0,0.0,0.0,0.0,0.0,0.0,0.0,0.0,0.0,0.0,0.0,0.0,0.0,0.0,0.0,0.0,0.0,0.0,0.0,0.0,0.0,0.0,0.0,0.0,0.0,0.0,0.0,0.0,0.0,0.0,0.0,0.0,0.0,0.0,0.0,0.0,0.0,0.0,0.0,0.0,0.0,0.0,0.0,0.0,0.0,0.0,0.0,0.0,0.0,0.0,0.0,0.0,0.0,0.0,0.0,0.0,0.0,0.0,0.0,0.0,0.0,0.0,0.0,0.0,0.0,0.0,0.0,4.6397,4.7342,4.9287,0.0,4.9801,4.8517,0.0,0.0,0.0,0.0,0.0,0.0,0.0,0.0,0.0,0.0,0.0,0.0,0.0,0.0,0.0,0.0,0.0,0.0,0.0,0.0,0.0,0.0,0.0,0.0,0.0,0.0,0.0,0.0,0.0,0.0,0.0,0.0,0.0,0.0,0.0,0.0,0.0,0.0,0.0,0.0,0.0,0.0,0.0,0.0,0.0,0.0,0.0,0.0,0.0,0.0,0.0,0.0,0.0,0.0,0.0,0.0,0.0,0.0,0.0,0.0,0.0,0.0,0.0,0.0,0.0,0.0,0.0,0.0,0.0,0.0,0.0,0.0,0.0,0.0,0.0,0.0,0.0,0.0,0.0,0.0,0.0,0.0,0.0,0.0,0.0,0.0,0.0,0.0,0.0,0.0,0.0,0.0,0.0,0.0,0.0,0.0,0.0,0.0,0.0,0.0,0.0,0.0,0.0,0.0,0.0,0.0,0.0,0.0,0.0,4.5838,0.0,4.9911,0.0,4.8957,4.7535,0.0,0.0,0.0,0.0,0.0,0.0,0.0,0.0,0.0,0.0,0.0,0.0,0.0,0.0,0.0,0.0,0.0,0.0,0.0,0.0,0.0,0.0,0.0,0.0,0.0,0.0,0.0,0.0,0.0,0.0,0.0,0.0,0.0,0.0,0.0,0.0,0.0,0.0,0.0,0.0,0.0,0.0,0.0,0.0,0.0,0.0,0.0,0.0,0.0,0.0,0.0,0.0,0.0,0.0,0.0,0.0,0.0,0.0,0.0,0.0,0.0,0.0,0.0,0.0,0.0,0.0,0.0,0.0,0.0,0.0,0.0,0.0,0.0,0.0,0.0,0.0,0.0,0.0,0.0,0.0,0.0,0.0,0.0,0.0,0.0,0.0,0.0,0.0,0.0,0.0,0.0,0.0,0.0,0.0,0.0,0.0,0.0,0.0,0.0,0.0,0.0,0.0,0.0,0.0,0.0,0.0,0.0,0.0,4.5076,4.8113,4.9801,4.9994,4.8443,4.8296,4.6792,0.0,0.0,0.0,0.0,0.0,0.0,0.0,0.0,0.0,0.0,0.0,0.0,0.0,0.0,0.0,0.0,0.0,0.0,0.0,0.0,0.0,0.0,0.0,0.0,0.0,0.0,0.0,0.0,0.0,0.0,0.0,0.0,0.0,0.0,0.0,0.0,0.0,0.0,0.0,0.0,0.0,0.0,0.0,0.0,0.0,0.0,0.0,0.0,0.0,0.0,0.0,0.0,0.0,0.0,0.0,0.0,0.0,0.0,0.0,0.0,0.0,0.0,0.0,0.0,0.0,0.0,0.0,0.0,0.0,0.0,0.0,0.0,0.0,0.0,0.0,0.0,0.0,0.0,0.0,0.0,0.0,0.0,0.0,0.0,0.0,0.0,0.0,0.0,0.0,0.0,0.0,0.0,0.0,0.0,0.0,0.0,0.0,0.0,0.0,0.0,0.0,0.0,0.0,0.0,0.0,0.0,0.0,0.0,0.0,4.6654,4.8233,4.9664,5.0702,4.8086,4.6994,0.0,0.0,0.0,0.0,0.0,0.0,0.0,0.0,0.0,0.0,0.0,0.0,0.0,0.0,0.0,0.0,0.0,0.0,0.0,0.0,0.0,0.0,0.0,0.0,0.0,0.0,0.0,0.0,0.0,0.0,0.0,0.0,0.0,0.0,0.0,0.0,0.0,0.0,0.0,0.0,0.0,0.0,0.0,0.0,0.0,0.0,0.0,0.0,0.0,0.0,0.0,0.0,0.0,0.0,0.0,0.0,0.0,0.0,0.0,0.0,0.0,0.0,0.0,0.0,0.0,0.0,0.0,0.0,0.0,0.0,0.0,0.0,0.0,0.0,0.0,0.0,0.0,0.0,0.0,0.0,0.0,0.0,0.0,0.0,0.0,0.0,0.0,0.0,0.0,0.0,0.0,0.0,0.0,0.0,0.0,0.0,0.0,0.0,0.0,0.0,0.0,0.0,0.0,0.0,0.0,0.0,0.0,0.0,0.0,4.7829,4.9591,5.1022,5.1987,4.894,4.7581,4.8132,0.0,0.0,0.0,0.0,0.0,0.0,0.0,0.0,0.0,0.0,0.0,0.0,0.0,0.0,0.0,0.0,0.0,0.0,0.0,0.0,0.0,0.0,0.0,0.0,0.0,0.0,0.0,0.0,0.0,0.0,0.0,0.0,0.0,0.0,0.0,0.0,0.0,0.0,0.0,0.0,0.0,0.0,0.0,0.0,0.0,0.0,0.0,0.0,0.0,0.0,0.0,0.0,0.0,0.0,0.0,0.0,0.0,0.0,0.0,0.0,0.0,0.0,0.0,0.0,0.0,0.0,0.0,0.0,0.0,0.0,0.0,0.0,0.0,0.0,0.0,0.0,0.0,0.0,0.0,0.0,0.0,0.0,0.0,0.0,0.0,0.0,0.0,0.0,0.0,0.0,0.0,0.0,0.0,0.0,0.0,0.0,0.0,0.0,0.0,0.0,0.0,0.0,0.0,0.0,0.0,0.0,0.0,0.0,5.0902,5.3298,5.3775,5.2281,5.0555,4.8536,0.0,0.0,0.0,0.0,0.0,0.0,0.0,0.0,0.0,0.0,0.0,0.0,0.0,0.0,0.0,0.0,0.0,0.0,0.0,0.0,0.0,0.0,0.0,0.0,0.0,0.0,0.0,0.0,0.0,0.0,0.0,0.0,0.0,0.0,0.0,0.0,0.0,0.0,0.0,0.0,0.0,0.0,0.0,0.0,0.0,0.0,0.0,0.0,0.0,0.0,0.0,0.0,0.0,0.0,0.0,0.0,0.0,0.0,0.0,0.0,0.0,0.0,0.0,0.0,0.0,0.0,0.0,0.0,0.0,0.0,0.0,0.0,0.0,0.0,0.0,0.0,0.0,0.0,0.0,0.0,0.0,0.0,0.0,0.0,0.0,0.0,0.0,0.0,0.0,0.0,0.0,0.0,0.0,0.0,0.0,0.0,0.0,0.0,0.0,0.0,0.0,0.0,0.0,0.0,0.0,0.0,0.0,0.0,0.0,5.259,5.4939,5.5684,5.4667,5.194,4.9884,0.0,0.0,0.0,0.0,0.0,0.0,0.0,0.0,0.0,0.0,0.0,0.0,0.0,0.0,0.0,0.0,0.0,0.0,0.0,0.0,0.0,0.0,0.0,0.0,0.0,0.0,0.0,0.0,0.0,0.0,0.0,0.0,0.0,0.0,0.0,0.0,0.0,0.0,0.0,0.0,0.0,0.0,0.0,0.0,0.0,0.0,0.0,0.0,0.0,0.0,0.0,0.0,0.0,0.0,0.0,0.0,0.0,0.0,0.0,0.0,0.0,0.0,0.0,0.0,0.0,0.0,0.0,0.0,0.0,0.0,0.0,0.0,0.0,0.0,0.0,0.0,0.0,0.0,0.0,0.0,0.0,0.0,0.0,0.0,0.0,0.0,0.0,0.0,0.0,0.0,0.0,0.0,0.0,0.0,0.0,0.0,0.0,0.0,0.0,0.0,0.0,0.0,0.0,0.0,0.0,0.0,0.0,0.0,5.1756,5.3691,5.571,5.6418,5.5622,5.3482,5.1279,0.0,0.0,0.0,0.0,0.0,0.0,0.0,0.0,0.0,0.0,0.0,0.0,0.0,0.0,0.0,0.0,0.0,0.0,0.0,0.0,0.0,0.0,0.0,0.0,0.0,0.0,0.0,0.0,0.0,0.0,0.0,0.0,0.0,0.0,0.0,0.0,0.0,0.0,0.0,0.0,0.0,0.0,0.0,0.0,0.0,0.0,0.0,0.0,0.0,0.0,0.0,0.0,0.0,0.0,0.0,0.0,0.0,0.0,0.0,0.0,0.0,0.0,0.0,0.0,0.0,0.0,0.0,0.0,0.0,0.0,0.0,0.0,0.0,0.0,0.0,0.0,0.0,0.0,0.0,0.0,0.0,0.0,0.0,0.0,0.0,0.0,0.0,0.0,0.0,0.0,0.0,0.0,0.0,0.0,0.0,0.0,0.0,0.0,0.0,0.0,0.0,0.0,0.0,0.0,0.0,0.0,0.0,0.0,5.227,5.4473,5.6014,5.6418,5.5622,5.484,5.2527,0.0,0.0,0.0,0.0,0.0,0.0,0.0,0.0,0.0,0.0,0.0,0.0,0.0,0.0,0.0,0.0,0.0,0.0,0.0,0.0,0.0,0.0,0.0,0.0,0.0,0.0,0.0,0.0,0.0,0.0,0.0,0.0,0.0,0.0,0.0,0.0,0.0,0.0,0.0,0.0,0.0,0.0,0.0,0.0,0.0,0.0,0.0,0.0,0.0,0.0,0.0,0.0,0.0,0.0,0.0,0.0,0.0,0.0,0.0,0.0,0.0,0.0,0.0,0.0,0.0,0.0,0.0,0.0,0.0,0.0,0.0,0.0,0.0,0.0,0.0,0.0,0.0,0.0,0.0,0.0,0.0,0.0,0.0,0.0,0.0,0.0,0.0,0.0,0.0,0.0,0.0,0.0,0.0,0.0,0.0,0.0,0.0,0.0,0.0,0.0,0.0,0.0,0.0,0.0,0.0,0.0,0.0,0.0,5.4179,5.5328,5.6308,5.6418,5.5622,5.484,5.2831,0.0,0.0,0.0,0.0,0.0,0.0,0.0,0.0,0.0,0.0,0.0,0.0,0.0,0.0,0.0,0.0,0.0,0.0,0.0,0.0,0.0,0.0,0.0,0.0,0.0,0.0,0.0,0.0,0.0,0.0,0.0,0.0,0.0,0.0,0.0,0.0,0.0,0.0,0.0,0.0,0.0,0.0,0.0,0.0,0.0,0.0,0.0,0.0,5.4548,0.0,0.0,0.0,0.0,0.0,0.0,0.0,0.0,0.0,0.0,0.0,0.0,0.0,0.0,0.0,0.0,0.0,0.0,0.0,0.0,0.0,0.0,0.0,0.0,0.0,0.0,0.0,0.0,0.0,0.0,0.0,0.0,0.0,0.0,0.0,0.0,0.0,0.0,0.0,0.0,0.0,0.0,0.0,0.0,0.0,0.0,0.0,0.0,0.0,0.0,0.0,0.0,0.0,0.0,0.0,0.0,0.0,0.0,0.0,5.5354,5.6161,5.6932,5.6822,5.5669,5.5181,5.3088,0.0,0.0,0.0,0.0,0.0,0.0,0.0,0.0,0.0,0.0,0.0,0.0,0.0,0.0,0.0,0.0,0.0,0.0,0.0,0.0,0.0,0.0,0.0,0.0,0.0,0.0,0.0,0.0,0.0,0.0,0.0,0.0,0.0,0.0,0.0,0.0,0.0,0.0,0.0,0.0,0.0,0.0,0.0,0.0,0.0,0.0,0.0,0.0,0.0,0.0,0.0,0.0,0.0,0.0,0.0,0.0,0.0,0.0,0.0,0.0,0.0,0.0,0.0,0.0,0.0,0.0,0.0,0.0,0.0,0.0,0.0,0.0,0.0,0.0,0.0,0.0,0.0,0.0,0.0,0.0,0.0,0.0,0.0,0.0,0.0,0.0,0.0,0.0,0.0,0.0,0.0,0.0,0.0,0.0,0.0,0.0,0.0,0.0,0.0,0.0,0.0,0.0,0.0,0.0,0.0,0.0,0.0,5.4116,5.5941,5.6957,5.7519,5.7127,5.5658,5.5475,5.3198,4.8517,0.0,0.0,0.0,0.0,0.0,0.0,0.0,0.0,0.0,0.0,0.0,0.0,0.0,0.0,0.0,0.0,0.0,0.0,0.0,0.0,0.0,0.0,0.0,0.0,0.0,0.0,0.0,0.0,0.0,0.0,0.0,0.0,0.0,0.0,0.0,0.0,0.0,0.0,5.6722,5.6852,0.0,0.0,0.0,0.0,0.0,0.0,0.0,0.0,5.6518,0.0,0.0,0.0,0.0,0.0,0.0,0.0,0.0,0.0,0.0,0.0,0.0,0.0,0.0,0.0,0.0,0.0,0.0,0.0,0.0,0.0,0.0,0.0,0.0,0.0,0.0,0.0,0.0,0.0,0.0,0.0,0.0,0.0,0.0,0.0,0.0,0.0,0.0,0.0,0.0,0.0,0.0,0.0,0.0,0.0,0.0,0.0,0.0,0.0,0.0,0.0,0.0,0.0,0.0,0.0,0.0,5.474,5.4704,5.5658,5.774,5.7251,5.6565,5.5622,5.4924,5.2637,4.859,0.0,0.0,0.0,0.0,0.0,0.0,0.0,0.0,0.0,0.0,0.0,0.0,0.0,0.0,0.0,0.0,0.0,0.0,0.0,0.0,0.0,0.0,0.0,0.0,0.0,0.0,0.0,0.0,0.0,0.0,0.0,0.0,0.0,0.0,0.0,0.0,0.0,0.0,0.0,5.6886,5.6645,0.0,0.0,0.0,0.0,0.0,0.0,0.0,0.0,5.7286,0.0,0.0,0.0,0.0,0.0,0.0,0.0,0.0,0.0,0.0,0.0,0.0,0.0,0.0,0.0,0.0,0.0,0.0,0.0,0.0,0.0,0.0,0.0,0.0,0.0,0.0,0.0,0.0,0.0,0.0,0.0,0.0,0.0,0.0,0.0,0.0,0.0,0.0,0.0,0.0,0.0,0.0,0.0,0.0,0.0,0.0,0.0,0.0,0.0,0.0,0.0,0.0,0.0,0.0,0.0,5.4216,5.5611,5.6822,5.796,5.7629,5.6822,5.5622,5.4436,5.204,0.0,0.0,0.0,0.0,0.0,0.0,0.0,0.0,0.0,0.0,0.0,0.0,0.0,0.0,0.0,0.0,0.0,0.0,0.0,0.0,0.0,0.0,0.0,0.0,0.0,0.0,0.0,0.0,0.0,0.0,0.0,0.0,0.0,0.0,0.0,0.0,0.0,0.0,0.0,0.0,5.7855,5.7939,5.7565,0.0,0.0,0.0,0.0,0.0,0.0,5.8093,5.8227,0.0,0.0,0.0,0.0,0.0,0.0,0.0,0.0,0.0,0.0,0.0,0.0,0.0,0.0,0.0,0.0,0.0,0.0,0.0,0.0,0.0,0.0,0.0,0.0,0.0,0.0,0.0,0.0,0.0,0.0,0.0,0.0,0.0,0.0,0.0,0.0,0.0,0.0,0.0,0.0,0.0,0.0,0.0,0.0,0.0,0.0,0.0,0.0,0.0,0.0,0.0,0.0,0.0,0.0,0.0,5.3214,5.6051,5.7678,5.796,5.7997,5.7237,5.5658,5.4363,5.2003,0.0,0.0,0.0,0.0,0.0,0.0,0.0,0.0,0.0,0.0,0.0,0.0,0.0,0.0,0.0,0.0,0.0,0.0,0.0,0.0,0.0,0.0,0.0,0.0,0.0,0.0,0.0,0.0,0.0,0.0,0.0,0.0,0.0,0.0,0.0,0.0,0.0,0.0,0.0,0.0,0.0,5.938,5.9221,5.949,0.0,0.0,0.0,0.0,5.8621,5.9171,0.0,0.0,0.0,0.0,0.0,0.0,0.0,0.0,0.0,0.0,0.0,0.0,0.0,0.0,0.0,0.0,0.0,0.0,0.0,0.0,0.0,0.0,0.0,0.0,0.0,0.0,0.0,0.0,0.0,0.0,0.0,0.0,0.0,0.0,0.0,0.0,0.0,0.0,0.0,0.0,0.0,0.0,0.0,0.0,0.0,0.0,0.0,0.0,0.0,0.0,0.0,0.0,0.0,0.0,0.0,0.0,5.3141,5.4987,5.6576,5.7898,5.7997,5.7237,5.5658,5.5438,5.3115,0.0,0.0,0.0,0.0,0.0,0.0,0.0,0.0,0.0,0.0,0.0,0.0,0.0,0.0,0.0,0.0,0.0,0.0,0.0,0.0,0.0,0.0,0.0,0.0,0.0,0.0,0.0,0.0,0.0,0.0,0.0,0.0,0.0,0.0,0.0,0.0,0.0,0.0,0.0,0.0,0.0,6.0003,5.9294,6.0407,6.108,0.0,0.0,6.1043,6.0236,6.0823,0.0,0.0,0.0,0.0,0.0,0.0,0.0,0.0,0.0,0.0,0.0,0.0,0.0,0.0,0.0,0.0,0.0,0.0,0.0,0.0,0.0,0.0,0.0,0.0,0.0,0.0,0.0,0.0,0.0,0.0,0.0,0.0,0.0,0.0,0.0,0.0,0.0,0.0,0.0,0.0,0.0,0.0,0.0,0.0,0.0,0.0,0.0,0.0,0.0,0.0,0.0,0.0,0.0,0.0,0.0,5.0865,5.3214,5.5684,5.7299,5.796,5.7997,5.7237,5.5622,5.473,5.238,0.0,0.0,0.0,0.0,0.0,0.0,0.0,0.0,0.0,0.0,0.0,0.0,0.0,0.0,0.0,0.0,0.0,0.0,0.0,0.0,0.0,0.0,0.0,0.0,0.0,0.0,0.0,0.0,0.0,0.0,0.0,0.0,0.0,0.0,0.0,0.0,0.0,0.0,0.0,0.0,0.0,0.0,6.1215,6.2254,0.0,0.0,0.0,6.2548,6.13,0.0,0.0,0.0,0.0,0.0,0.0,0.0,0.0,0.0,0.0,0.0,0.0,0.0,0.0,0.0,0.0,0.0,0.0,0.0,0.0,0.0,0.0,0.0,0.0,0.0,0.0,0.0,0.0,0.0,0.0,0.0,0.0,0.0,0.0,0.0,0.0,0.0,0.0,0.0,0.0,0.0,0.0,0.0,0.0,0.0,0.0,0.0,0.0,0.0,0.0,0.0,0.0,0.0,0.0,0.0,0.0,0.0,5.3214,5.6381,5.7997,5.7997,5.7997,5.7237,5.5658,5.4436,0.0,0.0,0.0,0.0,0.0,0.0,0.0,0.0,0.0,0.0,0.0,0.0,0.0,0.0,0.0,0.0,0.0,0.0,0.0,0.0,0.0,0.0,0.0,0.0,0.0,0.0,0.0,4.7645,0.0,0.0,0.0,0.0,0.0,0.0,0.0,0.0,0.0,0.0,0.0,0.0,0.0,0.0,6.1887,6.2683,6.3723,6.4383,0.0,0.0,6.4053,6.2181,6.2254,6.1777,0.0,0.0,0.0,0.0,0.0,0.0,0.0,0.0,0.0,0.0,0.0,0.0,0.0,0.0,0.0,0.0,0.0,0.0,0.0,0.0,0.0,0.0,0.0,0.0,0.0,0.0,0.0,0.0,0.0,0.0,0.0,0.0,0.0,0.0,0.0,0.0,0.0,0.0,0.0,0.0,0.0,0.0,0.0,0.0,0.0,0.0,0.0,0.0,0.0,0.0,0.0,0.0,0.0,0.0,0.0,5.3251,5.6381,5.7997,5.7997,5.7997,5.7237,5.5658,5.5475,5.3188,0.0,0.0,0.0,0.0,0.0,0.0,0.0,0.0,0.0,0.0,0.0,0.0,0.0,0.0,0.0,0.0,0.0,0.0,0.0,0.0,0.0,0.0,0.0,0.0,0.0,0.0,0.0,0.0,0.0,0.0,0.0,0.0,0.0,0.0,0.0,0.0,0.0,0.0,0.0,0.0,0.0,6.1887,6.2683,6.4187,6.5215,0.0,0.0,6.5521,6.3086,6.4028,6.371,5.9845,0.0,0.0,0.0,0.0,0.0,0.0,0.0,0.0,0.0,0.0,0.0,0.0,0.0,0.0,0.0,0.0,0.0,0.0,0.0,0.0,0.0,0.0,0.0,0.0,0.0,0.0,0.0,0.0,0.0,0.0,0.0,0.0,0.0,0.0,0.0,0.0,0.0,0.0,0.0,0.0,0.0,0.0,0.0,0.0,0.0,0.0,0.0,0.0,0.0,0.0,0.0,0.0,0.0,5.2087,5.3214,5.637,5.7997,5.7997,5.7997,5.7483,5.6381,5.5868,5.3786,0.0,0.0,0.0,0.0,0.0,0.0,0.0,0.0,0.0,0.0,0.0,0.0,0.0,0.0,0.0,0.0,0.0,0.0,0.0,0.0,0.0,0.0,0.0,0.0,0.0,0.0,0.0,0.0,5.43,5.5207,5.6503,0.0,0.0,0.0,0.0,0.0,0.0,0.0,0.0,0.0,0.0,6.3613,6.4897,6.6035,0.0,0.0,6.6612,6.6243,6.3794,6.3935,6.3506,6.1016,6.0893,0.0,0.0,0.0,0.0,0.0,0.0,0.0,0.0,0.0,0.0,0.0,0.0,0.0,0.0,0.0,0.0,0.0,0.0,0.0,0.0,0.0,0.0,0.0,0.0,0.0,0.0,0.0,0.0,0.0,0.0,0.0,0.0,0.0,0.0,0.0,0.0,0.0,0.0,0.0,0.0,0.0,0.0,0.0,0.0,0.0,0.0,0.0,0.0,0.0,0.0,0.0,0.0,5.2491,5.3544,5.6492,5.7997,5.7997,5.7997,5.7629,5.6811,5.6235,5.4436,0.0,0.0,0.0,0.0,0.0,0.0,0.0,0.0,0.0,0.0,0.0,0.0,0.0,0.0,0.0,0.0,0.0,0.0,0.0,0.0,0.0,0.0,0.0,0.0,0.0,0.0,0.0,0.0,5.6172,5.676,5.7886,0.0,0.0,0.0,0.0,0.0,0.0,0.0,0.0,0.0,0.0,6.4626,6.6253,6.6962,6.7261,6.7165,6.7578,6.7225,6.5259,6.537,6.4982,6.2966,0.0,0.0,0.0,0.0,0.0,0.0,0.0,0.0,0.0,0.0,0.0,0.0,0.0,0.0,0.0,0.0,0.0,0.0,0.0,0.0,0.0,0.0,0.0,0.0,0.0,0.0,0.0,0.0,0.0,0.0,4.3506,0.0,0.0,0.0,0.0,0.0,0.0,0.0,0.0,0.0,0.0,0.0,0.0,0.0,0.0,0.0,0.0,0.0,0.0,0.0,0.0,0.0,0.0,5.2784,5.4363,5.6748,5.7997,5.7997,5.7997,5.7629,5.6847,5.6785,5.5244,5.206,0.0,0.0,0.0,0.0,0.0,0.0,0.0,0.0,0.0,0.0,0.0,0.0,0.0,0.0,0.0,0.0,0.0,0.0,0.0,0.0,0.0,0.0,0.0,0.0,0.0,0.0,5.6712,5.7483,5.796,0.0,0.0,0.0,0.0,0.0,0.0,0.0,0.0,0.0,0.0,6.398,6.4547,6.6296,6.6494,6.7143,6.8586,6.8866,6.861,6.7712,6.8853,6.8908,0.0,0.0,0.0,0.0,0.0,0.0,0.0,0.0,0.0,0.0,0.0,0.0,0.0,0.0,0.0,0.0,0.0,0.0,0.0,0.0,0.0,0.0,0.0,0.0,0.0,0.0,0.0,4.7168,4.5948,0.0,0.0,0.0,0.0,0.0,0.0,0.0,0.0,0.0,0.0,0.0,5.3261,5.484,0.0,0.0,0.0,0.0,0.0,0.0,0.0,0.0,0.0,0.0,0.0,0.0,5.3849,5.4473,5.6748,5.7997,5.7997,5.7997,5.785,5.7629,5.7068,5.5526,5.2884,0.0,0.0,0.0,0.0,0.0,0.0,0.0,0.0,0.0,0.0,0.0,0.0,0.0,0.0,0.0,0.0,0.0,0.0,0.0,0.0,0.0,0.0,0.0,0.0,0.0,5.7299,0.0,0.0,0.0,0.0,0.0,0.0,0.0,0.0,0.0,0.0,0.0,6.3425,6.5419,6.6023,6.6728,6.7945,6.902,6.9654,0.0,0.0,0.0,0.0,0.0,0.0,0.0,0.0,0.0,0.0,0.0,0.0,0.0,0.0,7.2073,6.7044,6.5298,6.491,6.596,0.0,0.0,0.0,0.0,0.0,0.0,0.0,0.0,0.0,0.0,0.0,0.0,0.0,0.0,4.9745,0.0,4.8465,0.0,0.0,0.0,0.0,0.0,0.0,0.0,0.0,5.5097,5.6223,5.6565,5.8107,5.829,0.0,5.7531,5.6062,0.0,0.0,0.0,0.0,0.0,0.0,0.0,0.0,5.495,5.5317,5.7042,5.7997,5.7997,5.7997,5.7997,5.796,5.7226,5.5941,5.4106,5.3261,5.2454,0.0,0.0,0.0,0.0,0.0,0.0,0.0,0.0,0.0,0.0,0.0,0.0,0.0,0.0,0.0,0.0,0.0,0.0,0.0,0.0,0.0,0.0,0.0,5.8107,0.0,0.0,0.0,0.0,0.0,0.0,0.0,0.0,0.0,6.4677,6.5373,6.6632,6.8353,6.8706,6.9113,7.0034,0.0,0.0,0.0,0.0,0.0,0.0,0.0,7.1246,7.1292,7.1589,7.1967,7.2481,7.4316,7.5564,7.5014,0.0,0.0,7.1096,6.942,6.9115,7.0358,6.9748,6.9245,7.0026,6.9701,6.8939,0.0,0.0,0.0,0.0,0.0,0.0,0.0,0.0,5.2493,5.2091,0.0,5.1181,0.0,0.0,0.0,0.0,0.0,5.3298,0.0,0.0,5.8425,5.9636,6.0382,6.0493,6.0529,6.0566,6.1263,6.0786,5.9111,5.6161,0.0,0.0,0.0,0.0,0.0,0.0,5.6051,5.6847,5.7703,5.807,5.8107,5.8081,5.8033,5.7997,5.7251,5.6492,5.5695,5.495,5.4132,5.3324,5.183,0.0,0.0,0.0,0.0,0.0,0.0,0.0,0.0,0.0,0.0,0.0,0.0,0.0,0.0,0.0,0.0,0.0,0.0,0.0,0.0,5.7593,0.0,0.0,0.0,0.0,0.0,0.0,0.0,0.0,0.0,0.0,6.8288,6.9187,7.0742,7.2275,0.0,0.0,0.0,0.0,7.1957,7.3531,7.378,7.3802,7.3802,7.5014,7.5454,7.4037,0.0,0.0,7.5234,7.6261,7.6775,7.5307,7.6335,7.7326,7.72,7.5687,7.5005,7.5747,7.4647,7.4111,7.4602,7.3364,7.2181,5.8599,0.0,0.0,0.0,0.0,5.5501,5.6095,5.7453,5.7384,5.6284,5.4597,5.4671,0.0,0.0,0.0,0.0,0.0,0.0,5.6418,5.8535,5.96,6.0481,6.13,6.2475,6.3038,6.3062,6.3282,6.2805,6.1728,6.0272,5.7971,5.495,0.0,0.0,0.0,0.0,5.7703,5.8499,5.9306,5.9722,5.9722,5.9159,5.8584,5.8045,5.7776,5.7556,5.731,5.7079,5.6602,5.5783,5.4766,0.0,0.0,0.0,0.0,0.0,0.0,0.0,0.0,0.0,0.0,0.0,0.0,0.0,0.0,0.0,0.0,0.0,0.0,0.0,5.8499,5.9233,6.0529,0.0,0.0,0.0,0.0,0.0,0.0,0.0,0.0,0.0,7.2848,7.214,7.2075,0.0,0.0,7.2967,7.3311,7.4131,7.4876,7.5365,0.0,0.0,0.0,7.5674,7.5454,7.6151,7.6848,7.7142,7.6702,7.6995,7.7362,7.7436,7.7399,7.7472,7.8038,7.7362,7.6738,7.6885,7.6555,7.6335,7.6472,7.5625,7.4375,6.2723,5.958,5.9019,5.8942,5.9191,5.8698,5.9327,6.0627,6.0319,5.9408,5.819,5.8018,5.6496,5.4104,5.4312,0.0,0.0,0.0,5.8474,6.0187,6.0958,6.1777,6.2658,6.3943,6.4567,6.4567,6.4567,6.431,6.3783,6.3282,6.1704,5.9036,0.0,0.0,5.7556,5.8474,5.9171,5.9673,6.015,6.0407,6.037,5.96,5.8976,5.851,5.818,5.7997,5.7997,5.7997,5.7776,5.7299,5.6528,5.5464,0.0,0.0,0.0,0.0,0.0,0.0,0.0,0.0,0.0,0.0,0.0,5.6675,0.0,0.0,0.0,0.0,5.977,6.0896,6.1985,6.3086,0.0,0.0,0.0,0.0,0.0,0.0,0.0,7.2789,7.4515,7.5689,7.5858,7.5531,7.5238,7.5152,7.5056,7.504,7.51,0.0,7.657,7.6555,7.7289,7.7803,7.7803,7.7268,7.7084,7.7708,7.8096,7.8133,7.7876,7.806,7.8369,7.8516,7.8442,7.8259,7.8112,7.7913,7.7693,7.7347,7.6972,7.6728,7.6712,7.5597,7.4264,6.6339,6.5502,6.4106,6.3194,6.2666,6.2544,6.2544,6.2482,6.1685,6.1529,6.1826,6.0933,5.9659,5.818,5.8217,0.0,5.9416,6.0162,6.0933,6.1826,6.2548,6.3356,6.42,6.5007,6.5398,6.5398,6.5411,6.5398,6.5362,6.5288,6.4934,6.4139,6.1924,6.075,6.0591,6.0529,6.0529,6.0591,6.0603,6.0566,6.0481,5.9783,5.9343,5.9184,5.8474,5.807,5.8008,5.7997,5.8031,5.8029,5.7367,5.6581,5.58,0.0,0.0,0.0,0.0,0.0,0.0,0.0,0.0,0.0,0.0,0.0,0.0,0.0,0.0,0.0,6.3589,0.0,6.6659,6.8238,0.0,0.0,0.0,7.1747,7.1931,7.3876,7.4955,7.4258,0.0,0.0,7.7619,7.8846,7.9229,7.7693,7.7509,7.7472,7.7436,7.7362,7.7399,7.7289,7.8023,7.8552,7.8516,7.9082,7.9286,7.8809,7.9302,7.9449,7.8883,7.9229,7.9412,7.9029,7.936,7.9396,7.7876,7.8295,7.8369,7.7582,7.655,7.5857,7.5823,7.4348,7.2968,6.6698,6.6481,6.6115,6.4779,6.2865,6.2269,6.2013,6.2024,6.2466,6.2354,6.1826,6.1911,6.1143,5.9832,5.9832,6.0272,6.1043,6.1227,6.212,6.3466,6.3686,6.4237,6.5044,6.5839,6.6219,6.6219,6.6219,6.6219,6.6182,6.5582,6.5215,6.5007,6.4407,6.349,6.2242,6.163,6.163,6.2205,6.2242,6.1924,6.1337,6.1117,6.0444,5.9221,5.9013,5.8609,5.8033,5.7997,5.8175,5.8524,5.8332,5.8042,5.7584,5.5734,0.0,0.0,0.0,0.0,0.0,0.0,0.0,0.0,0.0,6.3356,6.0089,0.0,6.6269,0.0,6.7737,6.8825,6.9192,7.0697,0.0,0.0,7.4845,7.5726,7.7561,7.7745,7.7855,7.8311,7.9045,7.9449,7.9213,7.9559,7.9669,7.925,7.9213,7.8993,7.8405,7.8295,7.8038,7.7546,7.8112,7.8589,7.8699,7.925,7.9779,7.9559,7.9706,7.9706,7.9559,7.9669,7.9926,8.0277,8.0021,7.9874,8.0021,7.936,7.8626,7.8249,7.6951,7.5823,7.5753,7.4215,7.2776,6.7514,6.7153,6.6817,6.5837,6.4543,6.4184,6.4011,6.404,6.4304,6.4128,6.3665,6.3699,6.3294,6.2585,6.2572,6.2805,6.3246,6.3246,6.3759,6.464,6.5007,6.5411,6.5852,6.6659,6.7026,6.7026,6.7393,6.7577,6.7577,6.7467,6.7283,6.6903,6.6549,6.5742,6.4444,6.3295,6.2915,6.3343,6.338,6.3172,6.2707,6.2328,6.1557,6.0334,5.993,5.9343,5.8584,5.8535,5.8747,5.9183,5.8899,5.9045,5.9804,5.877,5.8422,0.0,0.0,0.0,0.0,0.0,0.0,0.0,0.0,0.0,0.0,0.0,6.9596,7.0307,7.2165,7.3744,7.4845,7.6423,7.7745,7.8699,7.914,7.9617,8.0277,8.0241,8.0351,8.0807,8.1158,8.1415,8.1415,8.1709,8.1929,8.1929,8.1946,8.1232,7.9543,7.9119,7.8956,7.8516,7.914,7.98,8.0131,8.0865,8.1269,8.0975,8.1452,8.1819,8.1489,8.1709,8.1893,8.1599,8.1452,8.1122,8.0608,8.0131,7.9507,7.8594,7.7306,7.6016,7.5245,7.3889,7.2693,6.8641,6.7921,6.7247,6.6953,6.6972,6.7053,6.69,6.6579,6.6131,6.5914,6.588,6.547,6.5325,6.5325,6.5325,6.5325,6.5325,6.5325,6.5362,6.5472,6.6182,6.6623,6.6843,6.7407,6.7737,6.7884,6.8568,6.8898,6.8921,6.9706,6.9669,6.8885,6.8201,6.748,6.6623,6.5167,6.4347,6.4237,6.4249,6.4237,6.4237,6.3527,6.2683,6.1777,6.108,6.0224,5.9258,5.9416,5.9777,6.0255,5.9868,6.05,6.2452,6.2563,6.2892,0.0,6.4345,0.0,0.0,0.0,0.0,0.0,0.0,0.0,0.0,7.1725,7.312,7.4382,7.6754,7.9087,8.1122,8.2647,8.3271,8.2627,8.3141,8.2977,8.1656,8.2076,8.2517,8.2517,8.3141,8.3528,8.3528,8.4205,8.4572,8.4389,8.4315,8.3398,8.1085,8.0424,8.0257,7.9926,8.0571,8.1305,8.2076,8.2957,8.3214,8.2663,8.3398,8.4315,8.3564,8.4022,8.4095,8.292,8.292,8.2627,8.0587,8.0718,8.0498,7.9271,7.8017,7.656,7.4792,7.3512,7.2467,6.9779,6.9633,6.9486,6.9412,6.9366,6.8762,6.7391,6.5583,6.5494,6.5407,6.5431,6.5353,6.5325,6.5325,6.5325,6.5325,6.5325,6.5325,6.5668,6.6292,6.6402,6.721,6.8385,6.7958,6.8031,6.8678,6.8825,6.8898,6.8935,6.9706,6.9706,6.8935,6.8752,6.8274,6.748,0.0,0.0,0.0,6.5068,6.5068,6.5081,6.4921,6.4114,6.2658,6.2426,0.0,5.938,6.0456,6.1604,6.2532,6.3662,0.0,0.0,0.0,0.0,0.0,0.0,0.0,0.0,0.0,0.0,0.0,7.2275,7.2092,7.2202,7.6423,7.9029,7.8788,8.1415,8.3141,8.2977,8.3801,8.4315,8.4205,8.4278,8.4242,8.3948,8.4058,8.4132,8.4168,8.4278,8.4389,8.4462,8.4535,8.4646,8.4792,8.4609,8.4389,8.3838,8.3067,8.1966,8.0367,8.1158,8.226,8.3067,8.3858,8.4188,8.3544,8.3948,8.4535,8.4499,8.4499,8.4646,8.4095,8.3748,8.3308,8.27,8.1803,8.0938,8.0571,7.9767,7.8204,7.5019,7.3324,7.2259,7.1284,0.0,7.0844,7.0697,0.0,7.0243,6.9192,6.76,6.6806,6.6476,6.6476,6.6476,6.6476,6.6476,6.6476,6.6476,6.6512,6.688,6.7283,6.7724,6.8091,6.8715,6.9486,6.9082,6.9096,6.9486,6.9876,7.0059,7.0132,7.0917,7.0881,7.0096,7.0096,6.9706,6.8912,6.8091,6.6916,6.5325,6.6072,6.6476,6.6512,6.688,6.6279,6.4714,0.0,0.0,0.0,0.0,0.0,0.0,0.0,0.0,0.0,0.0,0.0,7.0516,7.1042,7.1479,7.1836,7.2506,7.3467,7.4764,7.6387,7.7121,7.6717,7.9727,8.1929,8.2717,8.4609,8.5637,8.5253,8.593,8.604,8.5306,8.5563,8.5637,8.5306,8.5563,8.5783,8.5783,8.5783,8.593,8.6334,8.6371,8.6554,8.6885,8.6628,8.6334,8.6224,8.5013,8.3434,8.2333,8.2774,8.3508,8.3985,8.5049,8.5527,8.4939,8.56,8.6114,8.5857,8.5783,8.5673,8.527,8.4535,8.3911,8.3381,8.2406,8.1489,8.1073,8.0579,7.9397,7.675,7.5293,7.42,7.2936,7.2863,7.2224,7.1857,7.1711,7.1564,7.0977,7.0013,0.0,0.0,0.0,6.77,6.77,6.77,6.77,6.7774,6.7944,6.8605,6.8972,6.9142,6.9779,7.0183,7.0293,7.0146,7.0183,7.033,7.0977,7.1307,7.1344,7.2114,7.2078,7.1344,7.1307,7.0917,7.011,6.9449,6.8151,6.6329,6.732,6.7921,6.7958,6.8715,6.8421,6.6953,6.6916,6.638,6.5234,6.6098,6.6881,6.7505,6.783,6.898,7.1148,7.21,7.343,7.525,7.6224,7.6603,7.626,7.6868,7.7217,7.6983,7.958,8.1195,8.1232,8.2223,8.3618,8.5637,8.6518,8.6978,8.7014,8.7729,8.7692,8.6371,8.6958,8.7142,8.6407,8.6811,8.7088,8.7051,8.6941,8.7325,8.7986,8.8059,8.85,8.9069,8.85,8.8206,8.7949,8.6371,8.5196,8.5416,8.5453,8.527,8.5453,8.6444,8.7014,8.6444,8.7399,8.8133,8.7601,8.7308,8.6958,8.6425,8.549,8.4646,8.3931,8.3104,8.2223,8.1546,8.1107,8.0424,7.8999,7.7949,7.6871,7.4588,7.4536,7.4426,7.3986,7.3303,7.2606,7.1468,7.0036,6.9119,6.8348,6.77,6.77,6.77,6.77,6.77,6.8091,6.8701,6.8848,6.9265,6.9926,7.0036,7.0477,7.1087,7.044,7.0477,7.1087,7.1233,7.1307,7.138,7.2114,7.2078,7.1417,7.1307,7.0903,7.0146,6.9963,6.9793,6.9412,6.8972,6.8715,6.8752,6.9522,6.9486,6.8641,6.8605,6.7824,6.6362,6.775,6.9095,7.0358,7.1737,7.3149,7.4602,7.5427,7.5837,7.5491,7.6381,7.7231,7.7781,7.8197,7.8918,8.022,8.1379,8.2039,8.2076,8.4022,8.5433,8.5837,8.6554,8.7014,8.7051,8.7766,8.8133,8.7949,8.8556,8.8739,8.7912,8.7912,8.7802,8.7198,8.7014,8.7381,8.8169,8.8316,8.8647,8.9143,8.905,8.8316,8.8206,8.7362,8.7308,8.8262,8.8133,8.7766,8.7619,8.8409,8.8592,8.7986,8.8556,8.9179,8.8923,8.8335,8.7912,8.7839,8.6518,8.56,8.5306,8.4242,8.3308,8.2867,8.2375,8.1574,8.0423,8.0045,7.9226,7.5821,7.6114,7.5711,7.5322,7.4918,7.3685,7.2239,7.077,7.0353,6.9522,6.8458,6.8788,6.8752,6.8385,6.8802,6.9192,6.9559,6.9986,7.0389,7.0793,7.1651,7.2239,7.2606,7.2679,7.2899,7.3252,7.3252,7.3252,7.3289,7.3619,7.3582,7.3252,7.2826,7.2202,7.1431,7.0991,7.0756,7.0756,7.0807,7.0646,7.0243,7.1394,7.1651,7.0866,7.0844,7.0657,7.0219,7.1355,7.2277,7.2857,7.4049,7.5016,7.5729,7.6151,7.6375,7.6446,7.7319,7.8034,7.8404,7.8937,7.9764,8.0901,8.1746,8.259,8.3434,8.4903,8.5984,8.6444,8.7178,8.7638,8.7692,8.839,8.8849,8.8849,8.9216,8.9253,8.8959,8.8867,8.8702,8.8372,8.8299,8.8592,8.9381,8.9491,8.9821,9.0519,9.0298,8.9968,8.9564,8.9564,8.9491,8.94,8.9069,8.8886,8.8886,8.951,8.9657,8.8959,8.951,8.9803,8.9473,8.8757,8.8316,8.8096,8.6939,8.5947,8.58,8.4866,8.4058,8.3418,8.3161,8.2468,8.1761,8.1784,8.1288,7.6702,7.7215,7.6628,7.6276,7.5983,7.4588,7.3156,7.1894,7.1857,7.094,6.9619,6.9926,6.9743,6.9265,6.9816,7.0307,7.066,7.1087,7.16,7.2188,7.3193,7.378,7.4037,7.4625,7.4903,7.4903,7.4903,7.4903,7.4903,7.4903,7.4903,7.483,7.4258,7.367,7.3046,7.2408,7.2114,7.2151,7.2899,7.2812,7.1931,7.3046,7.3465,7.312,7.3032,7.3216,7.3673,7.4309,7.4718,7.4863,7.5497,7.599,7.6358,7.657,7.6937,7.7582,7.8405,7.8956,7.9176,7.989,8.0681,8.1489,8.2296,8.3324,8.4719,8.56,8.6297,8.6941,8.7509,8.7949,8.8206,8.8886,8.9473,8.962,8.984,8.9913,8.973,8.9657,8.9583,8.9473,8.94,8.9657,9.0372,9.0629,9.0776,9.1253,9.1657,9.1473,9.0886,9.1289,9.1179,9.0391,8.9913,8.9987,8.9987,9.0445,9.0574,9.0024,9.0427,9.0537,9.0097,8.9344,8.883,8.872,8.7729,8.6848,8.6407,8.5747,8.4866,8.4042,8.3528,8.3071,8.2304,8.2728,8.2814,7.7252,7.7289,7.7179,7.6775,7.6019,7.5175,7.4294,7.3487,7.3465,7.2569,7.116,7.0403,7.0146,7.0,7.011,7.0917,7.2129,7.16,7.2445,7.4243,7.3964,7.4074,7.4757,7.4903,7.4903,7.4977,7.4977,7.505,7.505,7.4977,7.494,7.4903,7.483,7.472,7.4647,7.4536,7.4536,7.4573,7.5359,7.5028,7.3597,7.3648,7.4001,7.4647,7.4683,7.4713,7.4794,7.4823,7.5206,7.5852,7.6029,7.6425,7.7157,7.7928,7.8405,7.8516,7.9265,8.0,8.0755,8.1542,8.2296,8.3124,8.3838,8.4646,8.558,8.6371,8.6904,8.7014,8.7088,8.7472,8.8133,8.8923,8.9693,9.0445,9.1033,9.1326,9.0629,9.0482,9.0207,8.9473,8.9583,8.973,9.0555,9.0702,9.0702,9.0922,9.1473,9.1546,9.0959,9.1326,9.1767,9.1546,9.151,9.1473,9.1436,9.1583,9.151,9.1436,9.1583,9.151,9.1179,9.0739,9.0317,8.9821,8.9363,8.8426,8.7839,8.7325,8.6187,8.4792,8.3985,8.3234,8.2553,8.2994,8.3098,7.7326,7.7326,7.7326,7.6812,7.6093,7.5747,7.5175,7.4441,7.4404,7.4037,7.3435,7.3068,7.2165,7.0881,7.1321,7.2129,7.3156,7.2863,7.3487,7.4867,7.5028,7.5285,7.5601,7.6114,7.6335,7.6335,7.6335,7.6335,7.6298,7.6298,7.6298,7.6261,7.5873,7.5601,7.5579,7.5124,7.5124,7.5564,7.5469,7.5506,7.5747,7.5359,7.5285,7.5579,7.5616,7.5858,7.6261,7.6335,7.6481,7.6775,7.6812,7.7179,7.8038,7.8846,7.9302,7.9376,8.0514,8.1562,8.237,8.3177,8.3544,8.3418,8.4168,8.4939,8.571,8.6114,8.6481,8.6904,8.7014,8.7509,8.8702,8.9216,8.9913,9.1069,9.162,9.1657,9.1363,9.1326,9.1143,9.0849,9.0849,9.0886,9.1216,9.1289,9.1289,9.1326,9.162,9.1583,9.1363,9.162,9.1767,9.1803,9.1803,9.1803,9.1803,9.1803,9.1803,9.1803,9.1803,9.1803,9.1693,9.1143,9.0592,9.0629,8.9711,8.8904,8.8206,8.7545,8.6628,8.549,8.4719,8.3985,8.3654,8.4242,8.4389,7.7326,7.7326,7.7326,7.6959,7.646,7.646,7.5983,7.527,7.5249,7.5102,7.4903,7.4903,7.3949,7.2518,7.2922,7.3487,7.3964,7.4037,7.4588,7.5491,7.5931,7.6203,7.6445,7.6995,7.7326,7.7326,7.7289,7.7289,7.7326,7.7326,7.7326,7.7215,7.6702,7.646,7.6371,7.5821,7.5821,7.6313,7.5821,7.6114,7.7032,7.6738,7.6423,7.646,7.6423,7.6812,7.7619,7.7656,7.7766,7.7986,7.7986,7.8259,7.8919,7.9706,8.033,8.0828,8.2076,8.3104,8.3711,8.4278,8.4462,8.4152,8.4609,8.527,8.593,8.6114,8.6371,8.6921,8.7215,8.7932,8.9106,8.962,9.0354,9.1583,9.1803,9.1803,9.1767,9.1803,9.1767,9.1803,9.1657,9.1803,9.1803,9.1767,9.173,9.173,9.1767,9.1803,9.1803,9.1767,9.1803,9.1803,9.1803,9.1803,9.1803,9.1803,9.1803,9.1803,9.1803,9.1803,9.1803,9.1216,9.0959,9.1033,8.9784,8.905,8.8867,8.8096,8.7362,8.6371,8.5563,8.4939,8.4425,8.5233,8.5416,7.7326,7.7326,7.7326,7.7252,7.7237,7.7215,7.6775,7.6056,7.6056,7.5652,7.505,7.4977,7.4867,7.4647,7.472,7.483,7.483,7.483,7.5637,7.6885,7.6423,7.6533,7.7252,7.7289,7.7326,7.7326,7.7326,7.7326,7.7326,7.7326,7.7326,7.7289,7.7215,7.7215,7.7179,7.7069,7.7179,7.7142,7.7069,7.7215,7.7326,7.7289,7.7252,7.7326,7.7252,7.7656,7.8405,7.8552,7.8883,7.9633,7.9633,7.9706,7.9816,8.0534,8.1619,8.3087,8.4022,8.4462,8.4535,8.4682,8.4939,8.549,8.5637,8.6077,8.6738,8.6831,8.6867,8.7014,8.7729,8.8536,8.929,9.0024,9.0776,9.162,9.1803,9.1803,9.1803,9.1803,9.1803,9.1803,9.1803,9.1803,9.1803,9.1803,9.1803,9.1803,9.1803,9.1803,9.1803,9.1803,9.1803,9.1803,9.1803,9.1803,9.1803,9.1803,9.1803,9.1803,9.1803,9.1803,9.1803,9.1767,9.1693,9.162,9.1106,9.0519,8.9803,8.9179,8.8573,8.7692,8.6664,8.5967,8.538,8.5527,8.5783,7.7803,7.7326,7.7326,7.7326,7.7326,7.7326,7.7105,7.6885,7.6885,7.6702,7.6481,7.6408,7.6151,7.5689,7.6225,7.6151,7.5689,7.5652,7.6261,7.7215,7.6995,7.7032,7.7252,7.7326,7.7326,7.7326,7.7326,7.7326,7.7326,7.7326,7.7326,7.7326,7.7326,7.7326,7.7326,7.7326,7.7326,7.7326,7.7326,7.7546,7.8112,7.8148,7.8369,7.8846,7.8405,7.8516,7.9323,7.936,7.9522,7.9779,8.0277,8.0571,8.0681,8.1819,8.3491,8.5363,8.549,8.5343,8.5416,8.5857,8.6004,8.582,8.6297,8.6664,8.6904,8.7014,8.7014,8.7234,8.8262,8.9106,8.9436,9.0134,9.0922,9.162,9.1803,9.1803,9.1803,9.1803,9.1803,9.1803,9.1803,9.1803,9.1803,9.1803,9.1803,9.1803,9.1803,9.1803,9.1803,9.1803,9.1803,9.1803,9.1803,9.1803,9.1803,9.1803,9.1803,9.1803,9.1803,9.1803,9.1803,9.1803,9.173,9.1657,9.1583,9.1033,8.9987,8.916,8.8757,8.8133,8.7178,8.7068,8.6407,8.6885,8.6995,7.8259,7.7729,7.7399,7.7472,7.7693,7.7399,7.7326,7.7326,7.7326,7.7326,7.7326,7.7326,7.6995,7.6592,7.7069,7.7032,7.6518,7.6497,7.6775,7.7289,7.7326,7.7326,7.7326,7.7326,7.7326,7.7326,7.7326,7.7326,7.7326,7.7326,7.7326,7.7326,7.7546,7.7729,7.7729,7.7949,7.8112,7.8096,7.8096,7.8442,7.8919,7.9008,7.936,7.9984,7.9653,7.9617,8.0183,8.0183,8.033,8.0608,8.1342,8.1893,8.226,8.3434,8.4996,8.6701,8.6738,8.6701,8.6995,8.7455,8.7435,8.6664,8.7031,8.7325,8.7051,8.7014,8.7142,8.7565,8.8556,8.9473,8.9877,9.0555,9.1216,9.1693,9.1803,9.1803,9.1803,9.1803,9.1803,9.1803,9.1803,9.1803,9.1803,9.1803,9.1803,9.1803,9.1803,9.1803,9.1803,9.1803,9.1803,9.1803,9.1803,9.1803,9.1803,9.1803,9.1803,9.1803,9.1803,9.1803,9.1803,9.1803,9.1767,9.1693,9.1363,9.0812,9.0115,8.9234,8.8647,8.8169,8.8225,8.8299,8.8189,8.8409,8.8225,7.8626,7.8479,7.7693,7.7876,7.8332,7.7729,7.7362,7.7326,7.7326,7.7326,7.7326,7.7326,7.7252,7.7252,7.7252,7.7289,7.7215,7.7179,7.7215,7.7326,7.7326,7.7326,7.7326,7.7326,7.7399,7.7436,7.7362,7.7362,7.7436,7.7509,7.7546,7.7546,7.8222,7.8589,7.8626,7.9229,7.9669,7.9596,7.9559,7.9669,7.9816,7.9816,8.0204,8.0901,8.0938,8.0975,8.1069,8.1085,8.1452,8.2113,8.2957,8.3785,8.4462,8.5196,8.6114,8.6995,8.7729,8.85,8.9106,8.9179,8.8812,8.8206,8.8169,8.7802,8.7271,8.7161,8.7399,8.8059,8.8923,8.973,9.0464,9.1216,9.1693,9.1803,9.1803,9.1803,9.1803,9.1803,9.1803,9.1803,9.1803,9.1803,9.1803,9.1803,9.1803,9.1803,9.1803,9.1803,9.1803,9.1803,9.1803,9.1803,9.1803,9.1803,9.1803,9.1803,9.1803,9.1803,9.1803,9.1803,9.1803,9.1803,9.1803,9.1693,9.14,9.0922,9.0739,8.9968,8.9657,8.9326,8.9473,8.9326,8.9069,8.8959,8.8996,7.9449,7.9376,7.914,7.8809,7.8589,7.8295,7.7876,7.7326,7.7326,7.7326,7.7326,7.7326,7.7326,7.7326,7.7326,7.7326,7.7326,7.7326,7.7326,7.7326,7.7326,7.7326,7.7326,7.7326,7.7619,7.8112,7.8185,7.8185,7.8295,7.8736,7.8772,7.8479,7.9029,7.9396,7.9433,7.9669,7.9816,7.9816,7.9816,8.0036,8.0571,8.0645,8.1012,8.1709,8.1819,8.2076,8.261,8.2647,8.2757,8.3051,8.4315,8.5416,8.604,8.5967,8.6444,8.7655,8.8023,8.8573,8.9253,8.94,8.9363,8.8959,8.8536,8.8133,8.7876,8.7839,8.7949,8.8353,8.9417,9.0354,9.0665,9.1326,9.1767,9.1803,9.1803,9.1803,9.1803,9.1803,9.1803,9.1803,9.1803,9.1803,9.1803,9.1803,9.1803,9.1803,9.1803,9.1803,9.1803,9.1803,9.1803,9.1803,9.1803,9.1803,9.1803,9.1803,9.1803,9.1803,9.1803,9.1803,9.1803,9.1803,9.1803,9.1693,9.14,9.1179,9.1033,9.0812,9.0482,9.0354,9.0317,8.995,8.94,8.94,8.9748,8.0241,8.0204,7.9926,7.9706,7.9433,7.9213,7.8552,7.7839,7.7766,7.7619,7.7362,7.7326,7.7326,7.7326,7.7326,7.7326,7.7326,7.7326,7.7326,7.7326,7.7326,7.7326,7.7362,7.7656,7.8222,7.8919,7.9045,7.9029,7.9082,7.9522,7.9522,7.9265,7.9853,8.0241,8.0351,8.0828,8.1012,8.0755,8.1012,8.1379,8.1766,8.1893,8.2296,8.2957,8.3104,8.3361,8.3821,8.4095,8.4132,8.4132,8.5123,8.6151,8.6848,8.6554,8.6848,8.7912,8.8536,8.9014,8.973,9.017,9.0134,8.984,8.9381,8.894,8.8757,8.8647,8.872,8.9234,8.9968,9.0739,9.1069,9.1473,9.1767,9.1803,9.1803,9.1803,9.1803,9.1803,9.1803,9.1803,9.1803,9.1803,9.1803,9.1803,9.1803,9.1803,9.1803,9.1803,9.1803,9.1803,9.1803,9.1803,9.1803,9.1803,9.1803,9.1803,9.1803,9.1803,9.1803,9.1803,9.1803,9.1803,9.1803,9.1767,9.1546,9.151,9.14,9.1289,9.1069,9.1106,9.1033,9.0665,9.0335,9.0812,9.0996,8.1085,8.0975,8.0241,8.0351,8.0755,8.0131,7.9323,7.8626,7.8516,7.806,7.7436,7.7436,7.7399,7.7326,7.7436,7.7472,7.7326,7.7326,7.7326,7.7326,7.7399,7.7509,7.7582,7.8185,7.8919,7.9764,7.9853,7.9837,7.989,8.0073,7.989,8.0,8.0645,8.1122,8.1379,8.261,8.27,8.2296,8.2774,8.3067,8.3197,8.3271,8.3675,8.4389,8.4425,8.4499,8.4719,8.5343,8.5453,8.4976,8.56,8.6297,8.6885,8.7014,8.7472,8.8316,8.9033,8.9821,9.0629,9.1179,9.1326,9.0739,9.0482,9.0317,8.9583,8.9473,8.9693,9.0244,9.0629,9.1033,9.1583,9.1767,9.1803,9.1803,9.1803,9.1803,9.1803,9.1803,9.1803,9.1803,9.1803,9.1803,9.1803,9.1803,9.1803,9.1803,9.1803,9.1803,9.1803,9.1803,9.1803,9.1803,9.1803,9.1803,9.1803,9.1803,9.1803,9.1803,9.1803,9.1803,9.1803,9.1803,9.1803,9.1767,9.173,9.173,9.1693,9.1583,9.1546,9.1546,9.1436,9.1289,9.1363,9.162,9.162,8.1893,8.1856,8.1636,8.1342,8.1012,8.0755,7.9874,7.8699,7.8626,7.817,7.7582,7.7986,7.7855,7.7399,7.7965,7.7928,7.7436,7.7326,7.7326,7.7436,7.7986,7.8222,7.8259,7.8516,7.936,8.0498,8.0681,8.0681,8.0718,8.1195,8.1211,8.0755,8.1489,8.2186,8.2757,8.2627,8.2774,8.2957,8.2627,8.292,8.3381,8.3491,8.3785,8.4499,8.4646,8.4976,8.5453,8.6261,8.6611,8.6444,8.6554,8.6721,8.7088,8.7582,8.8169,8.8959,8.9803,9.0629,9.1289,9.1657,9.1657,9.1473,9.0959,9.0519,9.0372,9.028,9.0408,9.0702,9.1069,9.1546,9.1767,9.1803,9.1803,9.1803,9.1803,9.1803,9.1803,9.1803,9.1803,9.1803,9.1803,9.1803,9.1803,9.1803,9.1803,9.1803,9.1803,9.1803,9.1803,9.1803,9.1803,9.1803,9.1803,9.1803,9.1803,9.1803,9.1803,9.1803,9.1803,9.1803,9.1803,9.1803,9.1803,9.1767,9.1767,9.1767,9.1767,9.173,9.1767,9.1803,9.1693,9.1546,9.162,9.1767,9.1767,8.2186,8.2186,8.2186,8.1929,8.1525,8.1489,8.0791,7.969,7.9213,7.8626,7.8096,7.8332,7.8112,7.7472,7.8185,7.8096,7.7399,7.7326,7.7326,7.7472,7.8185,7.8919,7.9433,7.9617,8.0277,8.1342,8.1489,8.1525,8.1562,8.2003,8.1893,8.1746,8.2296,8.2757,8.2774,8.3251,8.303,8.2994,8.2994,8.3471,8.3875,8.4278,8.4849,8.5453,8.5637,8.6004,8.6775,8.7252,8.7509,8.7435,8.7234,8.7271,8.7968,8.8096,8.861,8.9363,9.0134,9.0812,9.1253,9.1583,9.1803,9.173,9.1289,9.1143,9.1106,9.1106,9.1106,9.1179,9.1583,9.173,9.1803,9.1803,9.1803,9.1803,9.1803,9.1803,9.1803,9.1803,9.1803,9.1803,9.1803,9.1803,9.1803,9.1803,9.1803,9.1803,9.1803,9.1803,9.1803,9.1803,9.1803,9.1803,9.1803,9.1803,9.1803,9.1803,9.1803,9.1803,9.1803,9.1803,9.1803,9.1803,9.1803,9.1803,9.1803,9.1803,9.1803,9.1803,9.1803,9.1803,9.1803,9.1803,9.1803,9.1803,9.1803,8.2186,8.2186,8.2186,8.2186,8.215,8.215,8.1636,8.0901,8.0204,7.9486,7.8846,7.8699,7.8442,7.7619,7.8552,7.8295,7.7509,7.7582,7.7619,7.7949,7.8589,7.9507,8.0901,8.0755,8.1232,8.1966,8.215,8.2113,8.2076,8.215,8.2186,8.226,8.2904,8.3051,8.3141,8.3875,8.3765,8.3324,8.3875,8.4425,8.4756,8.5233,8.5857,8.6537,8.6684,8.7142,8.7766,8.8133,8.8243,8.8463,8.7692,8.8078,8.9106,8.8683,8.8904,8.9583,9.0354,9.0849,9.0886,9.151,9.1803,9.1767,9.1767,9.1803,9.1693,9.1657,9.1657,9.162,9.1767,9.1803,9.1803,9.1803,9.1803,9.1803,9.1803,9.1803,9.1803,9.1803,9.1803,9.1803,9.1803,9.1803,9.1803,9.1803,9.1803,9.1803,9.1803,9.1803,9.1803,9.1803,9.1803,9.1803,9.1803,9.1803,9.1803,9.1803,9.1803,9.1803,9.1803,9.1803,9.1803,9.1803,9.1803,9.1803,9.1803,9.1803,9.1803,9.1803,9.1803,9.1803,9.1803,9.1803,9.1803,9.1803,9.1803,8.2186,8.2186,8.2186,8.2186,8.2186,8.2186,8.1746,8.1012,8.0828,8.0241,7.9669,7.9559,7.9396,7.9213,7.936,7.9119,7.8295,7.8259,7.8626,7.9286,7.9396,8.0461,8.1489,8.1342,8.1489,8.2039,8.2186,8.2186,8.2186,8.2186,8.2186,8.237,8.3104,8.3654,8.4095,8.4352,8.4829,8.4866,8.4792,8.4939,8.5416,8.5727,8.6224,8.6941,8.7014,8.7418,8.8023,8.8206,8.8793,8.9564,8.94,8.9143,8.951,8.9803,9.0078,9.0408,9.1033,9.151,9.1583,9.1657,9.1803,9.1803,9.1803,9.1803,9.1803,9.1803,9.1803,9.1803,9.1803,9.1803,9.1803,9.1803,9.1803,9.1803,9.1803,9.1803,9.1803,9.1803,9.1803,9.1803,9.1803,9.1803,9.1803,9.1803,9.1803,9.1803,9.1803,9.1803,9.1803,9.1803,9.1803,9.1803,9.1803,9.1803,9.1803,9.1803,9.1803,9.1803,9.1803,9.1803,9.1803,9.1803,9.1803,9.1803,9.1803,9.1803,9.1803,9.1803,9.1803,9.1803,9.1803,9.1803,9.1803,9.1803,9.1803,8.2186,8.2186,8.2186,8.2186,8.2186,8.2186,8.1966,8.1525,8.1158,8.0755,8.0424,8.0367,8.0167,7.9853,8.0094,7.9764,7.8699,7.8148,7.8405,7.9103,7.9596,8.0461,8.1452,8.1636,8.1819,8.215,8.2186,8.2186,8.2186,8.2223,8.2406,8.281,8.3528,8.4132,8.4646,8.4939,8.5123,8.5159,8.527,8.538,8.5764,8.6187,8.6481,8.6904,8.7051,8.7491,8.8647,8.8776,8.9638,9.0592,9.0739,9.0501,9.0445,9.0592,9.0739,9.1216,9.1473,9.1803,9.1803,9.1803,9.1803,9.1803,9.1803,9.1803,9.1803,9.1803,9.1803,9.1803,9.1803,9.1803,9.1803,9.1803,9.1803,9.1803,9.1803,9.1803,9.1803,9.1803,9.1803,9.1803,9.1803,9.1803,9.1803,9.1803,9.1803,9.1803,9.1803,9.1803,9.1803,9.1803,9.1803,9.1803,9.1803,9.1803,9.1803,9.1803,9.1803,9.1803,9.1803,9.1803,9.1803,9.1803,9.1803,9.1803,9.1803,9.1803,9.1803,9.1803,9.1803,9.1803,9.1803,9.1803,9.1803,9.1803,9.1803,8.2186,8.2186,8.2186,8.2186,8.2186,8.2186,8.2186,8.2076,8.1489,8.1269,8.1122,8.1085,8.0645,8.044,8.0681,8.0131,7.9103,7.806,7.8259,7.9029,7.9559,8.0314,8.1085,8.1709,8.2113,8.2186,8.2186,8.2186,8.2186,8.2223,8.2443,8.3214,8.3931,8.4315,8.4682,8.5343,8.5637,8.5416,8.5783,8.6004,8.6114,8.6628,8.6904,8.6978,8.7051,8.7785,8.8923,8.94,9.006,9.162,9.1803,9.1803,9.162,9.1289,9.1033,9.1767,9.1767,9.1767,9.1803,9.1803,9.1803,9.1803,9.1803,9.1803,9.1803,9.1803,9.1803,9.1803,9.1803,9.1803,9.1803,9.1803,9.1803,9.1803,9.1803,9.1803,9.1803,9.1803,9.1803,9.1803,9.1803,9.1803,9.1803,9.1803,9.1803,9.1803,9.1803,9.1803,9.1803,9.1803,9.1803,9.1803,9.1803,9.1803,9.1803,9.1803,9.1803,9.1803,9.1803,9.1803,9.1803,9.1803,9.1803,9.1803,9.1803,9.1803,9.1803,9.1803,9.1803,9.1803,9.1803,9.1803,9.1803,9.1803,9.1803,8.2186,8.2186,8.2186,8.2186,8.2186,8.2186,8.2186,8.2186,8.2003,8.2003,8.1856,8.1305,8.1342,8.1452,8.1122,8.0775,8.0131,7.9029,7.8699,7.9412,7.9779,8.0204,8.1012,8.1782,8.215,8.2186,8.2186,8.2186,8.2186,8.2223,8.237,8.259,8.3271,8.3895,8.4756,8.538,8.6114,8.6444,8.6701,8.6811,8.6885,8.6867,8.7014,8.7014,8.7014,8.7858,8.8996,8.9473,9.0134,9.1583,9.1767,9.1803,9.1767,9.162,9.1657,9.173,9.1803,9.1803,9.1803,9.1803,9.1803,9.1803,9.1803,9.1803,9.1803,9.184,9.195,9.1877,9.184,9.1803,9.1803,9.1803,9.1803,9.1803,9.1803,9.1803,9.1803,9.1803,9.1803,9.1803,9.1803,9.1803,9.1803,9.1803,9.1803,9.1803,9.1803,9.1803,9.1803,9.1803,9.1803,9.1803,9.1803,9.1803,9.1803,9.1803,9.1803,9.1803,9.1803,9.1803,9.1803,9.1803,9.1803,9.1803,9.1803,9.1803,9.1803,9.1803,9.1803,9.1803,9.1803,9.1803,9.1803,9.1803,9.1803,8.2186,8.2186,8.2186,8.2186,8.2186,8.2186,8.1929,8.1672,8.2003,8.1966,8.1709,8.1599,8.1562,8.1599,8.1709,8.1415,8.0681,7.936,7.9119,7.9669,7.9853,8.022,8.1012,8.1819,8.2113,8.2186,8.2186,8.2186,8.2186,8.2186,8.237,8.2867,8.3271,8.3968,8.5013,8.5617,8.6481,8.7252,8.7582,8.7582,8.7509,8.7271,8.7014,8.7014,8.7088,8.7858,8.9033,8.94,9.017,9.1436,9.1803,9.1803,9.1803,9.1803,9.1803,9.1803,9.1803,9.1803,9.1803,9.1803,9.1803,9.1803,9.1803,9.1803,9.195,9.217,9.2427,9.2354,9.1913,9.1803,9.1803,9.1803,9.1803,9.1803,9.1803,9.1803,9.1803,9.1803,9.1803,9.1803,9.1803,9.1803,9.1803,9.1803,9.1803,9.1803,9.1803,9.1803,9.1803,9.1803,9.1803,9.1803,9.1803,9.1803,9.1803,9.1803,9.1803,9.1803,9.1803,9.1803,9.1803,9.1803,9.1803,9.1803,9.1803,9.1803,9.1803,9.1803,9.1803,9.1803,9.1803,9.1803,9.1803,9.1803,9.1803,8.2186,8.2186,8.2186,8.2186,8.2186,8.2186,8.1746,8.1269,8.1856,8.1746,8.1195,8.1746,8.1819,8.1562,8.1782,8.1819,8.1085,7.9617,7.9433,7.9926,7.989,8.0257,8.1048,8.1746,8.2186,8.2186,8.2186,8.2186,8.2186,8.2186,8.2553,8.281,8.3104,8.3948,8.5123,8.5397,8.6591,8.7472,8.7949,8.7949,8.7802,8.7381,8.7014,8.7014,8.7014,8.7748,8.9216,8.94,9.0244,9.1326,9.1803,9.1803,9.1803,9.1803,9.1803,9.1803,9.1803,9.1803,9.1803,9.1803,9.1803,9.1803,9.1803,9.1877,9.2281,9.2831,9.3272,9.3015,9.2574,9.1987,9.1877,9.1803,9.1803,9.1803,9.1803,9.1803,9.1803,9.1803,9.1803,9.1803,9.1803,9.1803,9.1803,9.1803,9.1803,9.1803,9.1803,9.1803,9.1803,9.1803,9.1803,9.1803,9.1803,9.1803,9.1803,9.1803,9.1803,9.1803,9.1803,9.1803,9.1803,9.1803,9.1803,9.1803,9.1803,9.1803,9.1803,9.1803,9.1803,9.1803,9.1803,9.1803,9.1803,9.1803,9.1803,8.2186,8.2186,8.2186,8.2186,8.2186,8.2186,8.1746,8.1158,8.1856,8.1746,8.1048,8.1819,8.2113,8.2003,8.1893,8.2003,8.1489,8.0293,7.98,8.0351,8.0073,8.022,8.1012,8.1819,8.215,8.2186,8.2186,8.2186,8.2186,8.2186,8.2223,8.2406,8.2663,8.3177,8.4756,8.5086,8.56,8.6904,8.7234,8.7234,8.7252,8.7088,8.7014,8.7014,8.7124,8.7675,8.9033,8.9363,9.017,9.1473,9.1767,9.1803,9.1803,9.1803,9.1803,9.1803,9.1803,9.1803,9.1803,9.1803,9.1803,9.1803,9.1803,9.2207,9.2721,9.3272,9.3529,9.3161,9.2868,9.2464,9.1913,9.1803,9.1803,9.1803,9.1803,9.1803,9.1803,9.1803,9.1803,9.1803,9.1803,9.1803,9.1803,9.1803,9.1803,9.1803,9.1803,9.1803,9.1803,9.1803,9.1803,9.1803,9.1803,9.1803,9.1803,9.1803,9.1803,9.1803,9.1803,9.1803,9.1803,9.1803,9.1803,9.1803,9.1803,9.1803,9.1803,9.1803,9.1803,9.1803,9.1803,9.1803,9.1803,9.1803,9.1803,8.2186,8.2186,8.2186,8.2186,8.2186,8.2186,8.1746,8.1269,8.1819,8.1746,8.1269,8.1819,8.2186,8.1966,8.0901,8.0645,8.0975,7.9926,7.9596,8.0257,8.011,8.0257,8.1012,8.1782,8.2186,8.2186,8.2186,8.2186,8.2186,8.2186,8.2186,8.2296,8.27,8.3471,8.4572,8.5049,8.6224,8.7252,8.7729,8.7692,8.7545,8.7252,8.7031,8.7031,8.7012,8.771,8.8482,8.9253,8.9913,9.1033,9.1473,9.1803,9.1803,9.1803,9.1803,9.1803,9.1803,9.1803,9.1803,9.1803,9.1803,9.1803,9.1877,9.217,9.2831,9.3015,9.3198,9.3125,9.2611,9.2207,9.195,9.1803,9.1803,9.1803,9.1803,9.1803,9.1803,9.1803,9.1803,9.1803,9.1803,9.1803,9.1803,9.1803,9.1803,9.1803,9.1803,9.1803,9.1803,9.1803,9.1803,9.1803,9.1803,9.1803,9.1803,9.1803,9.1803,9.1803,9.1803,9.1803,9.1803,9.1803,9.1803,9.1803,9.1803,9.1803,9.1803,9.1803,9.1803,9.1803,9.1803,9.1803,9.1803,9.1803,9.1803,8.2186,8.2186,8.2186,8.2186,8.2186,8.2186,8.1746,8.1158,8.1856,8.1746,8.1379,8.1782,8.2113,8.1636,8.0314,8.0057,8.0571,7.9433,7.9522,7.9853,8.0183,8.0608,8.1342,8.2003,8.2186,8.2186,8.2186,8.2186,8.2186,8.2223,8.2296,8.248,8.303,8.3785,8.4572,8.5343,8.6407,8.7545,8.7729,8.7867,8.7961,8.7569,8.7368,8.7278,8.7355,8.7548,8.8204,8.8959,8.9767,9.0574,9.14,9.1767,9.1803,9.1803,9.1803,9.1803,9.1803,9.1803,9.1803,9.1803,9.1803,9.1877,9.2097,9.2501,9.2905,9.2537,9.2391,9.3125,9.2684,9.2207,9.184,9.1803,9.1803,9.1803,9.1803,9.1803,9.1803,9.1803,9.1803,9.1803,9.1803,9.1803,9.1803,9.1803,9.1803,9.1803,9.1803,9.1803,9.1803,9.1803,9.1803,9.1803,9.1803,9.1803,9.1803,9.1803,9.1803,9.1803,9.1803,9.1803,9.1803,9.1803,9.1803,9.1803,9.1803,9.1803,9.1803,9.1803,9.1803,9.1803,9.1803,9.1803,9.1803,9.1803,9.1803,8.2186,8.2186,8.2186,8.2186,8.2186,8.2186,8.1746,8.1179,8.1893,8.1782,8.1305,8.1746,8.1709,8.1158,8.0681,8.0131,7.9926,7.9779,8.0021,8.0498,8.0975,8.1269,8.1819,8.2076,8.2186,8.2186,8.2186,8.2186,8.2186,8.2186,8.2627,8.3234,8.3308,8.3895,8.4572,8.5306,8.6224,8.7139,8.7355,8.7682,8.7995,8.8028,8.8015,8.8,8.8013,8.808,8.8257,8.8884,8.962,9.0427,9.1179,9.173,9.1767,9.1767,9.1803,9.1803,9.1803,9.1803,9.1803,9.1803,9.1803,9.2024,9.2317,9.2684,9.2831,9.3675,9.3712,9.3015,9.2611,9.2391,9.2024,9.1803,9.1803,9.1803,9.1803,9.1803,9.1803,9.1803,9.1803,9.1803,9.1803,9.1803,9.1803,9.1803,9.1803,9.1803,9.1803,9.1803,9.1803,9.1803,9.1803,9.1803,9.1803,9.1803,9.1803,9.1803,9.1803,9.1803,9.1803,9.1803,9.1803,9.1803,9.1803,9.1803,9.1803,9.1803,9.1803,9.1803,9.1803,9.1803,9.1803,9.1803,9.1803,9.1803,9.1803,8.2186,8.2186,8.2186,8.2186,8.2186,8.2186,8.2039,8.1819,8.2039,8.2039,8.1709,8.1562,8.1599,8.1305,8.0057,7.969,7.9669,7.9229,7.969,8.0241,8.0755,8.1452,8.1929,8.2186,8.2186,8.2186,8.2186,8.2186,8.2186,8.2186,8.27,8.3161,8.3308,8.3528,8.4115,8.5123,8.6131,8.6943,8.7444,8.7883,8.8061,8.8546,8.8705,8.8705,8.8227,8.8127,8.8185,8.8466,8.9084,8.984,9.0665,9.1216,9.1693,9.173,9.1803,9.1803,9.1803,9.1803,9.1803,9.1803,9.1803,9.184,9.2097,9.2317,9.2391,9.2684,9.2648,9.2354,9.2354,9.2134,9.195,9.1803,9.1803,9.1803,9.1803,9.1803,9.1803,9.1803,9.1803,9.1803,9.1803,9.1803,9.1803,9.1803,9.1803,9.1803,9.1803,9.1803,9.1803,9.1803,9.1803,9.1803,9.1803,9.1803,9.1803,9.1803,9.1803,9.1803,9.1803,9.1803,9.1803,9.1803,9.1803,9.1803,9.1803,9.1803,9.1803,9.1803,9.1803,9.1803,9.1803,9.1803,9.1803,9.1803,9.1803,8.2186,8.2186,8.2186,8.2186,8.2186,8.2186,8.2186,8.2186,8.2186,8.2186,8.215,8.1636,8.1305,8.0991,7.9947,7.8809,7.9066,7.9029,7.936,8.0057,8.0901,8.1599,8.2003,8.2186,8.2186,8.2186,8.2186,8.2186,8.2186,8.2186,8.248,8.2847,8.3051,8.3124,8.3748,8.4719,8.6032,8.7185,8.7741,8.8417,8.8649,8.9148,8.9376,8.9351,8.9016,8.8498,8.8398,8.847,8.8755,8.9357,9.0005,9.0849,9.1289,9.162,9.1767,9.1803,9.1803,9.1803,9.1803,9.1803,9.1803,9.1803,9.1803,9.1877,9.1803,9.1803,9.1987,9.1913,9.184,9.1803,9.1803,9.1803,9.1803,9.1803,9.1803,9.1803,9.1803,9.1803,9.1803,9.1803,9.1803,9.1803,9.1803,9.1803,9.1803,9.1803,9.1803,9.1803,9.1803,9.1803,9.1803,9.1803,9.1803,9.1803,9.1803,9.1803,9.1803,9.1803,9.1803,9.1803,9.1803,9.1803,9.1803,9.1803,9.1803,9.1803,9.1803,9.1803,9.1803,9.1803,9.1803,9.1803,9.1803,9.1803,9.1803,8.2186,8.2186,8.2186,8.2186,8.2186,8.2186,8.2186,8.2186,8.2186,8.2186,8.215,8.2003,8.1232,8.0293,7.9706,7.8993,7.8516,7.9192,7.9816,8.0241,8.1321,8.2003,8.215,8.2186,8.2186,8.2186,8.2186,8.2186,8.2186,8.2186,8.2296,8.2406,8.259,8.292,8.3454,8.4242,8.5812,8.7716,8.8039,8.8829,8.9571,8.9973,9.0084,9.0062,8.9832,8.9263,8.8858,8.8648,8.8787,8.8916,8.9784,9.0445,9.0629,9.1436,9.1693,9.1657,9.1767,9.1803,9.1803,9.1803,9.1803,9.1803,9.1803,9.1803,9.1803,9.1803,9.1803,9.1803,9.1803,9.1803,9.1803,9.1803,9.1803,9.1803,9.1803,9.1803,9.1803,9.1803,9.1803,9.1803,9.1803,9.1803,9.1803,9.1803,9.1803,9.1803,9.1803,9.1803,9.1803,9.1803,9.1803,9.1803,9.1803,9.1803,9.1803,9.1803,9.1803,9.1803,9.1803,9.1803,9.1803,9.1803,9.1803,9.1803,9.1803,9.1803,9.1803,9.1803,9.1803,9.1803,9.1803,9.1803,9.1803,9.1803,9.1803,8.2186,8.2186,8.2186,8.2186,8.2186,8.2186,8.2186,8.2186,8.2186,8.2186,8.2076,8.1709,8.1232,8.0461,7.9596,7.9029,7.914,7.9213,7.9926,8.0718,8.1746,8.2039,8.2186,8.2186,8.2186,8.2186,8.2186,8.2186,8.2186,8.2186,8.2186,8.226,8.2627,8.3434,8.4058,8.4713,8.5738,8.7763,8.8546,8.9187,9.0001,9.0477,9.0723,9.0694,9.0273,8.9775,8.9264,8.8981,8.8652,8.8713,8.962,8.9803,9.0097,9.0886,9.1473,9.1363,9.1363,9.1803,9.1803,9.1803,9.1803,9.1803,9.1803,9.1803,9.1803,9.1803,9.1803,9.1803,9.1803,9.1803,9.1803,9.1803,9.1803,9.1803,9.1803,9.1803,9.1803,9.1803,9.1803,9.1803,9.1803,9.1803,9.1803,9.1803,9.1803,9.1803,9.1803,9.1803,9.1803,9.1803,9.1803,9.1803,9.1803,9.1803,9.1803,9.1803,9.1803,9.1803,9.1803,9.1803,9.1803,9.1803,9.1803,9.1803,9.1803,9.1803,9.1803,9.1803,9.1803,9.1803,9.1803,9.1803,9.1803,9.1803,9.1803,8.2186,8.215,8.1893,8.1782,8.1819,8.2076,8.2186,8.2186,8.2186,8.2186,8.2076,8.1636,8.1232,8.0755,8.0057,7.9339,7.9853,8.0147,8.0314,8.1122,8.1819,8.2113,8.2186,8.2186,8.2186,8.2186,8.2186,8.2186,8.2186,8.2186,8.2186,8.2333,8.2774,8.3471,8.4242,8.504,8.6049,8.7687,8.8503,8.895,8.9609,9.0051,9.0353,9.022,8.9954,8.9578,8.9365,8.8951,8.8483,8.876,8.9033,8.9179,8.9546,9.0262,9.0996,9.0959,9.1289,9.173,9.1803,9.1803,9.1803,9.1803,9.1803,9.1803,9.1803,9.1803,9.1803,9.1803,9.1803,9.1803,9.1803,9.1803,9.1803,9.1803,9.1803,9.1803,9.1803,9.1803,9.1803,9.1803,9.1803,9.1803,9.1803,9.1803,9.1803,9.1803,9.1803,9.1803,9.1803,9.1803,9.1803,9.1803,9.1803,9.1803,9.1803,9.1803,9.1803,9.1803,9.1803,9.1803,9.1803,9.1803,9.1803,9.1803,9.1803,9.1803,9.1803,9.1803,9.1803,9.1803,9.1803,9.1803,9.1803,9.1803,9.1803,8.2186,8.2076,8.1342,8.1032,8.1158,8.1709,8.2003,8.2113,8.2113,8.2145,8.2247,8.2111,8.1534,8.1013,8.0761,8.0304,7.9963,8.0461,8.0901,8.1269,8.1929,8.2113,8.2186,8.2186,8.2186,8.2186,8.2186,8.2186,8.2186,8.2186,8.2186,8.2223,8.2517,8.3324,8.4278,8.5133,8.6336,8.7619,8.8011,8.8527,8.92,8.9339,8.9326,8.9188,8.8931,8.8542,8.8339,8.8271,8.792,8.8086,8.8429,8.8538,8.8977,8.9748,9.0298,9.0886,9.1473,9.1693,9.1803,9.1803,9.1803,9.1803,9.1803,9.1803,9.1803,9.1803,9.1803,9.1803,9.1803,9.1803,9.1803,9.1803,9.1803,9.1803,9.1803,9.1803,9.1803,9.1803,9.1803,9.1803,9.1803,9.1803,9.1803,9.1803,9.1803,9.1803,9.1803,9.1803,9.1803,9.1803,9.1803,9.1803,9.1803,9.1803,9.1803,9.1803,9.1803,9.1803,9.1803,9.1803,9.1803,9.1803,9.1803,9.1803,9.1803,9.1803,9.1803,9.1803,9.1803,9.1803,9.1803,9.1803,9.1803,9.1803,9.1803,8.2186,8.2113,8.1342,8.0995,8.0938,8.0624,8.0791,8.1305,8.1358,8.1865,8.2831,8.1637,8.1193,8.0776,7.9648,7.9541,7.9768,8.0183,8.0975,8.1489,8.1929,8.2113,8.2096,8.199,8.2096,8.2133,8.2133,8.2047,8.2186,8.2186,8.2186,8.2223,8.259,8.3287,8.3911,8.4572,8.6179,8.7316,8.7501,8.7838,8.8517,8.8716,8.8396,8.7904,8.7668,8.7243,8.6906,8.7061,8.686,8.7029,8.7868,8.8117,8.7565,8.9344,9.0739,9.1436,9.1693,9.1803,9.1803,9.1803,9.1803,9.1803,9.1803,9.1803,9.1803,9.1803,9.1803,9.1803,9.1803,9.1803,9.1803,9.1803,9.1803,9.1803,9.1803,9.1803,9.1803,9.1803,9.1803,9.1803,9.1803,9.1803,9.1803,9.1803,9.1803,9.1803,9.1803,9.1803,9.1803,9.1803,9.1803,9.1803,9.1803,9.1803,9.1803,9.1803,9.1803,9.1803,9.1803,9.1803,9.1803,9.1803,9.1803,9.1803,9.1803,9.1803,9.1803,9.1803,9.1803,9.1803,9.1803,9.1803,9.1803,9.1803,9.1803,8.1746,8.1562,8.0498,7.9874,7.9491,7.9029,7.939,8.0367,8.1092,8.1978,8.2542,8.1708,8.1252,8.1131,8.0161,7.9835,8.0309,8.0828,8.1269,8.1305,8.1713,8.1395,8.131,8.0974,8.1011,8.1297,8.15,8.1366,8.1925,8.2186,8.2186,8.2223,8.2794,8.3324,8.3801,8.4295,8.541,8.6512,8.7053,8.6914,8.7149,8.7508,8.6869,8.6221,8.5996,8.5534,8.5163,8.5414,8.5789,8.6089,8.703,8.7412,8.7133,8.8757,8.9968,9.0555,9.1106,9.1179,9.1289,9.1657,9.173,9.1803,9.1803,9.1803,9.1803,9.1803,9.1803,9.1803,9.1803,9.1803,9.1803,9.1803,9.1803,9.1803,9.1803,9.1803,9.1803,9.1803,9.1803,9.1803,9.1803,9.1803,9.1803,9.1803,9.1803,9.1803,9.1803,9.1803,9.1803,9.1803,9.1803,9.1803,9.1803,9.1803,9.1803,9.1803,9.1803,9.1803,9.1803,9.1803,9.1803,9.1803,9.1803,9.1803,9.1803,9.1803,9.1803,9.1803,9.1803,9.1803,9.1803,9.1803,9.1803,9.1803,9.1803,8.0975,8.0901,7.925,7.8259,7.7399,7.7436,7.8168,7.9548,8.1033,8.1978,8.206,8.1889,8.1656,8.1292,8.0606,8.0407,8.0745,8.1158,8.1379,8.0984,8.0861,8.0662,8.0047,7.8874,7.9499,8.003,8.049,8.0803,8.1855,8.2186,8.2186,8.2186,8.2443,8.3067,8.3931,8.3968,8.4893,8.5989,8.595,8.556,8.51,8.4977,8.4733,8.3768,8.3578,8.3485,8.3562,8.401,8.4788,8.5271,8.5882,8.6516,8.7594,8.7949,8.8793,8.9711,9.0592,9.0886,9.1143,9.1546,9.173,9.1803,9.1803,9.1803,9.1803,9.1803,9.1803,9.1803,9.1803,9.1803,9.1803,9.1803,9.1803,9.1803,9.1803,9.1803,9.1803,9.1803,9.1803,9.1803,9.1803,9.1803,9.1803,9.1803,9.1803,9.1803,9.1803,9.1803,9.173,9.173,9.173,9.173,9.1803,9.1803,9.1803,9.1803,9.1803,9.1803,9.1803,9.1803,9.1803,9.1803,9.1803,9.1803,9.1803,9.1803,9.1803,9.1803,9.1803,9.1803,9.1803,9.1803,9.1803,9.1803,9.1803,8.0461,8.0828,7.925,7.8112,7.7347,7.7326,7.7791,7.8722,8.0193,8.1424,8.2116,8.1363,8.0856,8.0792,8.0219,7.9985,8.0225,8.0853,8.1456,8.0891,8.0368,7.9586,7.9574,7.7736,7.8069,7.9023,7.97,8.0324,8.1559,8.1994,8.2223,8.2296,8.2627,8.3418,8.3895,8.3948,8.4849,8.5749,8.5154,8.4952,8.486,8.4695,8.4532,8.3046,8.2278,8.1886,8.1886,8.213,8.3072,8.3903,8.5032,8.6605,8.8651,8.8354,8.9271,9.0665,9.0629,9.0812,9.1216,9.1546,9.173,9.1803,9.1803,9.1803,9.1803,9.1803,9.1803,9.1803,9.1803,9.1803,9.1803,9.1803,9.1803,9.1803,9.1803,9.1803,9.1803,9.1803,9.1803,9.1803,9.1803,9.1803,9.1803,9.1803,9.1803,9.1803,9.1803,9.1767,9.1657,9.1583,9.1583,9.162,9.1767,9.1803,9.1803,9.1803,9.1803,9.1803,9.1803,9.1803,9.1803,9.1803,9.1803,9.1803,9.1803,9.1803,9.1803,9.1803,9.1803,9.1803,9.1803,9.1803,9.1803,9.1803,9.1803,7.9507,7.9764,7.8552,7.7474,7.6797,7.7082,7.7817,7.8727,7.9292,8.0257,8.1347,8.0768,8.0313,8.0005,7.9386,7.8989,7.9238,7.9943,7.9605,7.9305,7.8981,7.7952,7.7127,7.6144,7.6402,7.7173,7.8977,8.0147,8.1102,8.1941,8.2223,8.2333,8.2957,8.3564,8.3911,8.4646,8.5233,8.5696,8.4844,8.4508,8.4501,8.3929,8.28,8.1282,8.0799,8.0579,8.0706,8.099,8.2014,8.3663,8.5218,8.6411,8.7734,8.7748,8.85,8.9528,9.0041,9.0445,9.1069,9.151,9.1657,9.1657,9.173,9.173,9.1803,9.1803,9.1803,9.1803,9.1803,9.1803,9.1803,9.1803,9.1803,9.1803,9.1803,9.1803,9.1803,9.1803,9.1803,9.1803,9.1803,9.1803,9.1803,9.1803,9.1693,9.1143,9.1253,9.0959,9.0996,9.1179,9.1253,9.1289,9.1363,9.1657,9.1803,9.1803,9.1803,9.1803,9.1803,9.1803,9.1803,9.1803,9.1803,9.1803,9.1803,9.1803,9.1803,9.1803,9.1803,9.1803,9.1803,9.1803,9.1803,9.1803,9.1803,7.8117,7.7959,7.7364,7.6611,7.6027,7.6872,7.7937,7.8866,7.8575,7.8915,7.9768,7.9868,7.9628,7.9126,7.8673,7.8238,7.8149,7.8567,7.791,7.7264,7.6576,7.6227,7.5108,7.3645,7.4371,7.5791,7.7692,7.8873,7.9879,8.1026,8.1966,8.2296,8.2994,8.3748,8.4499,8.5179,8.5622,8.5426,8.4779,8.3895,8.3153,8.2344,8.1153,8.0287,7.9803,8.0175,8.0209,8.0706,8.1676,8.3493,8.5597,8.6938,8.7421,8.7601,8.8353,8.9124,8.9344,8.9858,9.0519,9.0996,9.1216,9.1363,9.151,9.151,9.151,9.1583,9.1583,9.162,9.162,9.1767,9.1767,9.1767,9.1767,9.173,9.173,9.1767,9.1767,9.1767,9.1767,9.1767,9.1767,9.1767,9.1767,9.1767,9.1289,9.0776,9.0335,8.995,8.984,9.0207,9.0427,9.0537,9.0665,9.1033,9.162,9.173,9.173,9.1803,9.1803,9.1803,9.1803,9.1803,9.1803,9.1803,9.1803,9.1803,9.1803,9.1803,9.1803,9.1803,9.1803,9.1803,9.1803,9.1803,9.1803,7.5867,7.519,7.579,7.5976,7.5976,7.6856,7.7768,7.8365,7.8389,7.8471,7.8409,7.7812,7.7393,7.7318,7.7344,7.6947,7.6341,7.6904,7.712,7.6708,7.5166,7.4809,7.4149,7.2652,7.2944,7.4432,7.6305,7.7873,7.9053,8.0468,8.1636,8.2223,8.3014,8.3528,8.3675,8.4344,8.4765,8.4499,8.3196,8.1881,8.1388,8.094,8.118,8.0554,8.0107,8.0209,8.0401,8.1125,8.2267,8.3797,8.5654,8.7264,8.7748,8.7675,8.828,8.905,8.9234,8.9417,9.0041,9.0207,9.0354,9.0244,9.028,9.0354,9.0482,9.0812,9.0886,9.1033,9.1179,9.1583,9.1657,9.1657,9.1657,9.1583,9.1583,9.1583,9.162,9.1657,9.1657,9.1693,9.1693,9.1657,9.162,9.1326,9.0739,9.0225,8.9784,8.94,8.9106,8.9363,8.962,8.9877,9.0024,9.0739,9.1473,9.1583,9.162,9.1693,9.1803,9.1803,9.1803,9.1803,9.1803,9.1803,9.1803,9.1803,9.1803,9.1803,9.1803,9.1803,9.1803,9.1803,9.1803,9.1803,9.1803]}]]